[[{"header":{"parameterUnit":"m.s-1","parameterCategory":1,"la1":31.0,"la2":29.5877,"lo1":-88.7671,"lo2":-86.6584,"dy":0.0162,"dx":0.0185,"nx":115,"ny":88,"refTime":"2026-05-06T12:00:00:Z","depth":0,"parameterNumber":2,"parameterNumberName":"U-component_of_WINDS"},"data":[0.0,0.0,0.0,0.0,0.0,0.0,0.0,0.0,0.0,0.0,0.0,0.0,0.0,0.0,0.0,0.0,0.0,0.0,0.0,0.0,0.0,0.0,0.0,0.0,0.0,0.0,0.0,0.0,0.0,0.0,0.0,0.0,0.0,0.0,0.0,0.0,0.0,0.0,0.0,0.0,0.0,0.0,0.0,0.0,0.0,0.0,0.0,0.0,0.0,0.0,0.0,0.0,0.0,0.0,0.0,0.0,0.0,0.0,0.0,0.0,0.0,0.0,0.0,0.0,0.0,0.0,0.0,0.0,0.0,0.0,0.0,0.0,0.0,0.0,0.0,0.0,0.0,0.0,0.0,0.0,0.0,0.0,0.0,0.0,0.0,0.0,0.0,0.0,0.0,0.0,0.0,0.0,0.0,0.0,0.0,0.0,0.0,0.0,0.0,0.0,0.0,0.0,0.0,0.0,0.0,0.0,0.0,0.0,0.0,0.0,0.0,0.0,0.0,0.0,0.0,0.0,0.0,0.0,0.0,0.0,0.0,0.0,0.0,0.0,0.0,0.0,0.0,0.0,0.0,0.0,0.0,0.0,0.0,0.0,0.0,0.0,0.0,0.0,0.0,0.0,0.0,0.0,0.0,0.0,0.0,0.0,0.0,0.0,0.0,0.0,0.0,0.0,0.0,0.0,0.0,0.0,0.0,0.0,0.0,0.0,0.0,0.0,0.0,0.0,0.0,0.0,0.0,0.0,0.0,0.0,0.0,0.0,0.0,0.0,0.0,0.0,0.0,0.0,0.0,0.0,0.0,0.0,0.0,0.0,0.0,0.0,0.0,0.0,0.0,0.0,0.0,0.0,0.0,0.0,0.0,0.0,0.0,0.0,0.0,0.0,0.0,0.0,0.0,0.0,0.0,0.0,0.0,0.0,0.0,0.0,0.0,0.0,0.0,0.0,0.0,0.0,0.0,0.0,0.0,0.0,0.0,0.0,0.0,0.0,0.0,0.0,0.0,0.0,0.0,0.0,0.0,0.0,0.0,0.0,0.0,0.0,0.0,0.0,0.0,0.0,0.0,0.0,0.0,0.0,0.0,0.0,0.0,0.0,0.0,0.0,0.0,0.0,0.0,0.0,0.0,0.0,0.0,0.0,0.0,0.0,0.0,0.0,0.0,0.0,0.0,0.0,0.0,0.0,0.0,0.0,0.0,0.0,0.0,0.0,0.0,0.0,0.0,0.0,0.0,0.0,0.0,0.0,0.0,0.0,0.0,0.0,0.0,0.0,0.0,0.0,0.0,0.0,0.0,0.0,0.0,0.0,0.0,0.0,0.0,0.0,0.0,0.0,0.0,0.0,0.0,0.0,0.0,0.0,0.0,0.0,0.0,0.0,0.0,0.0,0.0,0.0,0.0,0.0,0.0,0.0,0.0,0.0,0.0,0.0,0.0,0.0,0.0,0.0,0.0,0.0,0.0,0.0,0.0,0.0,0.0,0.0,0.0,0.0,0.0,0.0,0.0,0.0,0.0,0.0,0.0,0.0,0.0,0.0,0.0,0.0,0.0,0.0,0.0,0.0,0.0,0.0,0.0,0.0,0.0,0.0,0.0,0.0,0.0,0.0,0.0,0.0,0.0,0.0,0.0,0.0,0.0,0.0,0.0,0.0,0.0,0.0,0.0,0.0,0.0,0.0,0.0,0.0,0.0,0.0,0.0,0.0,0.0,0.0,0.0,0.0,0.0,0.0,0.0,0.0,0.0,0.0,0.0,0.0,0.0,0.0,0.0,0.0,0.0,0.0,0.0,0.0,0.0,0.0,0.0,0.0,0.0,0.0,0.0,0.0,0.0,0.0,0.0,0.0,0.0,0.0,0.0,0.0,0.0,0.0,0.0,0.0,0.0,0.0,0.0,0.0,0.0,0.0,0.0,0.0,0.0,0.0,0.0,0.0,0.0,0.0,0.0,0.0,0.0,0.0,0.0,0.0,0.0,0.0,0.0,0.0,0.0,0.0,0.0,0.0,0.0,0.0,0.0,0.0,0.0,0.0,0.0,0.0,0.0,0.0,0.0,0.0,0.0,0.0,0.0,0.0,0.0,0.0,0.0,0.0,0.0,0.0,0.0,0.0,0.0,0.0,0.0,0.0,0.0,0.0,0.0,0.0,0.0,0.0,0.0,0.0,0.0,0.0,0.0,0.0,0.0,0.0,0.0,0.0,0.0,0.0,0.0,0.0,0.0,0.0,0.0,0.0,0.0,0.0,0.0,0.0,0.0,0.0,0.0,0.0,0.0,0.0,0.0,0.0,0.0,0.0,0.0,0.0,0.0,0.0,0.0,0.0,0.0,0.0,0.0,0.0,0.0,0.0,0.0,0.0,0.0,0.0,0.0,0.0,0.0,0.0,0.0,0.0,0.0,0.0,0.0,0.0,0.0,0.0,0.0,0.0,0.0,0.0,0.0,0.0,0.0,0.0,0.0,0.0,0.0,0.0,0.0,0.0,0.0,0.0,0.0,0.0,0.0,0.0,0.0,0.0,0.0,0.0,0.0,0.0,0.0,0.0,0.0,0.0,0.0,0.0,0.0,0.0,0.0,0.0,0.0,0.0,0.0,0.0,0.0,0.0,0.0,0.0,0.0,0.0,0.0,0.0,0.0,0.0,0.0,0.0,0.0,0.0,0.0,0.0,0.0,0.0,0.0,0.0,0.0,0.0,0.0,0.0,0.0,0.0,0.0,0.0,0.0,0.0,0.0,0.0,0.0,0.0,0.0,0.0,0.0,0.0,0.0,0.0,0.0,0.0,0.0,0.0,0.0,0.0,0.0,0.0,0.0,0.0,0.0,0.0,0.0,0.0,0.0,0.0,0.0,0.0,0.0,0.0,0.0,0.0,0.0,0.0,0.0,0.0,0.0,0.0,0.0,0.0,0.0,0.0,0.0,0.0,0.0,0.0,0.0,0.0,0.0,0.0,0.0,0.0,0.0,0.0,0.0,0.0,0.0,0.0,0.0,0.0,0.0,0.0,0.0,0.0,0.0,0.0,0.0,0.0,0.0,0.0,0.0,0.0,0.0,0.0,0.0,0.0,0.0,0.0,0.0,0.0,0.0,0.0,0.0,0.0,0.0,0.0,0.0,0.0,0.0,0.0,0.0,0.0,0.0,0.0,0.0,0.0,0.0,0.0,0.0,0.0,0.0,0.0,0.0,0.0,0.0,0.0,0.0,0.0,0.0,0.0,0.0,0.0,0.0,0.0,0.0,0.0,0.0,0.0,0.0,0.0,0.0,0.0,0.0,0.0,0.0,0.0,0.0,0.0,0.0,0.0,0.0,0.0,0.0,0.0,0.0,0.0,0.0,0.0,0.0,0.0,0.0,0.0,0.0,0.0,0.0,0.0,0.0,0.0,0.0,0.0,0.0,0.0,0.0,0.0,0.0,0.0,0.0,0.0,0.0,0.0,0.0,0.0,0.0,0.0,0.0,0.0,0.0,0.0,0.0,0.0,0.0,0.0,0.0,0.0,0.0,0.0,0.0,0.0,0.0,0.0,0.0,0.0,0.0,0.0,0.0,0.0,0.0,0.0,0.0,0.0,0.0,0.0,0.0,0.0,0.0,0.0,0.0,0.0,0.0,0.0,0.0,0.0,0.0,0.0,0.0,0.0,0.0,0.0,0.0,0.0,0.0,0.0,0.0,0.0,0.0,0.0,0.0,0.0,0.0,0.0,0.0,0.0,0.0,0.0,0.0,0.0,0.0,0.0,0.0,0.0,0.0,0.0,0.0,0.0,0.0,0.0,0.0,0.0,0.0,0.0,0.0,0.0,0.0,0.0,0.0,0.0,0.0,0.0,0.0,0.0,0.0,0.0,0.0,0.0,0.0,0.0,0.0,0.0,0.0,0.0,0.0,0.0,0.0,0.0,0.0,0.0,0.0,0.0,0.0,0.0,0.0,0.0,0.0,0.0,0.0,0.0,0.0,0.0,0.0,0.0,0.0,0.0,0.0,0.0,0.0,0.0,0.0,0.0,0.0,0.0,0.0,0.0,0.0,0.0,0.0,0.0,0.0,0.0,0.0,0.0,0.0,0.0,0.0,0.0,0.0,0.0,0.0,0.0,0.0,0.0,0.0,0.0,0.0,0.0,0.0,0.0,0.0,0.0,0.0,0.0,0.0,0.0,0.0,0.0,0.0,0.0,0.0,0.0,0.0,0.0,0.0,0.0,0.0,0.0,0.0,0.0,0.0,0.0,0.0,0.0,0.0,0.0,0.0,0.0,0.0,0.0,0.0,0.0,4.8662,0.0,0.0,0.0,0.0,0.0,0.0,0.0,0.0,0.0,0.0,0.0,0.0,0.0,0.0,0.0,0.0,0.0,0.0,0.0,0.0,0.0,0.0,0.0,0.0,0.0,0.0,0.0,0.0,0.0,0.0,0.0,0.0,0.0,0.0,0.0,0.0,0.0,0.0,0.0,0.0,0.0,0.0,0.0,0.0,0.0,0.0,0.0,0.0,0.0,0.0,0.0,0.0,0.0,0.0,0.0,0.0,0.0,0.0,0.0,0.0,0.0,0.0,0.0,0.0,0.0,0.0,0.0,0.0,0.0,0.0,0.0,0.0,0.0,0.0,0.0,0.0,0.0,0.0,0.0,0.0,0.0,0.0,0.0,0.0,0.0,0.0,0.0,0.0,0.0,0.0,0.0,0.0,0.0,0.0,0.0,0.0,0.0,0.0,0.0,0.0,0.0,0.0,0.0,0.0,0.0,0.0,0.0,0.0,0.0,0.0,5.1657,5.1177,5.1447,5.0596,4.8508,0.0,0.0,0.0,0.0,0.0,0.0,0.0,0.0,0.0,0.0,0.0,0.0,0.0,0.0,0.0,0.0,0.0,0.0,0.0,0.0,0.0,0.0,0.0,0.0,0.0,0.0,0.0,0.0,0.0,0.0,0.0,0.0,0.0,0.0,0.0,0.0,0.0,0.0,0.0,0.0,0.0,0.0,0.0,0.0,0.0,0.0,0.0,0.0,0.0,0.0,0.0,0.0,0.0,0.0,0.0,0.0,0.0,0.0,0.0,0.0,0.0,0.0,0.0,0.0,0.0,0.0,0.0,0.0,0.0,0.0,0.0,0.0,0.0,0.0,0.0,0.0,0.0,0.0,0.0,0.0,0.0,0.0,0.0,0.0,0.0,0.0,0.0,0.0,0.0,0.0,0.0,0.0,0.0,0.0,0.0,0.0,0.0,0.0,0.0,0.0,0.0,0.0,0.0,0.0,0.0,0.0,0.0,0.0,0.0,0.0,0.0,0.0,5.1912,5.1099,4.8798,0.0,0.0,0.0,0.0,0.0,0.0,0.0,0.0,0.0,0.0,0.0,0.0,0.0,0.0,0.0,0.0,0.0,0.0,0.0,0.0,0.0,0.0,0.0,0.0,0.0,0.0,0.0,0.0,0.0,0.0,0.0,0.0,0.0,0.0,0.0,0.0,0.0,0.0,0.0,0.0,0.0,0.0,0.0,0.0,0.0,0.0,0.0,0.0,0.0,0.0,0.0,0.0,0.0,0.0,0.0,0.0,0.0,0.0,0.0,0.0,0.0,0.0,0.0,0.0,0.0,0.0,0.0,0.0,0.0,0.0,0.0,0.0,0.0,0.0,0.0,0.0,0.0,0.0,0.0,0.0,0.0,0.0,0.0,0.0,0.0,0.0,0.0,0.0,0.0,0.0,0.0,0.0,0.0,0.0,0.0,0.0,0.0,0.0,0.0,0.0,0.0,0.0,0.0,0.0,0.0,0.0,0.0,0.0,0.0,0.0,5.1595,5.2182,5.2182,0.0,4.9629,0.0,0.0,0.0,0.0,0.0,0.0,0.0,0.0,0.0,0.0,0.0,0.0,0.0,0.0,0.0,0.0,0.0,0.0,0.0,0.0,0.0,0.0,0.0,0.0,0.0,0.0,0.0,0.0,0.0,0.0,0.0,0.0,0.0,0.0,0.0,0.0,0.0,0.0,0.0,0.0,0.0,0.0,0.0,0.0,0.0,0.0,0.0,0.0,0.0,0.0,0.0,0.0,0.0,0.0,0.0,0.0,0.0,0.0,0.0,0.0,0.0,0.0,0.0,0.0,0.0,0.0,0.0,0.0,0.0,0.0,0.0,0.0,0.0,0.0,0.0,0.0,0.0,0.0,0.0,0.0,0.0,0.0,0.0,0.0,0.0,0.0,0.0,0.0,0.0,0.0,0.0,0.0,0.0,0.0,0.0,0.0,0.0,0.0,0.0,0.0,0.0,0.0,0.0,0.0,0.0,0.0,0.0,0.0,0.0,0.0,0.0,5.2221,5.1254,5.0152,0.0,0.0,0.0,0.0,0.0,0.0,0.0,0.0,0.0,0.0,0.0,0.0,0.0,0.0,0.0,0.0,0.0,0.0,0.0,0.0,0.0,0.0,0.0,0.0,0.0,0.0,0.0,0.0,0.0,0.0,0.0,0.0,0.0,0.0,0.0,0.0,0.0,0.0,0.0,0.0,0.0,0.0,0.0,0.0,0.0,0.0,0.0,0.0,0.0,0.0,0.0,0.0,0.0,0.0,0.0,0.0,0.0,0.0,0.0,0.0,0.0,0.0,0.0,0.0,0.0,0.0,0.0,0.0,0.0,0.0,0.0,0.0,0.0,0.0,0.0,0.0,0.0,0.0,0.0,0.0,0.0,0.0,0.0,0.0,0.0,0.0,0.0,0.0,0.0,0.0,0.0,0.0,0.0,0.0,0.0,0.0,0.0,0.0,0.0,0.0,0.0,0.0,0.0,0.0,0.0,0.0,0.0,0.0,0.0,0.0,5.1676,0.0,5.2434,5.0925,4.9649,4.8778,0.0,0.0,0.0,0.0,0.0,0.0,0.0,0.0,0.0,0.0,0.0,0.0,0.0,0.0,0.0,0.0,0.0,0.0,0.0,0.0,0.0,0.0,0.0,0.0,0.0,0.0,0.0,0.0,0.0,0.0,0.0,0.0,0.0,0.0,0.0,0.0,0.0,0.0,0.0,0.0,0.0,0.0,0.0,0.0,0.0,0.0,0.0,0.0,0.0,0.0,0.0,0.0,0.0,0.0,0.0,0.0,0.0,0.0,0.0,0.0,0.0,0.0,0.0,0.0,0.0,0.0,0.0,0.0,0.0,0.0,0.0,0.0,0.0,0.0,0.0,0.0,0.0,0.0,0.0,0.0,0.0,0.0,0.0,0.0,0.0,0.0,0.0,0.0,0.0,0.0,0.0,0.0,0.0,0.0,0.0,0.0,0.0,0.0,0.0,0.0,0.0,0.0,0.0,0.0,0.0,0.0,0.0,0.0,0.0,5.2815,5.2746,5.3304,5.1757,5.048,0.0,0.0,0.0,0.0,0.0,0.0,0.0,0.0,0.0,0.0,0.0,0.0,0.0,0.0,0.0,0.0,0.0,0.0,0.0,0.0,0.0,0.0,0.0,0.0,0.0,0.0,0.0,0.0,0.0,0.0,0.0,0.0,0.0,0.0,0.0,0.0,0.0,0.0,0.0,0.0,0.0,0.0,0.0,0.0,0.0,0.0,0.0,0.0,0.0,0.0,0.0,0.0,0.0,0.0,0.0,0.0,0.0,0.0,0.0,0.0,0.0,0.0,0.0,0.0,0.0,0.0,0.0,0.0,0.0,0.0,0.0,0.0,0.0,0.0,0.0,0.0,0.0,0.0,0.0,0.0,0.0,0.0,0.0,0.0,0.0,0.0,0.0,0.0,0.0,0.0,0.0,0.0,0.0,0.0,0.0,0.0,0.0,0.0,0.0,0.0,0.0,0.0,0.0,0.0,0.0,0.0,0.0,0.0,0.0,5.2083,5.2246,5.2163,5.1815,5.0732,4.9475,0.0,0.0,0.0,0.0,0.0,0.0,0.0,0.0,0.0,0.0,0.0,0.0,0.0,0.0,0.0,0.0,0.0,0.0,0.0,0.0,0.0,0.0,0.0,0.0,0.0,0.0,0.0,0.0,0.0,0.0,0.0,0.0,0.0,0.0,0.0,0.0,0.0,0.0,0.0,0.0,0.0,0.0,0.0,0.0,0.0,0.0,0.0,0.0,0.0,0.0,0.0,0.0,0.0,0.0,0.0,0.0,0.0,0.0,0.0,0.0,0.0,0.0,0.0,0.0,0.0,0.0,0.0,0.0,0.0,0.0,0.0,0.0,0.0,0.0,0.0,0.0,0.0,0.0,0.0,0.0,0.0,0.0,0.0,0.0,0.0,0.0,0.0,0.0,0.0,0.0,0.0,0.0,0.0,0.0,0.0,0.0,0.0,0.0,0.0,0.0,0.0,0.0,0.0,0.0,0.0,0.0,0.0,0.0,0.0,5.1967,0.0,5.2202,0.0,5.0268,4.8759,0.0,0.0,0.0,0.0,0.0,0.0,0.0,0.0,0.0,0.0,0.0,0.0,0.0,0.0,0.0,0.0,0.0,0.0,0.0,0.0,0.0,0.0,0.0,0.0,0.0,0.0,0.0,0.0,0.0,0.0,0.0,0.0,0.0,0.0,0.0,0.0,0.0,0.0,0.0,0.0,0.0,0.0,0.0,0.0,0.0,0.0,0.0,0.0,0.0,0.0,0.0,0.0,0.0,0.0,0.0,0.0,0.0,0.0,0.0,0.0,0.0,0.0,0.0,0.0,0.0,0.0,0.0,0.0,0.0,0.0,0.0,0.0,0.0,0.0,0.0,0.0,0.0,0.0,0.0,0.0,0.0,0.0,0.0,0.0,0.0,0.0,0.0,0.0,0.0,0.0,0.0,0.0,0.0,0.0,0.0,0.0,0.0,0.0,0.0,0.0,0.0,0.0,0.0,0.0,0.0,0.0,0.0,0.0,5.1989,5.342,5.3401,5.2937,5.2182,5.0538,4.8469,0.0,0.0,0.0,0.0,0.0,0.0,0.0,0.0,0.0,0.0,0.0,0.0,0.0,0.0,0.0,0.0,0.0,0.0,0.0,0.0,0.0,0.0,0.0,0.0,0.0,0.0,0.0,0.0,0.0,0.0,0.0,0.0,0.0,0.0,0.0,0.0,0.0,0.0,0.0,0.0,0.0,0.0,0.0,0.0,0.0,0.0,0.0,0.0,0.0,0.0,0.0,0.0,0.0,0.0,0.0,0.0,0.0,0.0,0.0,0.0,0.0,0.0,0.0,0.0,0.0,0.0,0.0,0.0,0.0,0.0,0.0,0.0,0.0,0.0,0.0,0.0,0.0,0.0,0.0,0.0,0.0,0.0,0.0,0.0,0.0,0.0,0.0,0.0,0.0,0.0,0.0,0.0,0.0,0.0,0.0,0.0,0.0,0.0,0.0,0.0,0.0,0.0,0.0,0.0,0.0,0.0,0.0,0.0,0.0,5.0925,5.1428,5.1873,5.2105,4.9997,4.843,0.0,0.0,0.0,0.0,0.0,0.0,0.0,0.0,0.0,0.0,0.0,0.0,0.0,0.0,0.0,0.0,0.0,0.0,0.0,0.0,0.0,0.0,0.0,0.0,0.0,0.0,0.0,0.0,0.0,0.0,0.0,0.0,0.0,0.0,0.0,0.0,0.0,0.0,0.0,0.0,0.0,0.0,0.0,0.0,0.0,0.0,0.0,0.0,0.0,0.0,0.0,0.0,0.0,0.0,0.0,0.0,0.0,0.0,0.0,0.0,0.0,0.0,0.0,0.0,0.0,0.0,0.0,0.0,0.0,0.0,0.0,0.0,0.0,0.0,0.0,0.0,0.0,0.0,0.0,0.0,0.0,0.0,0.0,0.0,0.0,0.0,0.0,0.0,0.0,0.0,0.0,0.0,0.0,0.0,0.0,0.0,0.0,0.0,0.0,0.0,0.0,0.0,0.0,0.0,0.0,0.0,0.0,0.0,0.0,5.0273,5.1324,5.1989,5.2182,5.0035,4.843,4.7444,0.0,0.0,0.0,0.0,0.0,0.0,0.0,0.0,0.0,0.0,0.0,0.0,0.0,0.0,0.0,0.0,0.0,0.0,0.0,0.0,0.0,0.0,0.0,0.0,0.0,0.0,0.0,0.0,0.0,0.0,0.0,0.0,0.0,0.0,0.0,0.0,0.0,0.0,0.0,0.0,0.0,0.0,0.0,0.0,0.0,0.0,0.0,0.0,0.0,0.0,0.0,0.0,0.0,0.0,0.0,0.0,0.0,0.0,0.0,0.0,0.0,0.0,0.0,0.0,0.0,0.0,0.0,0.0,0.0,0.0,0.0,0.0,0.0,0.0,0.0,0.0,0.0,0.0,0.0,0.0,0.0,0.0,0.0,0.0,0.0,0.0,0.0,0.0,0.0,0.0,0.0,0.0,0.0,0.0,0.0,0.0,0.0,0.0,0.0,0.0,0.0,0.0,0.0,0.0,0.0,0.0,0.0,0.0,5.115,5.2797,5.3227,5.2298,5.0596,4.8527,0.0,0.0,0.0,0.0,0.0,0.0,0.0,0.0,0.0,0.0,0.0,0.0,0.0,0.0,0.0,0.0,0.0,0.0,0.0,0.0,0.0,0.0,0.0,0.0,0.0,0.0,0.0,0.0,0.0,0.0,0.0,0.0,0.0,0.0,0.0,0.0,0.0,0.0,0.0,0.0,0.0,0.0,0.0,0.0,0.0,0.0,0.0,0.0,0.0,0.0,0.0,0.0,0.0,0.0,0.0,0.0,0.0,0.0,0.0,0.0,0.0,0.0,0.0,0.0,0.0,0.0,0.0,0.0,0.0,0.0,0.0,0.0,0.0,0.0,0.0,0.0,0.0,0.0,0.0,0.0,0.0,0.0,0.0,0.0,0.0,0.0,0.0,0.0,0.0,0.0,0.0,0.0,0.0,0.0,0.0,0.0,0.0,0.0,0.0,0.0,0.0,0.0,0.0,0.0,0.0,0.0,0.0,0.0,0.0,5.2003,5.3649,5.41,5.313,5.0925,4.9378,0.0,0.0,0.0,0.0,0.0,0.0,0.0,0.0,0.0,0.0,0.0,0.0,0.0,0.0,0.0,0.0,0.0,0.0,0.0,0.0,0.0,0.0,0.0,0.0,0.0,0.0,0.0,0.0,0.0,0.0,0.0,0.0,0.0,0.0,0.0,0.0,0.0,0.0,0.0,0.0,0.0,0.0,0.0,0.0,0.0,0.0,0.0,0.0,0.0,0.0,0.0,0.0,0.0,0.0,0.0,0.0,0.0,0.0,0.0,0.0,0.0,0.0,0.0,0.0,0.0,0.0,0.0,0.0,0.0,0.0,0.0,0.0,0.0,0.0,0.0,0.0,0.0,0.0,0.0,0.0,0.0,0.0,0.0,0.0,0.0,0.0,0.0,0.0,0.0,0.0,0.0,0.0,0.0,0.0,0.0,0.0,0.0,0.0,0.0,0.0,0.0,0.0,0.0,0.0,0.0,0.0,0.0,0.0,5.1256,5.2817,5.3807,5.4233,5.4039,5.2279,5.079,0.0,0.0,0.0,0.0,0.0,0.0,0.0,0.0,0.0,0.0,0.0,0.0,0.0,0.0,0.0,0.0,0.0,0.0,0.0,0.0,0.0,0.0,0.0,0.0,0.0,0.0,0.0,0.0,0.0,0.0,0.0,0.0,0.0,0.0,0.0,0.0,0.0,0.0,0.0,0.0,0.0,0.0,0.0,0.0,0.0,0.0,0.0,0.0,0.0,0.0,0.0,0.0,0.0,0.0,0.0,0.0,0.0,0.0,0.0,0.0,0.0,0.0,0.0,0.0,0.0,0.0,0.0,0.0,0.0,0.0,0.0,0.0,0.0,0.0,0.0,0.0,0.0,0.0,0.0,0.0,0.0,0.0,0.0,0.0,0.0,0.0,0.0,0.0,0.0,0.0,0.0,0.0,0.0,0.0,0.0,0.0,0.0,0.0,0.0,0.0,0.0,0.0,0.0,0.0,0.0,0.0,0.0,0.0,5.1235,5.3539,5.3614,5.4039,5.4849,5.3923,5.2218,0.0,0.0,0.0,0.0,0.0,0.0,0.0,0.0,0.0,0.0,0.0,0.0,0.0,0.0,0.0,0.0,0.0,0.0,0.0,0.0,0.0,0.0,0.0,0.0,0.0,0.0,0.0,0.0,0.0,0.0,0.0,0.0,0.0,0.0,0.0,0.0,0.0,0.0,0.0,0.0,0.0,0.0,0.0,0.0,0.0,0.0,0.0,0.0,0.0,0.0,0.0,0.0,0.0,0.0,0.0,0.0,0.0,0.0,0.0,0.0,0.0,0.0,0.0,0.0,0.0,0.0,0.0,0.0,0.0,0.0,0.0,0.0,0.0,0.0,0.0,0.0,0.0,0.0,0.0,0.0,0.0,0.0,0.0,0.0,0.0,0.0,0.0,0.0,0.0,0.0,0.0,0.0,0.0,0.0,0.0,0.0,0.0,0.0,0.0,0.0,0.0,0.0,0.0,0.0,0.0,0.0,0.0,0.0,5.2995,5.3594,5.4213,5.4909,5.5702,5.3614,5.1602,0.0,0.0,0.0,0.0,0.0,0.0,0.0,0.0,0.0,0.0,0.0,0.0,0.0,0.0,0.0,0.0,0.0,0.0,0.0,0.0,0.0,0.0,0.0,0.0,0.0,0.0,0.0,0.0,0.0,0.0,0.0,0.0,0.0,0.0,0.0,0.0,0.0,0.0,0.0,0.0,0.0,0.0,0.0,0.0,0.0,0.0,0.0,0.0,4.6698,0.0,0.0,0.0,0.0,0.0,0.0,0.0,0.0,0.0,0.0,0.0,0.0,0.0,0.0,0.0,0.0,0.0,0.0,0.0,0.0,0.0,0.0,0.0,0.0,0.0,0.0,0.0,0.0,0.0,0.0,0.0,0.0,0.0,0.0,0.0,0.0,0.0,0.0,0.0,0.0,0.0,0.0,0.0,0.0,0.0,0.0,0.0,0.0,0.0,0.0,0.0,0.0,0.0,0.0,0.0,0.0,0.0,0.0,0.0,5.2124,5.2917,5.3362,5.4175,5.5294,5.3323,5.1583,0.0,0.0,0.0,0.0,0.0,0.0,0.0,0.0,0.0,0.0,0.0,0.0,0.0,0.0,0.0,0.0,0.0,0.0,0.0,0.0,0.0,0.0,0.0,0.0,0.0,0.0,0.0,0.0,0.0,0.0,0.0,0.0,0.0,0.0,0.0,0.0,0.0,0.0,0.0,0.0,0.0,0.0,0.0,0.0,0.0,0.0,0.0,0.0,0.0,0.0,0.0,0.0,0.0,0.0,0.0,0.0,0.0,0.0,0.0,0.0,0.0,0.0,0.0,0.0,0.0,0.0,0.0,0.0,0.0,0.0,0.0,0.0,0.0,0.0,0.0,0.0,0.0,0.0,0.0,0.0,0.0,0.0,0.0,0.0,0.0,0.0,0.0,0.0,0.0,0.0,0.0,0.0,0.0,0.0,0.0,0.0,0.0,0.0,0.0,0.0,0.0,0.0,0.0,0.0,0.0,0.0,0.0,4.9475,5.0654,5.2105,5.2182,5.2972,5.4501,5.2914,5.1579,5.0739,0.0,0.0,0.0,0.0,0.0,0.0,0.0,0.0,0.0,0.0,0.0,0.0,0.0,0.0,0.0,0.0,0.0,0.0,0.0,0.0,0.0,0.0,0.0,0.0,0.0,0.0,0.0,0.0,0.0,0.0,0.0,0.0,0.0,0.0,0.0,0.0,0.0,0.0,4.481,4.5965,0.0,0.0,0.0,0.0,0.0,0.0,0.0,0.0,4.3878,0.0,0.0,0.0,0.0,0.0,0.0,0.0,0.0,0.0,0.0,0.0,0.0,0.0,0.0,0.0,0.0,0.0,0.0,0.0,0.0,0.0,0.0,0.0,0.0,0.0,0.0,0.0,0.0,0.0,0.0,0.0,0.0,0.0,0.0,0.0,0.0,0.0,0.0,0.0,0.0,0.0,0.0,0.0,0.0,0.0,0.0,0.0,0.0,0.0,0.0,0.0,0.0,0.0,0.0,0.0,0.0,4.9567,5.0442,5.1312,5.2163,5.2182,5.2666,5.3614,5.2028,5.0732,4.9911,0.0,0.0,0.0,0.0,0.0,0.0,0.0,0.0,0.0,0.0,0.0,0.0,0.0,0.0,0.0,0.0,0.0,0.0,0.0,0.0,0.0,0.0,0.0,0.0,0.0,0.0,0.0,0.0,0.0,0.0,0.0,0.0,0.0,0.0,0.0,0.0,0.0,0.0,0.0,4.8328,4.8347,0.0,0.0,0.0,0.0,0.0,0.0,0.0,0.0,4.2612,0.0,0.0,0.0,0.0,0.0,0.0,0.0,0.0,0.0,0.0,0.0,0.0,0.0,0.0,0.0,0.0,0.0,0.0,0.0,0.0,0.0,0.0,0.0,0.0,0.0,0.0,0.0,0.0,0.0,0.0,0.0,0.0,0.0,0.0,0.0,0.0,0.0,0.0,0.0,0.0,0.0,0.0,0.0,0.0,0.0,0.0,0.0,0.0,0.0,0.0,0.0,0.0,0.0,0.0,0.0,4.9202,5.0433,5.1273,5.1602,5.1563,5.1931,5.2759,5.1157,5.0074,0.0,0.0,0.0,0.0,0.0,0.0,0.0,0.0,0.0,0.0,0.0,0.0,0.0,0.0,0.0,0.0,0.0,0.0,0.0,0.0,0.0,0.0,0.0,0.0,0.0,0.0,0.0,0.0,0.0,0.0,0.0,0.0,0.0,0.0,0.0,0.0,0.0,0.0,0.0,0.0,4.8532,4.8273,4.8336,0.0,0.0,0.0,0.0,0.0,0.0,4.2976,4.2419,0.0,0.0,0.0,0.0,0.0,0.0,0.0,0.0,0.0,0.0,0.0,0.0,0.0,0.0,0.0,0.0,0.0,0.0,0.0,0.0,0.0,0.0,0.0,0.0,0.0,0.0,0.0,0.0,0.0,0.0,0.0,0.0,0.0,0.0,0.0,0.0,0.0,0.0,0.0,0.0,0.0,0.0,0.0,0.0,0.0,0.0,0.0,0.0,0.0,0.0,0.0,0.0,0.0,0.0,0.0,4.8631,5.0083,5.0928,5.108,5.0983,5.1235,5.1889,5.0635,4.9799,0.0,0.0,0.0,0.0,0.0,0.0,0.0,0.0,0.0,0.0,0.0,0.0,0.0,0.0,0.0,0.0,0.0,0.0,0.0,0.0,0.0,0.0,0.0,0.0,0.0,0.0,0.0,0.0,0.0,0.0,0.0,0.0,0.0,0.0,0.0,0.0,0.0,0.0,0.0,0.0,0.0,4.8514,4.8651,4.6995,0.0,0.0,0.0,0.0,4.3485,4.3384,0.0,0.0,0.0,0.0,0.0,0.0,0.0,0.0,0.0,0.0,0.0,0.0,0.0,0.0,0.0,0.0,0.0,0.0,0.0,0.0,0.0,0.0,0.0,0.0,0.0,0.0,0.0,0.0,0.0,0.0,0.0,0.0,0.0,0.0,0.0,0.0,0.0,0.0,0.0,0.0,0.0,0.0,0.0,0.0,0.0,0.0,0.0,0.0,0.0,0.0,0.0,0.0,0.0,0.0,0.0,0.0,4.8607,4.9543,5.037,5.1057,5.0964,5.0945,5.1061,5.0848,5.0051,0.0,0.0,0.0,0.0,0.0,0.0,0.0,0.0,0.0,0.0,0.0,0.0,0.0,0.0,0.0,0.0,0.0,0.0,0.0,0.0,0.0,0.0,0.0,0.0,0.0,0.0,0.0,0.0,0.0,0.0,0.0,0.0,0.0,0.0,0.0,0.0,0.0,0.0,0.0,0.0,0.0,5.0229,4.8129,4.759,4.6884,0.0,0.0,4.4376,4.5844,4.5374,0.0,0.0,0.0,0.0,0.0,0.0,0.0,0.0,0.0,0.0,0.0,0.0,0.0,0.0,0.0,0.0,0.0,0.0,0.0,0.0,0.0,0.0,0.0,0.0,0.0,0.0,0.0,0.0,0.0,0.0,0.0,0.0,0.0,0.0,0.0,0.0,0.0,0.0,0.0,0.0,0.0,0.0,0.0,0.0,0.0,0.0,0.0,0.0,0.0,0.0,0.0,0.0,0.0,0.0,0.0,4.7637,4.8083,4.9781,5.0848,5.1134,5.108,5.0983,5.0906,5.0461,4.9412,0.0,0.0,0.0,0.0,0.0,0.0,0.0,0.0,0.0,0.0,0.0,0.0,0.0,0.0,0.0,0.0,0.0,0.0,0.0,0.0,0.0,0.0,0.0,0.0,0.0,0.0,0.0,0.0,0.0,0.0,0.0,0.0,0.0,0.0,0.0,0.0,0.0,0.0,0.0,0.0,0.0,0.0,4.7831,4.7311,0.0,0.0,0.0,4.5138,4.6327,0.0,0.0,0.0,0.0,0.0,0.0,0.0,0.0,0.0,0.0,0.0,0.0,0.0,0.0,0.0,0.0,0.0,0.0,0.0,0.0,0.0,0.0,0.0,0.0,0.0,0.0,0.0,0.0,0.0,0.0,0.0,0.0,0.0,0.0,0.0,0.0,0.0,0.0,0.0,0.0,0.0,0.0,0.0,0.0,0.0,0.0,0.0,0.0,0.0,0.0,0.0,0.0,0.0,0.0,0.0,0.0,0.0,4.7656,5.0039,5.1269,5.1192,5.1111,5.1041,5.0887,5.0113,0.0,0.0,0.0,0.0,0.0,0.0,0.0,0.0,0.0,0.0,0.0,0.0,0.0,0.0,0.0,0.0,0.0,0.0,0.0,0.0,0.0,0.0,0.0,0.0,0.0,0.0,0.0,3.7536,0.0,0.0,0.0,0.0,0.0,0.0,0.0,0.0,0.0,0.0,0.0,0.0,0.0,0.0,4.7913,4.7701,4.7367,4.733,0.0,0.0,4.6178,4.6977,4.7098,4.6403,0.0,0.0,0.0,0.0,0.0,0.0,0.0,0.0,0.0,0.0,0.0,0.0,0.0,0.0,0.0,0.0,0.0,0.0,0.0,0.0,0.0,0.0,0.0,0.0,0.0,0.0,0.0,0.0,0.0,0.0,0.0,0.0,0.0,0.0,0.0,0.0,0.0,0.0,0.0,0.0,0.0,0.0,0.0,0.0,0.0,0.0,0.0,0.0,0.0,0.0,0.0,0.0,0.0,0.0,0.0,4.7676,5.0039,5.1255,5.1206,5.1127,5.1041,5.0906,5.0132,4.8875,0.0,0.0,0.0,0.0,0.0,0.0,0.0,0.0,0.0,0.0,0.0,0.0,0.0,0.0,0.0,0.0,0.0,0.0,0.0,0.0,0.0,0.0,0.0,0.0,0.0,0.0,0.0,0.0,0.0,0.0,0.0,0.0,0.0,0.0,0.0,0.0,0.0,0.0,0.0,0.0,0.0,4.8539,4.7828,4.8296,4.8742,0.0,0.0,4.7831,4.8612,4.8742,4.7638,4.452,0.0,0.0,0.0,0.0,0.0,0.0,0.0,0.0,0.0,0.0,0.0,0.0,0.0,0.0,0.0,0.0,0.0,0.0,0.0,0.0,0.0,0.0,0.0,0.0,0.0,0.0,0.0,0.0,0.0,0.0,0.0,0.0,0.0,0.0,0.0,0.0,0.0,0.0,0.0,0.0,0.0,0.0,0.0,0.0,0.0,0.0,0.0,0.0,0.0,0.0,0.0,0.0,0.0,4.6241,4.6816,4.9316,5.0806,5.1183,5.1179,5.1099,5.0906,5.0132,4.8638,0.0,0.0,0.0,0.0,0.0,0.0,0.0,0.0,0.0,0.0,0.0,0.0,0.0,0.0,0.0,0.0,0.0,0.0,0.0,0.0,0.0,0.0,0.0,0.0,0.0,0.0,0.0,0.0,4.0162,3.9996,3.9881,0.0,0.0,0.0,0.0,0.0,0.0,0.0,0.0,0.0,0.0,4.7482,4.7664,4.7961,0.0,0.0,4.8221,4.798,4.8779,4.8484,4.7564,4.5819,4.5103,0.0,0.0,0.0,0.0,0.0,0.0,0.0,0.0,0.0,0.0,0.0,0.0,0.0,0.0,0.0,0.0,0.0,0.0,0.0,0.0,0.0,0.0,0.0,0.0,0.0,0.0,0.0,0.0,0.0,0.0,0.0,0.0,0.0,0.0,0.0,0.0,0.0,0.0,0.0,0.0,0.0,0.0,0.0,0.0,0.0,0.0,0.0,0.0,0.0,0.0,0.0,0.0,4.543,4.6308,4.8867,5.0532,5.1183,5.1218,5.0983,5.0558,4.9745,4.8213,0.0,0.0,0.0,0.0,0.0,0.0,0.0,0.0,0.0,0.0,0.0,0.0,0.0,0.0,0.0,0.0,0.0,0.0,0.0,0.0,0.0,0.0,0.0,0.0,0.0,0.0,0.0,0.0,4.0821,4.0248,4.0195,0.0,0.0,0.0,0.0,0.0,0.0,0.0,0.0,0.0,0.0,4.7122,4.7927,4.785,4.798,4.8797,4.8017,4.7627,4.8426,4.8078,4.7361,4.6311,0.0,0.0,0.0,0.0,0.0,0.0,0.0,0.0,0.0,0.0,0.0,0.0,0.0,0.0,0.0,0.0,0.0,0.0,0.0,0.0,0.0,0.0,0.0,0.0,0.0,0.0,0.0,0.0,0.0,0.0,4.473,0.0,0.0,0.0,0.0,0.0,0.0,0.0,0.0,0.0,0.0,0.0,0.0,0.0,0.0,0.0,0.0,0.0,0.0,0.0,0.0,0.0,0.0,4.541,4.6308,4.8867,5.0513,5.1164,5.1218,5.0732,4.9784,4.8894,4.7599,4.58,0.0,0.0,0.0,0.0,0.0,0.0,0.0,0.0,0.0,0.0,0.0,0.0,0.0,0.0,0.0,0.0,0.0,0.0,0.0,0.0,0.0,0.0,0.0,0.0,0.0,0.0,4.1206,4.0347,3.9962,0.0,0.0,0.0,0.0,0.0,0.0,0.0,0.0,0.0,0.0,4.6638,4.7951,4.8742,4.8203,4.8017,4.8816,4.7608,4.6865,4.772,4.7745,4.7173,0.0,0.0,0.0,0.0,0.0,0.0,0.0,0.0,0.0,0.0,0.0,0.0,0.0,0.0,0.0,0.0,0.0,0.0,0.0,0.0,0.0,0.0,0.0,0.0,0.0,0.0,0.0,4.5916,4.5304,0.0,0.0,0.0,0.0,0.0,0.0,0.0,0.0,0.0,0.0,0.0,4.3324,4.3904,0.0,0.0,0.0,0.0,0.0,0.0,0.0,0.0,0.0,0.0,0.0,0.0,4.4863,4.6328,4.832,4.9946,5.1164,5.1218,5.0712,4.9726,4.8836,4.7057,4.4214,0.0,0.0,0.0,0.0,0.0,0.0,0.0,0.0,0.0,0.0,0.0,0.0,0.0,0.0,0.0,0.0,0.0,0.0,0.0,0.0,0.0,0.0,0.0,0.0,0.0,4.1135,0.0,0.0,0.0,0.0,0.0,0.0,0.0,0.0,0.0,0.0,0.0,4.3893,4.5149,4.6403,4.7583,4.8725,4.8667,4.8779,0.0,0.0,0.0,0.0,0.0,0.0,0.0,0.0,0.0,0.0,0.0,0.0,0.0,0.0,4.57,4.2868,4.1757,4.1083,4.056,0.0,0.0,0.0,0.0,0.0,0.0,0.0,0.0,0.0,0.0,0.0,0.0,0.0,0.0,4.6234,0.0,4.5781,0.0,0.0,0.0,0.0,0.0,0.0,0.0,0.0,4.4794,4.491,4.4639,4.52,4.5181,0.0,4.4092,4.3518,0.0,0.0,0.0,0.0,0.0,0.0,0.0,0.0,4.5019,4.6719,4.8476,4.9946,5.1145,5.1218,5.0577,4.9281,4.8101,4.6303,4.3846,4.2673,4.1479,0.0,0.0,0.0,0.0,0.0,0.0,0.0,0.0,0.0,0.0,0.0,0.0,0.0,0.0,0.0,0.0,0.0,0.0,0.0,0.0,0.0,0.0,0.0,4.0718,0.0,0.0,0.0,0.0,0.0,0.0,0.0,0.0,0.0,4.1171,4.3133,4.4859,4.5637,4.6888,4.806,4.8816,0.0,0.0,0.0,0.0,0.0,0.0,0.0,4.7973,4.8766,4.8036,4.7233,4.694,4.7297,4.7519,4.7243,0.0,0.0,4.4675,4.3634,4.301,4.2808,4.2759,4.2767,4.264,4.3009,4.304,0.0,0.0,0.0,0.0,0.0,0.0,0.0,0.0,4.6308,4.6222,0.0,4.525,0.0,0.0,0.0,0.0,0.0,4.5324,0.0,0.0,4.7444,4.7889,4.7076,4.6999,4.7018,4.6941,4.5394,4.4659,4.4595,4.3092,0.0,0.0,0.0,0.0,0.0,0.0,4.584,4.7558,4.9238,5.049,5.1183,5.1218,5.0306,4.8469,4.6728,4.5452,4.4697,4.4496,4.3728,4.2072,3.9921,0.0,0.0,0.0,0.0,0.0,0.0,0.0,0.0,0.0,0.0,0.0,0.0,0.0,0.0,0.0,0.0,0.0,0.0,0.0,0.0,4.1558,0.0,0.0,0.0,0.0,0.0,0.0,0.0,0.0,0.0,0.0,4.2145,4.4539,4.6421,4.6486,0.0,0.0,0.0,0.0,4.8036,4.8853,4.7646,4.7218,4.8797,4.832,4.8036,4.8827,0.0,0.0,4.7879,4.8107,4.8107,4.7353,4.762,4.7951,4.7806,4.6096,4.5114,4.5753,4.4874,4.4298,4.4871,4.4859,4.4665,4.6356,0.0,0.0,0.0,0.0,4.4335,4.5245,4.7108,4.65,4.6141,4.6026,4.577,0.0,0.0,0.0,0.0,0.0,0.0,4.5597,4.6689,4.6612,4.6748,4.7057,4.6457,4.6225,4.6297,4.5877,4.5382,4.4841,4.4414,4.3433,4.1969,0.0,0.0,0.0,0.0,4.5234,4.75,4.8612,4.978,5.1164,5.116,5.0268,4.845,4.6709,4.5684,4.5452,4.4896,4.397,4.2668,4.0801,0.0,0.0,0.0,0.0,0.0,0.0,0.0,0.0,0.0,0.0,0.0,0.0,0.0,0.0,0.0,0.0,0.0,0.0,0.0,3.9721,4.0384,4.0184,0.0,0.0,0.0,0.0,0.0,0.0,0.0,0.0,0.0,4.4153,4.5481,4.651,0.0,0.0,4.8354,4.8091,4.8351,4.8834,4.9633,4.9373,0.0,5.0506,4.9492,4.8827,4.9633,4.9262,4.8952,4.9101,4.8559,4.798,4.7502,4.7331,4.7114,4.6557,4.6661,4.6672,4.6686,4.6373,4.5917,4.5411,4.5282,4.4988,4.7263,4.5924,4.4915,4.4681,4.4948,4.4427,4.5487,4.7474,4.6608,4.6542,4.7016,4.6325,4.5408,4.4336,4.3634,0.0,0.0,0.0,4.5312,4.6573,4.6399,4.6612,4.7038,4.6554,4.6361,4.6413,4.5833,4.5493,4.5366,4.4754,4.4081,4.3362,0.0,0.0,4.3437,4.4297,4.5692,4.7548,4.8664,4.9702,5.0642,5.024,4.9513,4.843,4.7038,4.6322,4.6322,4.6187,4.5621,4.4604,4.2678,4.0787,0.0,0.0,0.0,0.0,0.0,0.0,0.0,0.0,0.0,0.0,0.0,3.5832,3.5516,0.0,0.0,0.0,3.8507,3.8952,3.909,3.9891,0.0,0.0,0.0,0.0,0.0,0.0,0.0,4.3645,4.3682,4.4025,4.5194,4.5879,4.6521,4.7269,4.8109,4.8497,4.8221,0.0,4.9076,4.9559,4.9633,4.9912,5.0729,4.9769,4.9067,4.9527,4.914,4.8827,4.909,4.8174,4.7293,4.703,4.6514,4.5891,4.5427,4.5907,4.6298,4.6096,4.598,4.5683,4.505,4.4706,4.428,4.8271,4.7409,4.4949,4.4387,4.509,4.5109,4.6005,4.7402,4.6651,4.712,4.8348,4.6805,4.6065,4.5896,4.4253,0.0,4.4813,4.481,4.5274,4.6032,4.6767,4.7096,4.7096,4.7018,4.6999,4.696,4.5504,4.5254,4.5994,4.4558,4.4253,4.5058,4.4316,4.4277,4.5,4.5781,4.6684,4.77,4.9126,4.99,4.9946,4.9015,4.8508,4.8488,4.7657,4.7212,4.7212,4.7985,4.8005,4.7081,4.5055,4.317,4.1434,0.0,0.0,0.0,0.0,0.0,0.0,0.0,0.0,0.0,0.0,0.0,0.0,0.0,0.0,0.0,3.9369,0.0,3.9157,3.9881,0.0,0.0,0.0,4.0755,4.0444,4.1743,4.2814,4.3165,0.0,0.0,4.5596,4.5874,4.6511,4.79,4.8747,4.9154,4.885,4.8834,4.889,4.8816,4.8797,4.9039,4.954,4.906,4.8616,4.8781,4.8494,4.8224,4.8174,4.732,4.6422,4.6296,4.5394,4.4714,4.466,4.4642,4.4517,4.4446,4.4423,4.4367,4.4387,4.3825,4.3233,4.7764,4.749,4.6222,4.5792,4.5987,4.5987,4.6202,4.6522,4.6315,4.6416,4.6695,4.6274,4.6057,4.5956,4.5441,4.5684,4.6496,4.6496,4.696,4.7734,4.7308,4.7096,4.7076,4.6419,4.6109,4.609,4.5891,4.5875,4.6091,4.5811,4.578,4.5976,4.5781,4.5469,4.5039,4.5195,4.6401,4.8565,4.8818,4.9501,5.0616,4.9823,4.9378,4.9397,4.8546,4.8101,4.8082,4.8295,4.7959,4.6976,4.5706,4.4132,4.2224,3.9467,0.0,0.0,0.0,0.0,0.0,0.0,0.0,0.0,0.0,3.7002,3.559,0.0,3.7894,0.0,3.8831,3.9333,3.912,3.989,0.0,0.0,4.0887,4.1605,4.2045,4.2267,4.2806,4.3897,4.4182,4.4891,4.6408,4.6238,4.6454,4.7617,4.7947,4.8057,4.8017,4.8537,4.8667,4.8147,4.8017,4.785,4.7516,4.721,4.7342,4.7877,4.7418,4.7021,4.715,4.6871,4.6454,4.6029,4.5704,4.5302,4.4678,4.4178,4.3554,4.309,4.3743,4.4493,4.452,4.3882,4.3173,4.7022,4.6983,4.6515,4.63,4.63,4.63,4.6273,4.6247,4.6249,4.6226,4.6179,4.6105,4.6052,4.5966,4.5867,4.609,4.6496,4.651,4.6781,4.7192,4.6748,4.6515,4.6496,4.6013,4.58,4.58,4.6007,4.6127,4.6111,4.6242,4.6299,4.6289,4.6289,4.6055,4.5605,4.5957,4.6878,4.8304,4.8875,4.9731,5.0809,5.0132,4.9513,4.9146,4.903,4.8624,4.7869,4.8566,4.8137,4.6333,4.5592,4.4296,4.2309,4.0338,3.8659,0.0,0.0,0.0,0.0,0.0,0.0,0.0,0.0,0.0,0.0,0.0,3.8032,3.8409,3.9202,3.9835,4.0198,4.0643,4.1011,4.1208,4.1855,4.2558,4.317,4.3452,4.3937,4.4781,4.4874,4.5238,4.6161,4.5834,4.588,4.6963,4.7137,4.7324,4.7858,4.8472,4.8742,4.8296,4.7924,4.7423,4.6605,4.639,4.6561,4.7218,4.6903,4.6543,4.6989,4.6662,4.6092,4.5426,4.5017,4.4535,4.375,4.3286,4.2894,4.2983,4.3215,4.3369,4.2999,4.2814,4.248,4.63,4.63,4.63,4.63,4.63,4.63,4.63,4.63,4.63,4.6305,4.6293,4.615,4.6026,4.5929,4.5899,4.5838,4.58,4.58,4.58,4.58,4.58,4.58,4.58,4.58,4.58,4.58,4.6007,4.6127,4.6125,4.6239,4.6367,4.6445,4.6465,4.6523,4.666,4.75,4.7935,4.7915,4.9214,5.0233,5.0887,5.0113,4.9378,4.8778,4.9359,4.901,4.754,4.8894,4.8414,4.5781,4.5413,4.4421,4.2429,4.1221,4.0182,0.0,3.7753,0.0,0.0,0.0,0.0,0.0,0.0,0.0,0.0,3.8079,3.8569,3.9335,4.0122,4.0859,4.154,4.1686,4.182,4.1994,4.2801,4.3523,4.3988,4.4722,4.5302,4.5568,4.5509,4.5451,4.5586,4.5086,4.5093,4.6107,4.66,4.7008,4.7822,4.8492,4.8853,4.8797,4.7961,4.6921,4.6215,4.5992,4.616,4.6773,4.6617,4.6513,4.7168,4.6519,4.5632,4.4928,4.4178,4.3375,4.2555,4.2251,4.2234,4.2685,4.2347,4.1866,4.144,4.1563,4.149,4.63,4.63,4.63,4.63,4.63,4.63,4.63,4.63,4.63,4.6269,4.6226,4.606,4.5988,4.5968,4.588,4.58,4.58,4.58,4.58,4.58,4.58,4.58,4.58,4.58,4.58,4.5819,4.5988,4.6108,4.6125,4.6239,4.666,4.7344,4.7363,4.7715,4.8418,0.0,0.0,0.0,4.9763,5.0225,5.0848,5.0113,4.9939,5.0384,4.9939,0.0,4.9243,4.9533,4.8687,4.6647,4.6929,0.0,0.0,0.0,0.0,0.0,0.0,0.0,0.0,0.0,0.0,0.0,3.8432,3.8432,3.7986,3.9138,4.0282,4.1054,4.1278,4.1431,4.16,4.2174,4.2594,4.265,4.3548,4.4293,4.4616,4.4957,4.5302,4.5549,4.4989,4.4816,4.5413,4.4722,4.4557,4.5631,4.6555,4.7166,4.7413,4.8284,4.8612,4.7999,4.6865,4.5547,4.4599,4.5146,4.5768,4.6064,4.617,4.6239,4.648,4.6439,4.6083,4.5561,4.4446,4.35,4.3233,4.1752,4.0548,4.0559,4.0483,4.0724,4.1759,4.1569,4.1172,4.63,0.0,4.63,4.63,0.0,4.63,4.6287,4.6297,4.6297,4.6229,4.6144,4.6054,4.5988,4.5936,4.5871,4.5829,4.58,4.58,4.58,4.58,4.58,4.58,4.58,4.58,4.58,4.5819,4.6027,4.6108,4.6125,4.6239,4.6738,4.7598,4.7617,4.8027,4.8906,4.9746,5.0317,5.056,5.0539,5.0654,5.0887,5.05,5.0287,5.0306,0.0,0.0,0.0,0.0,0.0,0.0,0.0,0.0,0.0,0.0,0.0,4.2162,4.1028,3.9967,3.9212,3.912,3.912,3.9138,3.9881,4.016,3.9751,4.0494,4.1332,4.2118,4.2191,4.2352,4.2761,4.315,4.3404,4.3423,4.3867,4.4346,4.4726,4.4938,4.514,4.5494,4.522,4.5141,4.5524,4.5028,4.4843,4.5512,4.6187,4.6856,4.7315,4.8356,4.8795,4.7865,4.7107,4.6364,4.5951,4.6009,4.6448,4.6856,4.6868,4.6722,4.6649,4.6668,4.6444,4.5882,4.4821,4.3875,4.2965,4.1573,4.0392,4.0006,3.9895,3.9975,4.0581,4.0763,4.077,4.63,4.63,4.63,4.63,4.63,4.63,4.6295,4.6269,0.0,0.0,0.0,4.6018,4.5953,4.5854,4.5894,4.584,4.58,4.58,4.58,4.58,4.58,4.58,4.58,4.58,4.58,4.58,4.6007,4.6127,4.6125,4.6395,4.6973,4.7754,4.7988,4.8574,4.9551,5.0129,5.0742,5.1398,5.114,5.0964,5.0906,5.077,5.0461,4.9939,5.0422,5.0055,4.8701,4.927,4.8293,4.5442,4.5335,4.4663,4.3197,4.3036,4.3286,4.3912,4.3225,4.2507,4.1847,4.1667,4.1386,4.0828,4.1423,4.1794,4.1813,4.1813,4.214,4.2925,4.3018,4.3286,4.3931,4.4005,4.4005,4.4005,4.4048,4.4242,4.4512,4.4792,4.5017,4.5303,4.5297,4.5449,4.5541,4.5235,4.5182,4.5566,4.6163,4.6704,4.7644,4.8641,4.888,4.7917,4.7534,4.7553,4.7456,4.7355,4.7499,4.7638,4.7629,4.7491,4.7168,4.6908,4.6516,4.5909,4.4981,4.3643,4.2341,4.1217,4.0449,3.9664,3.9504,3.9328,3.8885,3.9566,4.011,4.63,4.63,4.63,4.63,4.63,4.63,4.6262,4.6205,4.6156,4.6091,4.6014,4.596,4.588,4.5794,4.5808,4.5808,4.58,4.58,4.58,4.58,4.58,4.58,4.58,4.58,4.58,4.5819,4.6027,4.6108,4.6203,4.6981,4.7851,4.8691,4.9473,5.0586,5.1992,5.1501,5.1564,5.2353,5.0875,5.0349,5.0867,5.0229,5.0171,5.0674,5.0171,4.9784,4.9533,4.9459,4.8433,4.6328,4.6649,4.6051,4.421,4.3893,4.3875,4.3949,4.3225,4.2761,4.2607,4.1969,4.185,4.2389,4.2556,4.263,4.263,4.263,4.2965,4.3757,4.3813,4.3856,4.4005,4.4005,4.4005,4.4005,4.4192,4.4202,4.3856,4.4566,4.4973,4.4647,4.4489,4.4855,4.5411,4.4968,4.4833,4.5622,4.6701,4.8103,4.8878,4.9159,4.8639,4.7924,4.7701,4.7404,4.7237,4.7296,4.7615,4.7342,4.7765,4.7895,4.7446,4.6668,4.6096,4.5838,4.4214,4.2573,4.1466,4.0075,3.9165,3.838,3.8238,3.806,3.8043,3.8723,3.9153,4.63,4.63,4.63,4.6573,4.7006,4.6967,4.666,4.6221,4.6167,4.6107,4.6056,4.5941,4.5873,4.5867,4.5808,4.58,4.58,4.58,4.58,4.58,4.58,4.58,4.58,4.58,4.5838,4.5896,4.6046,4.6113,4.624,4.712,4.8027,4.8945,5.0195,5.123,5.1894,5.1579,5.1523,5.187,5.102,5.0697,5.1003,5.0596,5.0538,5.0906,5.0519,5.0345,5.0364,5.0084,4.9026,4.7086,4.7055,4.6196,4.4289,4.4036,4.4005,4.3986,4.3658,4.3274,4.2804,4.247,4.2593,4.3373,4.3448,4.3448,4.3466,4.3448,4.3615,4.3968,4.4005,4.4005,4.4005,4.4005,4.4005,4.4005,4.4121,4.4196,4.4247,4.4607,4.4968,4.4994,4.5009,4.5143,4.5547,4.5238,4.5103,4.5682,4.6951,4.8217,4.901,4.9187,4.8982,4.846,4.837,4.8426,4.8389,4.8723,4.8874,4.8601,4.8733,4.8512,4.7715,4.6695,4.6129,4.5757,4.4214,4.2608,4.1377,4.0217,3.922,3.8473,3.824,3.8365,3.8756,3.9167,3.9488,4.63,4.63,4.63,4.6807,4.7611,4.7754,4.7301,4.6514,4.6504,4.6352,4.6122,4.5997,4.5922,4.5886,4.5854,4.5794,4.58,4.58,4.58,4.58,4.58,4.58,4.58,4.58,4.5877,4.5988,4.6061,4.6151,4.6306,4.7338,4.8437,4.9492,5.0781,5.1484,5.168,5.1444,5.1426,5.1579,5.1254,5.1061,5.1099,5.0983,5.0906,5.0906,5.0906,5.0906,5.089,5.0529,4.9477,4.7647,4.7133,4.606,4.4166,4.4005,4.4005,4.4005,4.4005,4.3732,4.3132,4.2897,4.315,4.3912,4.3819,4.3819,4.3986,4.4005,4.4005,4.4005,4.4005,4.4005,4.4005,4.4005,4.4005,4.4005,4.4005,4.4109,4.4455,4.4687,4.4817,4.5091,4.5336,4.5528,4.5393,4.549,4.5759,4.6297,4.7279,4.8215,4.8745,4.9239,4.9309,4.9027,4.889,4.9039,4.9726,4.9724,4.9596,4.9545,4.9377,4.8827,4.7866,4.6988,4.6128,4.5645,4.4471,4.2912,4.1448,4.0628,3.992,3.9227,3.9048,3.9187,3.964,4.0018,4.0188,4.63,4.63,4.63,4.6807,4.7647,4.8354,4.8144,4.7434,4.737,4.6903,4.6305,4.6102,4.6026,4.5917,4.5905,4.5848,4.58,4.58,4.58,4.58,4.58,4.58,4.58,4.58,4.5877,4.5996,4.6066,4.6163,4.639,4.7966,4.959,5.1016,5.1348,5.1777,5.2363,5.1667,5.1645,5.2504,5.1467,5.0983,5.1099,5.0964,5.0906,5.0906,5.0906,5.0906,5.089,5.0469,4.9381,4.7658,4.6996,4.5879,4.4259,4.4005,4.4005,4.4005,4.3986,4.3968,4.3819,4.3206,4.3095,4.3838,4.3299,4.3243,4.3875,4.3986,4.4005,4.4005,4.4005,4.4005,4.4005,4.4005,4.4005,4.3986,4.3949,4.3911,4.3838,4.4321,4.4456,4.3419,4.4778,4.5336,4.4761,4.5201,4.622,4.7471,4.8394,4.9179,4.9524,4.9625,4.9539,4.9075,4.8909,4.8909,4.9039,4.902,4.9039,4.8967,4.8744,4.8492,4.8071,4.7189,4.6086,4.5371,4.4295,4.2965,4.1716,4.0985,4.067,4.0071,3.9835,3.9893,4.0015,4.0504,4.0877,4.63,4.63,4.63,4.6807,4.7666,4.8469,4.8612,4.8281,4.8278,4.8055,4.7683,4.717,4.6571,4.5983,4.591,4.5867,4.5814,4.58,4.58,4.58,4.58,4.58,4.58,4.58,4.5877,4.604,4.6075,4.643,4.7245,4.8808,5.0273,5.1269,5.1387,5.1582,5.1914,5.2007,5.2017,5.1927,5.1796,5.1563,5.1177,5.1003,5.0906,5.0906,5.0906,5.0906,5.0816,4.9968,4.8823,4.7567,4.6553,4.5401,4.4061,4.4005,4.4005,4.3986,4.3534,4.31,4.2612,4.2259,4.2222,4.2575,4.2723,4.2946,4.3262,4.3708,4.4005,4.4005,4.4005,4.4005,4.4005,4.4005,4.4005,4.3949,4.3578,4.3538,4.4253,4.4137,4.3942,4.3862,4.4836,4.5278,4.4722,4.5509,4.6759,4.7971,4.8875,4.9581,4.9935,4.9891,4.9655,4.9302,4.9027,4.8667,4.8389,4.863,4.8614,4.841,4.8503,4.8651,4.8287,4.7425,4.6299,4.5319,4.4342,4.3096,4.1413,4.1145,4.0935,4.0715,4.1106,4.1301,4.1327,4.1563,4.1606,4.63,4.6339,4.6534,4.7159,4.7978,4.8814,4.9154,4.9159,4.9153,4.8883,4.8385,4.7761,4.6968,4.6114,4.5956,4.5873,4.5814,4.58,4.58,4.58,4.58,4.58,4.58,4.58,4.5896,4.6106,4.6367,4.7103,4.8301,4.9512,5.0605,5.1289,5.1387,5.1523,5.1797,5.2347,5.2336,5.1854,5.2171,5.1954,5.1289,5.1003,5.0906,5.0906,5.0906,5.0906,5.0851,4.9663,4.8506,4.751,4.6269,4.5088,4.411,4.4005,4.3912,4.3621,4.2906,4.2228,4.1619,4.1386,4.1367,4.1609,4.2147,4.2575,4.289,4.354,4.3986,4.4005,4.4005,4.4005,4.4005,4.4005,4.4005,4.3968,4.3429,4.3623,4.455,4.4232,4.3961,4.4074,4.4855,4.5393,4.5049,4.6103,4.7507,4.8049,4.9067,4.9795,5.0096,4.9968,4.9712,4.9427,4.9127,4.872,4.8166,4.8479,4.8519,4.841,4.8595,4.8797,4.8542,4.7739,4.69,4.6121,4.4921,4.3781,4.2573,4.2019,4.1864,4.1855,4.2069,4.2376,4.2489,4.246,4.2329,4.63,4.6417,4.7198,4.7978,4.8818,4.9657,5.0022,4.9958,4.9999,4.9121,4.7803,4.7545,4.6991,4.6151,4.6056,4.5929,4.5814,4.58,4.58,4.58,4.58,4.58,4.58,4.58,4.5896,4.6156,4.6892,4.8172,4.9883,5.0156,5.0605,5.1367,5.1445,5.1855,5.248,5.2695,5.2636,5.256,5.2505,5.2033,5.1304,5.1003,5.0906,5.0906,5.0906,5.0906,5.0778,4.9778,4.8675,4.7552,4.6346,4.519,4.416,4.4005,4.3677,4.2922,4.2135,4.1614,4.1436,4.0876,4.0791,4.1441,4.172,4.2017,4.276,4.354,4.3986,4.4005,4.4023,4.4042,4.4023,4.3912,4.3931,4.3986,4.3875,4.3988,4.4707,4.4554,4.4192,4.3748,4.4586,4.5413,4.5547,4.7005,4.7854,4.8433,4.9567,5.0527,5.0237,5.0012,4.9721,4.9469,4.9193,4.889,4.8816,4.8829,4.8863,4.8627,4.8537,4.889,4.8767,4.8476,4.7701,4.6992,4.6178,4.518,4.4091,4.3536,4.3531,4.3286,4.2583,4.2739,4.3052,4.2674,4.262,4.6632,4.7159,4.7471,4.8369,4.9618,4.9969,5.011,5.0119,5.0113,4.9453,4.8359,4.7745,4.7288,4.6885,4.6263,4.5947,4.5872,4.5819,4.58,4.58,4.58,4.58,4.58,4.5877,4.5988,4.6215,4.7035,4.8397,5.0078,5.0703,5.1094,5.1445,5.1973,5.2402,5.2832,5.375,5.3779,5.2832,5.299,5.253,5.1347,5.1003,5.0906,5.0906,5.0906,5.0906,5.0906,4.9889,4.8758,4.7533,4.6468,4.5303,4.416,4.4005,4.341,4.2173,4.1772,4.1129,4.0216,4.0281,4.0513,4.0847,4.1813,4.2445,4.2853,4.3522,4.4005,4.4023,4.4153,4.4259,4.4129,4.3676,4.3453,4.3708,4.2667,4.2707,4.4027,4.3952,4.3373,4.3806,4.4487,4.5103,4.6333,4.7409,4.8295,4.8914,4.9952,5.0509,5.0504,5.0249,4.9943,4.9712,4.9408,4.9127,4.889,4.8887,4.8829,4.8494,4.8386,4.8742,4.882,4.8605,4.7959,4.7177,4.6676,4.608,4.4778,4.3786,4.3953,4.3751,4.3143,4.3096,4.3436,4.3213,4.322,4.7061,4.7588,4.7881,4.8798,5.0048,5.0106,5.0106,5.0106,5.0105,4.9465,4.8433,4.7754,4.7332,4.6991,4.6359,4.6036,4.5958,4.5866,4.58,4.58,4.58,4.5819,4.5877,4.5935,4.6065,4.6338,4.7386,4.8866,5.0449,5.1113,5.1523,5.1875,5.2441,5.3008,5.3633,5.4687,5.4609,5.3789,5.3938,5.3419,5.2167,5.1583,5.137,5.1273,5.1061,5.0906,5.0867,5.0014,4.8875,4.7598,4.6592,4.544,4.4172,4.3732,4.2996,4.1809,4.1872,4.1388,4.0317,4.0911,4.146,4.1256,4.2352,4.3113,4.2909,4.3522,4.3943,4.4147,4.4271,4.4433,4.4317,4.3649,4.3359,4.3797,4.2567,4.2408,4.438,4.3853,4.3836,4.4497,4.4773,4.5464,4.666,4.7834,4.8682,4.9356,5.0144,5.0644,5.0663,5.0421,5.0111,4.9857,4.9558,4.9239,4.8993,4.8872,4.8906,4.8609,4.8479,4.876,4.8855,4.8641,4.8273,4.7435,4.6826,4.6296,4.5466,4.4364,4.3935,4.3841,4.3555,4.3424,4.3683,4.3908,4.3916,4.7627,4.7826,4.8466,4.9345,5.0165,5.0243,5.0145,5.0028,5.0008,4.9075,4.7656,4.7455,4.6991,4.6445,4.6257,4.6181,4.6134,4.6021,4.5905,4.5852,4.5819,4.5916,4.6123,4.6162,4.639,4.6654,4.8099,4.9726,5.1211,5.1484,5.1894,5.2539,5.2832,5.3691,5.5215,5.5215,5.5293,5.5176,5.5117,5.4629,5.3819,5.293,5.2353,5.2063,5.1389,5.0983,5.0906,5.0155,4.9122,4.7716,4.6744,4.5552,4.4165,4.3404,4.2532,4.2001,4.2366,4.2347,4.1841,4.2946,4.341,4.2946,4.3522,4.3708,4.3206,4.3578,4.4091,4.4298,4.4408,4.4531,4.4632,4.4145,4.3874,4.4224,4.3733,4.3755,4.4543,4.4806,4.4969,4.5418,4.5524,4.5965,4.6968,4.8278,4.926,4.9625,5.0183,5.0683,5.0683,5.0442,5.0155,4.9857,4.9627,4.9377,4.9108,4.889,4.889,4.8853,4.8797,4.889,4.889,4.8731,4.855,4.7882,4.7488,4.6958,4.6372,4.5302,4.4589,4.4389,4.4049,4.402,4.4341,4.4609,4.4538,4.8779,4.9325,4.9579,5.0204,5.0965,5.1004,5.036,4.9267,4.9208,4.8252,4.6908,4.668,4.6514,4.6347,4.6245,4.6202,4.6234,4.6627,4.6585,4.6098,4.6007,4.6336,4.6872,4.7008,4.7708,4.8835,4.9486,5.0332,5.1348,5.1992,5.248,5.2851,5.3926,5.4707,5.5293,5.5312,5.5547,5.6055,5.5527,5.498,5.4644,5.4299,5.3533,5.2314,5.1912,5.1525,5.0945,5.0654,4.9834,4.8372,4.7548,4.6145,4.4431,4.3751,4.3225,4.2656,4.3169,4.3278,4.2772,4.3906,4.4599,4.4005,4.4432,4.4413,4.3763,4.3869,4.4151,4.4383,4.456,4.4782,4.4962,4.488,4.4688,4.4676,4.3655,4.3636,4.4817,4.5203,4.5419,4.5627,4.6121,4.6814,4.7662,4.8837,4.9644,5.0125,5.051,5.0683,5.0663,5.0604,5.0313,4.9929,4.9712,4.9544,4.9295,4.9169,4.9222,4.9185,4.9094,4.8909,4.889,4.8855,4.8642,4.8326,4.7974,4.7488,4.6918,4.6177,4.5338,4.5165,4.5072,4.5176,4.5356,4.5417,4.5328,4.9599,5.0106,5.0457,5.0887,5.1375,5.1394,5.0614,4.9345,4.8935,4.8017,4.6924,4.6436,4.629,4.6282,4.6267,4.6426,4.6734,4.7245,4.733,4.712,4.7008,4.7345,4.7902,4.7981,4.8724,4.9961,5.0195,5.0801,5.1875,5.2422,5.3008,5.3808,5.4785,5.5488,5.5742,5.5801,5.6211,5.6855,5.6523,5.6146,5.5945,5.5612,5.4578,5.2972,5.2376,5.1757,5.1003,5.0906,5.022,4.8819,4.7707,4.6374,4.5065,4.4922,4.4426,4.3751,4.4456,4.4934,4.4115,4.5605,4.6271,4.5658,4.573,4.5469,4.4693,4.4401,4.4402,4.4546,4.4796,4.5062,4.529,4.5342,4.5266,4.5101,4.4098,4.3916,4.5027,4.5438,4.578,4.6142,4.6833,4.7661,4.8489,4.9356,5.0029,5.0587,5.0683,5.0683,5.0683,5.0683,5.0355,5.0032,4.9803,4.9631,4.9455,4.9464,4.9573,4.9517,4.9408,4.9094,4.889,4.8909,4.8768,4.8364,4.7974,4.7663,4.7114,4.632,4.557,4.5781,4.5868,4.573,4.5668,4.6112,4.6077,5.0184,5.0282,5.1043,5.1336,5.1394,5.1394,5.0867,4.9989,4.9169,4.831,4.7471,4.6651,4.63,4.6323,4.6424,4.6876,4.7506,4.7842,4.8257,4.8705,4.8796,4.8866,4.8884,4.9074,4.9629,5.0254,5.0351,5.1172,5.25,5.2812,5.3633,5.5,5.5332,5.5781,5.6308,5.6523,5.6797,5.7598,5.7754,5.7656,5.75,5.6942,5.5484,5.3669,5.2763,5.1912,5.1061,5.0703,5.0048,4.8748,4.7475,4.6688,4.6462,4.647,4.5618,4.4432,4.6392,4.6554,4.6255,4.7268,4.8184,4.74,4.6881,4.648,4.5401,4.4889,4.4745,4.4819,4.5033,4.5297,4.5515,4.5566,4.5549,4.5531,4.4972,4.4922,4.5203,4.5534,4.6068,4.6778,4.7584,4.8447,4.9239,5.0048,5.051,5.0664,5.0683,5.0683,5.0683,5.0624,5.0399,5.0193,5.0024,5.0021,4.9926,5.0207,5.0282,5.03,5.0133,4.9745,4.9187,4.9057,4.8785,4.8383,4.8075,4.7747,4.7299,4.6639,4.6168,4.6141,4.6096,4.5909,4.6105,4.6506,4.6631,5.1063,5.1082,5.1297,5.1394,5.1394,5.1394,5.0926,5.0028,4.9169,4.8349,4.753,4.669,4.6319,4.6378,4.6983,4.7412,4.7894,4.8846,4.9508,4.9899,5.0449,5.0283,5.0094,5.0449,5.0801,5.1016,5.1094,5.1641,5.2695,5.3359,5.4238,5.5273,5.5937,5.6328,5.6523,5.6035,5.6484,5.7676,5.791,5.7871,5.7812,5.8058,5.6654,5.3843,5.3323,5.2414,5.099,5.0008,4.935,4.8748,4.8079,4.7273,4.6597,4.6559,4.6355,4.6099,4.688,4.7574,4.7395,4.8171,4.8463,4.7791,4.7299,4.6484,4.5629,4.5089,4.4948,4.5045,4.5171,4.5319,4.5534,4.5586,4.5586,4.5586,4.5458,4.5419,4.5572,4.6127,4.6682,4.699,4.8162,4.9008,4.9547,5.0125,5.0664,5.0683,5.0683,5.076,5.0818,5.0817,5.0713,5.0508,5.0399,5.0486,5.0622,5.0903,5.1062,5.1119,5.0953,5.0675,4.9988,4.9408,4.8953,4.8402,4.8307,4.8014,4.7705,4.7191,4.6936,4.6632,4.6542,4.648,4.6605,4.6908,4.689,5.1394,5.1394,5.1394,5.1394,5.1394,5.1394,5.1121,5.0477,4.9325,4.8564,4.79,4.6807,4.6515,4.6885,4.7373,4.8017,4.8724,4.9651,5.0269,5.0745,5.1133,5.1065,5.0898,5.125,5.1387,5.1465,5.1777,5.2441,5.3281,5.4121,5.498,5.5781,5.6348,5.6601,5.6582,5.6191,5.6504,5.7734,5.8203,5.8398,5.8398,5.8674,5.7426,5.5126,5.431,5.3227,5.1609,5.0738,4.9928,4.8938,4.8287,4.761,4.6694,4.72,4.7185,4.6687,4.7541,4.81,4.7927,4.8466,4.8667,4.8267,4.7803,4.7108,4.6384,4.5824,4.57,4.5235,4.5311,4.5436,4.5551,4.5586,4.5586,4.5624,4.5913,4.597,4.5663,4.6336,4.699,4.7586,4.8528,4.9586,4.9836,5.0433,5.0625,5.0683,5.0683,5.0914,5.1164,5.1164,5.1257,5.1251,5.1364,5.1594,5.1745,5.198,5.2159,5.2197,5.1881,5.1603,5.0842,5.004,4.9451,4.8993,4.8679,4.8307,4.7995,4.7723,4.745,4.7222,4.7178,4.7079,4.716,4.716,4.7116,5.1394,5.1394,5.1394,5.1394,5.1394,5.1394,5.1355,5.1063,4.9696,4.8993,4.8623,4.7256,4.7178,4.7725,4.8057,4.8701,5.0012,5.0227,5.0715,5.1133,5.1387,5.1308,5.1289,5.1328,5.1387,5.1523,5.2266,5.3066,5.3867,5.4785,5.5703,5.6289,5.6562,5.6601,5.6601,5.6543,5.707,5.789,5.8691,5.9004,5.8984,5.889,5.7854,5.6195,5.4793,5.3788,5.2592,5.1848,5.0875,4.8967,4.8437,4.7691,4.6983,4.8091,4.7986,4.7249,4.793,4.8481,4.7988,4.8447,4.8943,4.8818,4.8595,4.8161,4.7329,4.6911,4.6359,4.5647,4.5553,4.5569,4.5624,4.568,4.5853,4.5951,4.649,4.6451,4.622,4.6624,4.7432,4.8163,4.9009,4.9856,5.0414,5.076,5.0837,5.1144,5.1144,5.1433,5.1664,5.1722,5.2064,5.2452,5.2627,5.2913,5.3036,5.3169,5.3274,5.333,5.2902,5.2456,5.1751,5.0988,5.0283,4.9692,4.8826,4.8421,4.8289,4.8072,4.7861,4.7687,4.754,4.7473,4.7474,4.7392,4.7407,5.1394,5.1394,5.1394,5.1394,5.1394,5.1394,5.1394,5.1297,5.0282,4.9755,4.956,4.8681,4.8349,4.8584,4.915,4.9813,5.0223,5.0754,5.1277,5.1328,5.1387,5.1387,5.1426,5.1465,5.1426,5.166,5.2305,5.3183,5.4062,5.498,5.5742,5.6484,5.6621,5.6621,5.666,5.6758,5.7031,5.789,5.8789,5.9258,5.9221,5.8979,5.8068,5.6353,5.4793,5.3788,5.3056,5.1846,5.076,4.9978,4.908,4.8211,4.7508,4.775,4.7757,4.7707,4.8208,4.8558,4.8044,4.8521,4.903,4.9239,4.8899,4.8529,4.8538,4.7524,4.6934,4.6416,4.601,4.5815,4.5836,4.6277,4.6527,4.6682,4.6874,4.7182,4.7567,4.8298,4.8779,4.9144,4.9779,5.0491,5.0683,5.1299,5.1472,5.1586,5.1818,5.2068,5.2241,5.2414,5.2871,5.3437,5.3709,5.3887,5.3813,5.3837,5.3758,5.3831,5.3514,5.3292,5.2549,5.1397,5.0488,4.9615,4.8725,4.851,4.8458,4.8345,4.8169,4.8024,4.7915,4.7844,4.7784,4.7699,4.7645,5.1394,5.1394,5.1394,5.1394,5.1394,5.1394,5.1394,5.1219,5.0496,5.0106,4.9911,4.9169,4.9032,4.9423,4.9891,5.0262,5.0731,5.1141,5.1394,5.1387,5.1406,5.1621,5.1992,5.2012,5.2031,5.2207,5.3379,5.418,5.4746,5.543,5.6172,5.6562,5.6621,5.6894,5.7168,5.7226,5.7715,5.8515,5.9316,5.9771,5.972,5.9142,5.799,5.6482,5.518,5.4542,5.402,5.331,5.1914,5.0678,4.9755,4.8536,4.7285,4.7467,4.7646,4.7389,4.8298,4.893,4.895,4.9208,4.9536,4.9716,4.9332,4.8988,4.8886,4.8235,4.7664,4.7124,4.6835,4.6814,4.6799,4.7086,4.7413,4.7548,4.7836,4.8259,4.8682,4.9144,4.9413,4.9567,5.0106,5.051,5.0933,5.1588,5.1875,5.1912,5.2508,5.2817,5.3453,5.3645,5.3953,5.4389,5.4671,5.4757,5.4596,5.4403,5.4094,5.4055,5.3831,5.3683,5.333,5.1918,5.045,4.9819,4.9317,4.8725,4.8658,4.8532,4.8476,4.8438,4.8323,4.8184,4.809,4.8007,4.7926,5.1785,5.1785,5.1785,5.1785,5.1785,5.1863,5.1785,5.1511,5.0828,5.0594,5.0204,4.9481,4.9794,5.0204,5.0321,5.0789,5.1199,5.1366,5.14,5.1387,5.168,5.2031,5.2539,5.2949,5.3242,5.3281,5.4394,5.5137,5.543,5.6133,5.6484,5.664,5.6816,5.7187,5.7734,5.8105,5.8515,5.9355,5.9922,6.0435,6.0332,5.9512,5.7939,5.635,5.5877,5.5509,5.5026,5.4469,5.3568,5.1257,5.0814,4.911,4.7586,4.7236,4.7961,4.7136,4.8441,4.9275,4.9905,5.0094,5.0075,5.0216,5.0112,4.9667,4.9219,4.9056,4.8568,4.8124,4.7816,4.8066,4.8126,4.8222,4.8279,4.8413,4.899,4.9394,4.9567,4.9586,4.9683,4.9779,5.0279,5.0683,5.1203,5.178,5.2009,5.2352,5.3006,5.362,5.4259,5.4587,5.4722,5.4972,5.5196,5.5169,5.4993,5.4688,5.4439,5.4187,5.4038,5.3868,5.3738,5.2587,5.1268,5.0711,5.0172,4.9394,4.8783,4.8695,4.866,4.8785,4.8678,4.8494,4.8366,4.8272,4.8218,5.358,5.3561,5.3561,5.3561,5.3541,5.3541,5.3093,5.2526,5.2292,5.1843,5.1219,5.1043,5.0984,5.116,5.118,5.1297,5.146,5.1455,5.1478,5.1691,5.2109,5.2598,5.3105,5.4043,5.4648,5.4902,5.5293,5.539,5.5586,5.6133,5.6582,5.6758,5.7285,5.7773,5.8105,5.8613,5.9375,6.0078,6.0449,6.0801,6.0887,5.9689,5.8076,5.6336,5.6089,5.5896,5.5647,5.5088,5.4436,5.3803,5.2512,5.1062,4.973,4.9032,4.8921,4.8987,4.9309,5.0043,5.0879,5.0579,5.0648,5.0969,5.0954,5.0691,5.0262,4.9797,4.9356,4.9144,4.8894,4.8894,4.8203,4.8798,4.9144,4.924,4.9356,4.9721,5.0221,5.0356,5.0394,5.0491,5.0721,5.0991,5.153,5.2261,5.2933,5.3353,5.3911,5.4449,5.503,5.5049,5.4895,5.5222,5.5607,5.5461,5.5286,5.4924,5.4604,5.4334,5.4111,5.385,5.359,5.3014,5.2215,5.1323,5.032,4.9317,4.8948,4.8804,4.882,4.882,4.8804,4.8732,4.8657,4.8581,4.8618,5.399,5.399,5.399,5.399,5.399,5.399,5.3756,5.3405,5.3366,5.3132,5.2702,5.2312,5.2078,5.1941,5.155,5.1609,5.1913,5.154,5.1912,5.2574,5.2754,5.3301,5.3867,5.498,5.5527,5.584,5.5957,5.5937,5.5996,5.6367,5.6601,5.6816,5.748,5.8105,5.8652,5.9414,6.0215,6.0859,6.1074,6.123,6.1484,5.9843,5.8144,5.7121,5.6244,5.6031,5.5935,5.5685,5.5091,5.4534,5.3802,5.2838,5.1941,5.1257,5.0594,5.0185,5.0468,5.1291,5.2153,5.2083,5.2224,5.2379,5.1832,5.1255,5.0993,5.0526,5.0106,4.9952,4.9548,4.9452,4.949,4.9798,5.001,5.0067,5.0048,5.024,5.0567,5.0683,5.0933,5.1241,5.1491,5.1703,5.1934,5.2762,5.38,5.4434,5.4836,5.5241,5.5665,5.5472,5.5164,5.5376,5.5684,5.5615,5.5408,5.5121,5.4795,5.4522,5.4202,5.3963,5.3608,5.3125,5.2364,5.1491,5.0432,4.954,4.9002,4.8855,4.8855,4.889,4.8855,4.8839,4.8855,4.889,4.8983,5.4517,5.4517,5.4517,5.4517,5.4517,5.4517,5.4435,5.4283,5.4264,5.4108,5.3893,5.3307,5.2975,5.28,5.2429,5.2331,5.2882,5.2223,5.2812,5.3535,5.3594,5.4101,5.4922,5.5566,5.5937,5.6387,5.6484,5.6621,5.6504,5.6582,5.6601,5.6933,5.7578,5.8457,5.918,6.0137,6.0996,6.1445,6.1699,6.166,6.1015,5.964,5.83,5.7497,5.6534,5.6012,5.5993,5.5935,5.5573,5.5074,5.4612,5.4188,5.3589,5.3475,5.26,5.1323,5.1877,5.2839,5.3684,5.349,5.3338,5.3556,5.2635,5.2141,5.1698,5.1352,5.0837,5.0625,5.0202,4.9933,5.0337,5.0625,5.0625,5.0625,5.0625,5.076,5.0952,5.1164,5.1529,5.1837,5.2164,5.2568,5.2954,5.3262,5.43,5.4857,5.528,5.5357,5.5684,5.5684,5.553,5.5568,5.5684,5.5684,5.5522,5.525,5.495,5.4698,5.4348,5.4018,5.3701,5.333,5.2512,5.1714,5.1082,5.0246,4.9577,4.8927,4.889,4.889,4.889,4.889,4.8909,4.9152,4.9412,5.6294,5.6274,5.6255,5.6294,5.6235,5.6196,5.5806,5.5181,5.5142,5.4693,5.4225,5.3932,5.3834,5.3698,5.3659,5.3682,5.3751,5.3594,5.3711,5.4316,5.459,5.4902,5.543,5.6152,5.6328,5.6621,5.6621,5.6621,5.6699,5.6699,5.6621,5.6894,5.8086,5.9101,5.9297,6.0644,6.1543,6.1699,6.168,6.1308,6.043,5.8832,5.7862,5.7389,5.6611,5.6012,5.6012,5.6012,5.5842,5.5748,5.5017,5.4593,5.4361,5.434,5.4302,5.3759,5.3486,5.3522,5.4775,5.4454,5.4025,5.4273,5.3824,5.3464,5.2807,5.216,5.1529,5.0721,5.0587,5.0606,5.0798,5.0741,5.0721,5.0837,5.101,5.1318,5.1587,5.1818,5.2183,5.2799,5.3241,5.3741,5.4185,5.4397,5.4724,5.5243,5.5607,5.5665,5.5684,5.5684,5.5684,5.5684,5.5684,5.5684,5.5607,5.5357,5.5092,5.486,5.4493,5.4074,5.372,5.3348,5.2754,5.2029,5.1435,5.0785,4.9968,4.9392,4.9057,4.9185,4.9536,4.9296,4.8927,4.9301,4.9933,5.6606,5.6606,5.6606,5.6606,5.6606,5.6606,5.6391,5.6098,5.602,5.5825,5.5396,5.4908,5.4478,5.4166,5.399,5.4264,5.4529,5.4294,5.4648,5.5117,5.541,5.5586,5.6035,5.6406,5.6601,5.6621,5.668,5.7012,5.7012,5.6855,5.6621,5.6953,5.8262,5.916,5.9433,6.0898,6.1523,6.1562,6.1269,6.1035,6.0488,5.9043,5.7872,5.8206,5.6861,5.6225,5.6012,5.6012,5.5996,5.5941,5.5517,5.5345,5.5267,5.5226,5.5205,5.5147,5.4759,5.4912,5.5448,5.5059,5.499,5.4905,5.4636,5.3925,5.3317,5.2895,5.2569,5.2184,5.1645,5.1414,5.1395,5.1375,5.1395,5.1471,5.1664,5.2106,5.2472,5.2587,5.2953,5.3645,5.426,5.4628,5.4935,5.507,5.5147,5.5397,5.5645,5.5665,5.5684,5.5684,5.5684,5.5684,5.5684,5.5684,5.5607,5.5434,5.5222,5.4947,5.4549,5.4168,5.3776,5.3311,5.281,5.2308,5.1732,5.1045,5.032,4.9986,4.9782,5.0019,5.0349,5.0112,4.9949,5.0339,5.086,5.6606,5.6606,5.6606,5.6606,5.6606,5.6606,5.6606,5.6606,5.6586,5.6586,5.645,5.5884,5.524,5.4791,5.4791,5.5123,5.5556,5.4918,5.5449,5.5996,5.6094,5.6074,5.6367,5.6601,5.6621,5.664,5.6973,5.7285,5.7539,5.7598,5.7441,5.7324,5.8887,5.9492,5.9902,6.0859,6.1699,6.166,6.1191,6.1191,6.1094,5.9316,5.8652,5.8227,5.747,5.6341,5.6051,5.6012,5.5996,5.5979,5.596,5.5808,5.5769,5.5708,5.5686,5.5626,5.5453,5.5491,5.5665,5.5564,5.5684,5.5511,5.5222,5.4528,5.3759,5.353,5.3299,5.3031,5.2608,5.2281,5.2223,5.2222,5.224,5.2413,5.2663,5.3126,5.3472,5.353,5.3818,5.4491,5.4972,5.5088,5.5357,5.5549,5.5645,5.5665,5.5684,5.5684,5.5703,5.5722,5.5953,5.603,5.6203,5.6319,5.6472,5.6184,5.5742,5.5131,5.478,5.4317,5.3981,5.3515,5.3051,5.2531,5.2067,5.1806,5.1398,5.0933,5.0579,5.0709,5.0912,5.1118,5.1231,5.1546,5.1862,5.6606,5.6606,5.6606,5.6606,5.6606,5.6606,5.6606,5.6606,5.6606,5.6606,5.6606,5.6489,5.6333,5.6274,5.6118,5.6216,5.645,5.6442,5.6426,5.6484,5.6523,5.6484,5.664,5.668,5.6738,5.6855,5.7402,5.7851,5.8125,5.8769,5.8848,5.918,5.9746,6.0156,6.0586,6.125,6.1875,6.1855,6.1543,6.1543,6.125,6.0,5.8945,5.8637,5.7921,5.6996,5.6089,5.6012,5.6012,5.5995,5.5998,5.5999,5.5943,5.5923,5.5862,5.5822,5.5801,5.5761,5.5722,5.5703,5.5684,5.5684,5.5511,5.5164,5.4511,5.4414,5.4068,5.355,5.3299,5.3146,5.3128,5.3107,5.3124,5.3259,5.3547,5.3953,5.4241,5.4376,5.4722,5.5376,5.5607,5.5549,5.553,5.5665,5.5684,5.5684,5.5684,5.5684,5.5799,5.5876,5.6299,5.6549,5.6838,5.7184,5.7802,5.7437,5.6665,5.5921,5.5356,5.4809,5.4279,5.3795,5.3274,5.3014,5.2642,5.2568,5.2475,5.2048,5.1676,5.1435,5.1509,5.1936,5.2122,5.2308,5.2791,5.6606,5.6606,5.6606,5.6606,5.6606,5.6606,5.6606,5.6606,5.6606,5.6606,5.6606,5.6606,5.6606,5.6626,5.6606,5.6606,5.661,5.6598,5.6621,5.6621,5.6601,5.6621,5.6719,5.7129,5.7441,5.7598,5.8262,5.9043,5.9531,5.9785,6.0312,6.0586,6.0547,6.0371,6.0762,6.1758,6.2363,6.2324,6.207,6.1933,6.1992,6.0332,5.9068,5.8819,5.8037,5.7052,5.6186,5.6031,5.6012,5.6014,5.6053,5.6075,5.6094,5.6058,5.6001,5.5942,5.592,5.5898,5.5857,5.5799,5.5703,5.5684,5.5684,5.5549,5.5164,5.5203,5.5126,5.4722,5.4241,5.401,5.3991,5.401,5.4028,5.4122,5.4374,5.4741,5.4914,5.5011,5.5126,5.5588,5.5665,5.5645,5.5665,5.5684,5.5684,5.5684,5.5684,5.5761,5.6011,5.6203,5.6665,5.7242,5.7588,5.7896,5.8476,5.8053,5.7495,5.6811,5.6102,5.5395,5.4764,5.4036,5.359,5.3367,5.3255,5.32,5.3125,5.3032,5.2828,5.2549,5.2679,5.3014,5.3106,5.3069,5.3347,5.6606,5.6606,5.6606,5.6606,5.6606,5.6606,5.6606,5.6606,5.6606,5.6606,5.6626,5.6801,5.6957,5.6957,5.6977,5.7016,5.6962,5.6786,5.6638,5.6719,5.6875,5.6953,5.7285,5.7754,5.8301,5.8496,5.9101,5.9883,6.0215,6.0605,6.1015,6.123,6.1133,6.0898,6.123,6.2402,6.3262,6.289,6.3144,6.2851,6.3125,6.1582,6.0117,5.9793,5.8969,5.7787,5.6902,5.6515,5.6495,5.6495,5.6459,5.6439,5.6402,5.6383,5.6364,5.6309,5.6252,5.6287,5.6398,5.5953,5.5761,5.5684,5.5684,5.5684,5.5684,5.5684,5.5491,5.553,5.5105,5.4855,5.4816,5.4855,5.4855,5.4912,5.5066,5.5376,5.5395,5.5472,5.5511,5.5684,5.5722,5.5838,5.6436,5.6511,5.6569,5.6492,5.6319,5.653,5.6915,5.7088,5.7223,5.7819,5.8415,5.8723,5.9011,5.8723,5.8434,5.8101,5.7294,5.6147,5.5404,5.465,5.3981,5.3645,5.3608,5.3775,5.3664,5.3423,5.3534,5.3664,5.3664,5.3534,5.3553,5.344,5.3571,5.6626,5.6606,5.6606,5.6626,5.6762,5.6645,5.6645,5.6645,5.6704,5.6782,5.6957,5.7484,5.7797,5.7758,5.7699,5.768,5.7664,5.7106,5.6825,5.7109,5.7637,5.7832,5.8183,5.8633,5.916,5.9375,5.9961,6.0469,6.0527,6.1133,6.1582,6.1797,6.1777,6.1582,6.1836,6.3379,6.3769,6.3359,6.4551,6.4648,6.414,6.3027,6.1933,6.0995,6.0114,5.8854,5.7462,5.725,5.7211,5.7037,5.7211,5.7251,5.7251,5.7269,5.725,5.7211,5.7175,5.7468,5.7918,5.6571,5.5934,5.5722,5.5684,5.5684,5.5684,5.5684,5.5684,5.5684,5.5549,5.5549,5.5607,5.5607,5.5549,5.5549,5.5645,5.5684,5.5684,5.5992,5.6069,5.6222,5.6049,5.6069,5.6937,5.7514,5.7547,5.7431,5.7107,5.7242,5.7684,5.7992,5.8088,5.8473,5.9127,5.955,5.9781,5.9623,5.9392,5.9081,5.8385,5.7178,5.6185,5.5522,5.4814,5.4112,5.3907,5.3963,5.3889,5.3757,5.3794,5.3813,5.3813,5.3738,5.3794,5.3813,5.3813,5.6899,5.7348,5.6821,5.7231,5.8089,5.7621,5.7113,5.6762,5.7153,5.7699,5.8226,5.8597,5.8656,5.8519,5.8187,5.8187,5.8484,5.7903,5.7596,5.8309,5.8651,5.8711,5.9004,5.9512,6.0,6.0234,6.0781,6.1191,6.1289,6.1699,6.2129,6.2402,6.2519,6.2207,6.2305,6.3301,6.4062,6.4101,6.4902,6.539,6.5019,6.3808,6.2598,6.164,6.0793,5.9394,5.7811,5.7985,5.7965,5.7675,5.783,5.8159,5.8159,5.8176,5.8157,5.8138,5.8102,5.7796,5.7655,5.6746,5.628,5.5934,5.5684,5.5684,5.5684,5.5684,5.5684,5.5684,5.5684,5.5684,5.5665,5.5665,5.5626,5.5626,5.5684,5.5684,5.5799,5.6357,5.6703,5.6934,5.6915,5.7223,5.7857,5.8511,5.8681,5.8585,5.83,5.805,5.8319,5.8781,5.905,5.9338,5.98,6.0281,6.0512,6.0219,5.9911,5.9565,5.8927,5.7996,5.7128,5.6455,5.5554,5.4792,5.4415,5.4125,5.4017,5.3963,5.3832,5.3813,5.3813,5.3813,5.3813,5.3813,5.3813,5.7328,5.7758,5.7562,5.807,5.889,5.8163,5.7621,5.7562,5.8031,5.8597,5.9065,5.9358,5.9553,5.9378,5.9065,5.889,5.9441,5.8721,5.8456,5.9244,5.9548,5.959,5.9863,6.039,6.0801,6.1035,6.1308,6.168,6.164,6.1992,6.2637,6.3262,6.3437,6.3203,6.3203,6.3808,6.4492,6.4824,6.5644,6.6133,6.5566,6.4551,6.3223,6.2422,6.1363,5.9921,5.8949,5.8662,5.8797,5.8507,5.8642,5.9048,5.9048,5.9048,5.9047,5.9029,5.9243,5.8703,5.7968,5.7557,5.692,5.5838,5.5722,5.5684,5.5684,5.5684,5.5684,5.5684,5.5684,5.5722,5.5742,5.5742,5.5876,5.5895,5.6165,5.6203,5.6665,5.7261,5.7453,5.7684,5.7877,5.828,5.8761,5.9396,5.9854,5.9681,5.9511,5.9261,5.8973,5.9319,5.9742,6.0031,6.0223,6.0531,6.0742,6.0666,6.0334,6.0027,5.9469,5.8869,5.8309,5.7652,5.6549,5.5557,5.5278,5.4882,5.434,5.4089,5.3907,5.3813,5.3813,5.3813,5.3813,5.3868,5.3924,5.7816,5.8011,5.8753,5.9124,5.9085,5.8534,5.8534,5.9163,5.9124,5.9183,5.9319,6.0198,6.0432,6.0412,6.0334,6.0315,6.0241,5.9517,5.9449,5.9629,6.0215,6.0371,6.0683,6.1172,6.1387,6.1582,6.1738,6.1816,6.1855,6.291,6.3711,6.4062,6.4238,6.418,6.4277,6.4433,6.4902,6.543,6.5898,6.6387,6.6191,6.5039,6.4121,6.332,6.2323,6.0961,6.0092,5.9822,5.9803,5.9745,5.9861,5.9919,5.9938,5.992,5.9919,6.0111,6.0576,5.9727,5.876,5.8351,5.7403,5.6225,5.5761,5.5722,5.5684,5.5684,5.5684,5.5684,5.5703,5.578,5.5818,5.6049,5.628,5.6588,5.6992,5.7357,5.7877,5.8204,5.83,5.8434,5.8588,5.8954,5.9511,6.0146,6.0435,6.0377,6.0204,6.0204,5.9935,5.9685,6.0089,6.0473,6.0627,6.0704,6.08,6.08,6.0704,6.0334,6.0435,5.9969,5.9413,5.8706,5.7748,5.6853,5.6215,5.5586,5.4627,5.4108,5.3907,5.385,5.3831,5.3813,5.3813,5.4073,5.4147,5.8499,5.9573,5.9261,5.9807,6.0842,6.0686,6.0744,6.0881,6.0354,6.0315,6.0978,6.1193,6.1232,6.1271,6.0686,6.0861,6.0792,6.063,6.0641,6.0859,6.1211,6.1289,6.1426,6.1601,6.1719,6.1699,6.1777,6.2031,6.2851,6.3926,6.4355,6.4375,6.498,6.5156,6.5234,6.5215,6.543,6.5664,6.6074,6.6367,6.6289,6.5137,6.4512,6.375,6.293,6.1601,6.073,6.069,6.0575,6.019,6.0538,6.0731,6.075,6.077,6.075,6.075,6.0809,6.0461,5.9455,5.868,5.7827,5.6802,5.6165,5.5742,5.5684,5.5818,5.5838,5.5992,5.6109,5.6263,5.6533,5.6742,5.7107,5.7566,5.7915,5.8204,5.8704,5.9031,5.9127,5.9242,5.9377,5.9704,6.0285,6.0396,6.0646,6.0742,6.08,6.08,6.0723,6.0396,6.0319,6.0685,6.08,6.08,6.08,6.08,6.08,6.0742,6.0742,6.0569,5.9869,5.9182,5.8717,5.7979,5.7022,5.5803,5.4514,5.4366,5.4652,5.3999,5.3906,5.3831,5.3868,5.4258,5.4518,5.9359,6.0243,6.0207,6.0764,6.1583,6.1701,6.1701,6.1603,6.1134,6.1252,6.1681,6.1681,6.1701,6.1603,6.1193,6.1213,6.1603,6.1645,6.1601,6.1504,6.2344,6.209,6.2031,6.2012,6.2012,6.1894,6.1855,6.2109,6.3301,6.4629,6.5293,6.5547,6.5957,6.6015,6.6113,6.6113,6.6133,6.6172,6.6211,6.625,6.584,6.5137,6.4375,6.3769,6.2988,6.2051,6.137,6.1541,6.1232,6.1098,6.166,6.1311,6.1331,6.135,6.1099,6.1041,6.1002,6.0558,5.9765,5.9242,5.8428,5.7673,5.7014,5.6896,5.6626,5.6626,5.6744,5.684,5.686,5.6977,5.7264,5.7588,5.8146,5.8662,5.8819,5.8954,5.9358,5.9781,5.9954,6.0069,6.0281,6.055,6.0762,6.08,6.08,6.08,6.08,6.08,6.08,6.0685,6.0589,6.0742,6.08,6.08,6.08,6.08,6.08,6.08,6.0781,6.0531,6.0046,5.9796,5.9422,5.8582,5.7602,5.6454,5.5454,5.5582,5.5656,5.5006,5.4596,5.4727,5.4783,5.476,5.4964,6.0224,6.0408,6.1303,6.1603,6.1701,6.1701,6.1701,6.1701,6.1642,6.1701,6.1701,6.1701,6.1701,6.1681,6.1544,6.1544,6.1939,6.2231,6.2285,6.1914,6.3262,6.3301,6.2734,6.2578,6.2598,6.2148,6.207,6.2637,6.3574,6.4941,6.625,6.6875,6.6777,6.6719,6.668,6.668,6.666,6.664,6.6621,6.6621,6.6074,6.5137,6.414,6.3437,6.291,6.2383,6.248,6.2406,6.2217,6.2645,6.2627,6.1969,6.1814,6.1524,6.1215,6.1099,6.1079,6.0751,6.0171,5.9688,5.9183,5.8638,5.8325,5.8127,5.7819,5.7415,5.7434,5.7591,5.761,5.7879,5.8165,5.8373,5.8816,5.9335,5.9665,5.9819,6.0108,6.0358,6.0396,6.0492,6.055,6.0839,6.1247,6.1304,6.155,6.1204,6.1031,6.105,6.0954,6.0954,6.0819,6.08,6.08,6.08,6.08,6.08,6.08,6.08,6.08,6.0742,6.0454,6.03,6.0165,5.9249,5.8294,5.7615,5.6891,5.682,5.6625,5.6246,5.5913,5.5911,5.5789,5.5618,5.5763,6.0594,6.1207,6.1556,6.1701,6.1701,6.1701,6.1701,6.1701,6.1701,6.1701,6.1701,6.1701,6.1701,6.1701,6.1798,6.1818,6.1978,6.2876,6.2848,6.3066,6.3984,6.4238,6.3574,6.332,6.3301,6.3379,6.3379,6.3496,6.4687,6.5859,6.6621,6.6914,6.6992,6.7051,6.7148,6.7109,6.7031,6.707,6.7031,6.7265,6.7265,6.7148,6.664,6.5605,6.4844,6.4101,6.3906,6.3422,6.3414,6.3638,6.3458,6.2975,6.2433,6.1582,6.1176,6.1099,6.1099,6.0886,6.0597,6.0132,5.9666,5.9256,5.8941,5.8918,5.8704,5.8261,5.8127,5.83,5.8492,5.88,5.905,5.9238,5.9446,5.9969,6.0416,6.0608,6.08,6.08,6.08,6.08,6.08,6.1089,6.1516,6.1882,6.217,6.2132,6.1901,6.1766,6.1473,6.1339,6.0916,6.0858,6.08,6.08,6.08,6.08,6.08,6.08,6.08,6.08,6.08,6.0627,6.0396,5.98,5.9019,5.8462,5.7991,5.7659,5.7442,5.7339,5.7058,5.6949,5.6762,5.662,5.6803,6.0831,6.1298,6.1509,6.1595,6.1637,6.1681,6.1701,6.1701,6.1701,6.1701,6.1701,6.1701,6.172,6.1857,6.2071,6.2228,6.2466,6.3676,6.3805,6.4023,6.459,6.4746,6.4492,6.414,6.4101,6.4238,6.4394,6.4805,6.5703,6.6426,6.6933,6.7344,6.7461,6.7598,6.7773,6.7715,6.748,6.7519,6.7441,6.7715,6.8105,6.7773,6.6758,6.582,6.543,6.5078,6.4863,6.4387,6.4517,6.4605,6.4595,6.3439,6.2723,6.2008,6.1505,6.1234,6.1099,6.1099,6.0886,6.0577,6.0208,5.9915,5.9848,5.9942,5.998,5.9634,5.955,5.9685,5.9685,5.9954,5.9992,6.0123,6.0181,6.0531,6.0646,6.0723,6.08,6.08,6.08,6.08,6.0896,6.1189,6.157,6.1925,6.229,6.2853,6.2642,6.2382,6.2089,6.1877,6.1396,6.1031,6.105,6.0877,6.08,6.08,6.08,6.08,6.08,6.08,6.0781,6.0762,6.0569,6.0012,5.9642,5.9561,5.9115,5.8769,5.8842,5.8915,5.8448,5.7914,5.7735,5.7574,5.768,6.1,6.1072,6.1343,6.1495,6.1515,6.1612,6.1691,6.1701,6.1701,6.1798,6.1954,6.1935,6.1837,6.2013,6.2579,6.2833,6.3403,6.4489,6.4719,6.5039,6.6055,6.582,6.5469,6.5176,6.4961,6.5039,6.5293,6.5508,6.5957,6.6601,6.7265,6.8008,6.8359,6.8555,6.8945,6.8789,6.8301,6.8086,6.7988,6.7988,6.7812,6.7519,6.6484,6.5723,6.539,6.5781,6.5449,6.5336,6.5492,6.5439,6.5388,6.4154,6.311,6.2413,6.1737,6.135,6.1099,6.1099,6.1041,6.0945,6.0886,6.0865,6.0957,6.0891,6.0831,6.0769,6.0689,6.0666,6.0666,6.0666,6.0704,6.0723,6.0762,6.08,6.08,6.0819,6.0819,6.0839,6.0839,6.0858,6.1146,6.142,6.1897,6.2233,6.2784,6.3322,6.3347,6.2988,6.2699,6.2512,6.2204,6.1762,6.1531,6.13,6.0916,6.08,6.08,6.08,6.08,6.08,6.0781,6.0781,6.0627,6.0223,5.9969,6.0046,6.0142,5.9931,6.0119,6.0056,5.9587,5.8927,5.8717,5.8539,5.8455,6.1053,6.1177,6.1233,6.1354,6.1504,6.1568,6.1595,6.1696,6.1774,6.2071,6.2637,6.2696,6.2423,6.1779,6.2598,6.3125,6.3691,6.5013,6.548,6.5625,6.6445,6.6504,6.6289,6.584,6.5547,6.5703,6.6094,6.6523,6.6484,6.6777,6.7363,6.8222,6.832,6.8691,6.9316,6.916,6.9004,6.8711,6.8183,6.8008,6.7832,6.7695,6.7851,6.7441,6.7246,6.666,6.6152,6.6191,6.6408,6.6295,6.5703,6.4638,6.371,6.2897,6.2201,6.1621,6.1369,6.1331,6.1331,6.1293,6.1292,6.1215,6.1152,6.101,6.0927,6.0827,6.0766,6.0742,6.0742,6.0742,6.0762,6.0762,6.08,6.08,6.08,6.0877,6.0916,6.0973,6.0993,6.1285,6.1632,6.219,6.2925,6.3455,6.4193,6.452,6.4462,6.4122,6.3762,6.3397,6.2993,6.2551,6.2108,6.1454,6.0954,6.0819,6.08,6.08,6.0877,6.105,6.1031,6.0819,6.0608,6.0627,6.0531,6.055,6.0646,6.0569,6.0492,6.0334,6.0258,5.9946,5.9682,5.9384,5.9173]},{"header":{"parameterUnit":"m.s-1","parameterCategory":1,"la1":31.0,"la2":29.5877,"lo1":-88.7671,"lo2":-86.6584,"dy":0.0162,"dx":0.0185,"nx":115,"ny":88,"refTime":"2026-05-06T12:00:00:Z","depth":0,"parameterNumber":3,"parameterNumberName":"V-component_of_WINDS"},"data":[0.0,0.0,0.0,0.0,0.0,0.0,0.0,0.0,0.0,0.0,0.0,0.0,0.0,0.0,0.0,0.0,0.0,0.0,0.0,0.0,0.0,0.0,0.0,0.0,0.0,0.0,0.0,0.0,0.0,0.0,0.0,0.0,0.0,0.0,0.0,0.0,0.0,0.0,0.0,0.0,0.0,0.0,0.0,0.0,0.0,0.0,0.0,0.0,0.0,0.0,0.0,0.0,0.0,0.0,0.0,0.0,0.0,0.0,0.0,0.0,0.0,0.0,0.0,0.0,0.0,0.0,0.0,0.0,0.0,0.0,0.0,0.0,0.0,0.0,0.0,0.0,0.0,0.0,0.0,0.0,0.0,0.0,0.0,0.0,0.0,0.0,0.0,0.0,0.0,0.0,0.0,0.0,0.0,0.0,0.0,0.0,0.0,0.0,0.0,0.0,0.0,0.0,0.0,0.0,0.0,0.0,0.0,0.0,0.0,0.0,0.0,0.0,0.0,0.0,0.0,0.0,0.0,0.0,0.0,0.0,0.0,0.0,0.0,0.0,0.0,0.0,0.0,0.0,0.0,0.0,0.0,0.0,0.0,0.0,0.0,0.0,0.0,0.0,0.0,0.0,0.0,0.0,0.0,0.0,0.0,0.0,0.0,0.0,0.0,0.0,0.0,0.0,0.0,0.0,0.0,0.0,0.0,0.0,0.0,0.0,0.0,0.0,0.0,0.0,0.0,0.0,0.0,0.0,0.0,0.0,0.0,0.0,0.0,0.0,0.0,0.0,0.0,0.0,0.0,0.0,0.0,0.0,0.0,0.0,0.0,0.0,0.0,0.0,0.0,0.0,0.0,0.0,0.0,0.0,0.0,0.0,0.0,0.0,0.0,0.0,0.0,0.0,0.0,0.0,0.0,0.0,0.0,0.0,0.0,0.0,0.0,0.0,0.0,0.0,0.0,0.0,0.0,0.0,0.0,0.0,0.0,0.0,0.0,0.0,0.0,0.0,0.0,0.0,0.0,0.0,0.0,0.0,0.0,0.0,0.0,0.0,0.0,0.0,0.0,0.0,0.0,0.0,0.0,0.0,0.0,0.0,0.0,0.0,0.0,0.0,0.0,0.0,0.0,0.0,0.0,0.0,0.0,0.0,0.0,0.0,0.0,0.0,0.0,0.0,0.0,0.0,0.0,0.0,0.0,0.0,0.0,0.0,0.0,0.0,0.0,0.0,0.0,0.0,0.0,0.0,0.0,0.0,0.0,0.0,0.0,0.0,0.0,0.0,0.0,0.0,0.0,0.0,0.0,0.0,0.0,0.0,0.0,0.0,0.0,0.0,0.0,0.0,0.0,0.0,0.0,0.0,0.0,0.0,0.0,0.0,0.0,0.0,0.0,0.0,0.0,0.0,0.0,0.0,0.0,0.0,0.0,0.0,0.0,0.0,0.0,0.0,0.0,0.0,0.0,0.0,0.0,0.0,0.0,0.0,0.0,0.0,0.0,0.0,0.0,0.0,0.0,0.0,0.0,0.0,0.0,0.0,0.0,0.0,0.0,0.0,0.0,0.0,0.0,0.0,0.0,0.0,0.0,0.0,0.0,0.0,0.0,0.0,0.0,0.0,0.0,0.0,0.0,0.0,0.0,0.0,0.0,0.0,0.0,0.0,0.0,0.0,0.0,0.0,0.0,0.0,0.0,0.0,0.0,0.0,0.0,0.0,0.0,0.0,0.0,0.0,0.0,0.0,0.0,0.0,0.0,0.0,0.0,0.0,0.0,0.0,0.0,0.0,0.0,0.0,0.0,0.0,0.0,0.0,0.0,0.0,0.0,0.0,0.0,0.0,0.0,0.0,0.0,0.0,0.0,0.0,0.0,0.0,0.0,0.0,0.0,0.0,0.0,0.0,0.0,0.0,0.0,0.0,0.0,0.0,0.0,0.0,0.0,0.0,0.0,0.0,0.0,0.0,0.0,0.0,0.0,0.0,0.0,0.0,0.0,0.0,0.0,0.0,0.0,0.0,0.0,0.0,0.0,0.0,0.0,0.0,0.0,0.0,0.0,0.0,0.0,0.0,0.0,0.0,0.0,0.0,0.0,0.0,0.0,0.0,0.0,0.0,0.0,0.0,0.0,0.0,0.0,0.0,0.0,0.0,0.0,0.0,0.0,0.0,0.0,0.0,0.0,0.0,0.0,0.0,0.0,0.0,0.0,0.0,0.0,0.0,0.0,0.0,0.0,0.0,0.0,0.0,0.0,0.0,0.0,0.0,0.0,0.0,0.0,0.0,0.0,0.0,0.0,0.0,0.0,0.0,0.0,0.0,0.0,0.0,0.0,0.0,0.0,0.0,0.0,0.0,0.0,0.0,0.0,0.0,0.0,0.0,0.0,0.0,0.0,0.0,0.0,0.0,0.0,0.0,0.0,0.0,0.0,0.0,0.0,0.0,0.0,0.0,0.0,0.0,0.0,0.0,0.0,0.0,0.0,0.0,0.0,0.0,0.0,0.0,0.0,0.0,0.0,0.0,0.0,0.0,0.0,0.0,0.0,0.0,0.0,0.0,0.0,0.0,0.0,0.0,0.0,0.0,0.0,0.0,0.0,0.0,0.0,0.0,0.0,0.0,0.0,0.0,0.0,0.0,0.0,0.0,0.0,0.0,0.0,0.0,0.0,0.0,0.0,0.0,0.0,0.0,0.0,0.0,0.0,0.0,0.0,0.0,0.0,0.0,0.0,0.0,0.0,0.0,0.0,0.0,0.0,0.0,0.0,0.0,0.0,0.0,0.0,0.0,0.0,0.0,0.0,0.0,0.0,0.0,0.0,0.0,0.0,0.0,0.0,0.0,0.0,0.0,0.0,0.0,0.0,0.0,0.0,0.0,0.0,0.0,0.0,0.0,0.0,0.0,0.0,0.0,0.0,0.0,0.0,0.0,0.0,0.0,0.0,0.0,0.0,0.0,0.0,0.0,0.0,0.0,0.0,0.0,0.0,0.0,0.0,0.0,0.0,0.0,0.0,0.0,0.0,0.0,0.0,0.0,0.0,0.0,0.0,0.0,0.0,0.0,0.0,0.0,0.0,0.0,0.0,0.0,0.0,0.0,0.0,0.0,0.0,0.0,0.0,0.0,0.0,0.0,0.0,0.0,0.0,0.0,0.0,0.0,0.0,0.0,0.0,0.0,0.0,0.0,0.0,0.0,0.0,0.0,0.0,0.0,0.0,0.0,0.0,0.0,0.0,0.0,0.0,0.0,0.0,0.0,0.0,0.0,0.0,0.0,0.0,0.0,0.0,0.0,0.0,0.0,0.0,0.0,0.0,0.0,0.0,0.0,0.0,0.0,0.0,0.0,0.0,0.0,0.0,0.0,0.0,0.0,0.0,0.0,0.0,0.0,0.0,0.0,0.0,0.0,0.0,0.0,0.0,0.0,0.0,0.0,0.0,0.0,0.0,0.0,0.0,0.0,0.0,0.0,0.0,0.0,0.0,0.0,0.0,0.0,0.0,0.0,0.0,0.0,0.0,0.0,0.0,0.0,0.0,0.0,0.0,0.0,0.0,0.0,0.0,0.0,0.0,0.0,0.0,0.0,0.0,0.0,0.0,0.0,0.0,0.0,0.0,0.0,0.0,0.0,0.0,0.0,0.0,0.0,0.0,0.0,0.0,0.0,0.0,0.0,0.0,0.0,0.0,0.0,0.0,0.0,0.0,0.0,0.0,0.0,0.0,0.0,0.0,0.0,0.0,0.0,0.0,0.0,0.0,0.0,0.0,0.0,0.0,0.0,0.0,0.0,0.0,0.0,0.0,0.0,0.0,0.0,0.0,0.0,0.0,0.0,0.0,0.0,0.0,0.0,0.0,0.0,0.0,0.0,0.0,0.0,0.0,0.0,0.0,0.0,0.0,0.0,0.0,0.0,0.0,0.0,0.0,0.0,0.0,0.0,0.0,0.0,0.0,0.0,0.0,0.0,0.0,0.0,0.0,0.0,0.0,0.0,0.0,0.0,0.0,0.0,0.0,0.0,0.0,0.0,0.0,0.0,0.0,0.0,0.0,0.0,0.0,0.0,0.0,0.0,0.0,0.0,0.0,0.0,0.0,0.0,0.0,0.0,0.0,0.0,0.0,0.0,0.0,0.0,0.0,0.0,0.0,0.0,0.0,0.0,0.0,0.0,0.0,0.0,0.0,0.0,0.0,0.0,0.0,0.0,0.0,0.0,0.0,0.0,0.0,0.0,0.0,0.0,0.0,0.0,0.0,0.0,0.0,0.0,0.0,0.0,0.0,0.0,-0.6839,0.0,0.0,0.0,0.0,0.0,0.0,0.0,0.0,0.0,0.0,0.0,0.0,0.0,0.0,0.0,0.0,0.0,0.0,0.0,0.0,0.0,0.0,0.0,0.0,0.0,0.0,0.0,0.0,0.0,0.0,0.0,0.0,0.0,0.0,0.0,0.0,0.0,0.0,0.0,0.0,0.0,0.0,0.0,0.0,0.0,0.0,0.0,0.0,0.0,0.0,0.0,0.0,0.0,0.0,0.0,0.0,0.0,0.0,0.0,0.0,0.0,0.0,0.0,0.0,0.0,0.0,0.0,0.0,0.0,0.0,0.0,0.0,0.0,0.0,0.0,0.0,0.0,0.0,0.0,0.0,0.0,0.0,0.0,0.0,0.0,0.0,0.0,0.0,0.0,0.0,0.0,0.0,0.0,0.0,0.0,0.0,0.0,0.0,0.0,0.0,0.0,0.0,0.0,0.0,0.0,0.0,0.0,0.0,0.0,0.0,-0.4747,-0.7192,-0.723,-0.7111,-0.6817,0.0,0.0,0.0,0.0,0.0,0.0,0.0,0.0,0.0,0.0,0.0,0.0,0.0,0.0,0.0,0.0,0.0,0.0,0.0,0.0,0.0,0.0,0.0,0.0,0.0,0.0,0.0,0.0,0.0,0.0,0.0,0.0,0.0,0.0,0.0,0.0,0.0,0.0,0.0,0.0,0.0,0.0,0.0,0.0,0.0,0.0,0.0,0.0,0.0,0.0,0.0,0.0,0.0,0.0,0.0,0.0,0.0,0.0,0.0,0.0,0.0,0.0,0.0,0.0,0.0,0.0,0.0,0.0,0.0,0.0,0.0,0.0,0.0,0.0,0.0,0.0,0.0,0.0,0.0,0.0,0.0,0.0,0.0,0.0,0.0,0.0,0.0,0.0,0.0,0.0,0.0,0.0,0.0,0.0,0.0,0.0,0.0,0.0,0.0,0.0,0.0,0.0,0.0,0.0,0.0,0.0,0.0,0.0,0.0,0.0,0.0,0.0,-0.7296,-0.7182,-0.6858,0.0,0.0,0.0,0.0,0.0,0.0,0.0,0.0,0.0,0.0,0.0,0.0,0.0,0.0,0.0,0.0,0.0,0.0,0.0,0.0,0.0,0.0,0.0,0.0,0.0,0.0,0.0,0.0,0.0,0.0,0.0,0.0,0.0,0.0,0.0,0.0,0.0,0.0,0.0,0.0,0.0,0.0,0.0,0.0,0.0,0.0,0.0,0.0,0.0,0.0,0.0,0.0,0.0,0.0,0.0,0.0,0.0,0.0,0.0,0.0,0.0,0.0,0.0,0.0,0.0,0.0,0.0,0.0,0.0,0.0,0.0,0.0,0.0,0.0,0.0,0.0,0.0,0.0,0.0,0.0,0.0,0.0,0.0,0.0,0.0,0.0,0.0,0.0,0.0,0.0,0.0,0.0,0.0,0.0,0.0,0.0,0.0,0.0,0.0,0.0,0.0,0.0,0.0,0.0,0.0,0.0,0.0,0.0,0.0,0.0,-0.7022,-0.7334,-0.7334,0.0,-0.6975,0.0,0.0,0.0,0.0,0.0,0.0,0.0,0.0,0.0,0.0,0.0,0.0,0.0,0.0,0.0,0.0,0.0,0.0,0.0,0.0,0.0,0.0,0.0,0.0,0.0,0.0,0.0,0.0,0.0,0.0,0.0,0.0,0.0,0.0,0.0,0.0,0.0,0.0,0.0,0.0,0.0,0.0,0.0,0.0,0.0,0.0,0.0,0.0,0.0,0.0,0.0,0.0,0.0,0.0,0.0,0.0,0.0,0.0,0.0,0.0,0.0,0.0,0.0,0.0,0.0,0.0,0.0,0.0,0.0,0.0,0.0,0.0,0.0,0.0,0.0,0.0,0.0,0.0,0.0,0.0,0.0,0.0,0.0,0.0,0.0,0.0,0.0,0.0,0.0,0.0,0.0,0.0,0.0,0.0,0.0,0.0,0.0,0.0,0.0,0.0,0.0,0.0,0.0,0.0,0.0,0.0,0.0,0.0,0.0,0.0,0.0,-0.7339,-0.7203,-0.7048,0.0,0.0,0.0,0.0,0.0,0.0,0.0,0.0,0.0,0.0,0.0,0.0,0.0,0.0,0.0,0.0,0.0,0.0,0.0,0.0,0.0,0.0,0.0,0.0,0.0,0.0,0.0,0.0,0.0,0.0,0.0,0.0,0.0,0.0,0.0,0.0,0.0,0.0,0.0,0.0,0.0,0.0,0.0,0.0,0.0,0.0,0.0,0.0,0.0,0.0,0.0,0.0,0.0,0.0,0.0,0.0,0.0,0.0,0.0,0.0,0.0,0.0,0.0,0.0,0.0,0.0,0.0,0.0,0.0,0.0,0.0,0.0,0.0,0.0,0.0,0.0,0.0,0.0,0.0,0.0,0.0,0.0,0.0,0.0,0.0,0.0,0.0,0.0,0.0,0.0,0.0,0.0,0.0,0.0,0.0,0.0,0.0,0.0,0.0,0.0,0.0,0.0,0.0,0.0,0.0,0.0,0.0,0.0,0.0,0.0,-0.6231,0.0,-0.7369,-0.7157,-0.6978,-0.6855,0.0,0.0,0.0,0.0,0.0,0.0,0.0,0.0,0.0,0.0,0.0,0.0,0.0,0.0,0.0,0.0,0.0,0.0,0.0,0.0,0.0,0.0,0.0,0.0,0.0,0.0,0.0,0.0,0.0,0.0,0.0,0.0,0.0,0.0,0.0,0.0,0.0,0.0,0.0,0.0,0.0,0.0,0.0,0.0,0.0,0.0,0.0,0.0,0.0,0.0,0.0,0.0,0.0,0.0,0.0,0.0,0.0,0.0,0.0,0.0,0.0,0.0,0.0,0.0,0.0,0.0,0.0,0.0,0.0,0.0,0.0,0.0,0.0,0.0,0.0,0.0,0.0,0.0,0.0,0.0,0.0,0.0,0.0,0.0,0.0,0.0,0.0,0.0,0.0,0.0,0.0,0.0,0.0,0.0,0.0,0.0,0.0,0.0,0.0,0.0,0.0,0.0,0.0,0.0,0.0,0.0,0.0,0.0,0.0,-0.6251,-0.753,-0.7491,-0.7274,-0.7095,0.0,0.0,0.0,0.0,0.0,0.0,0.0,0.0,0.0,0.0,0.0,0.0,0.0,0.0,0.0,0.0,0.0,0.0,0.0,0.0,0.0,0.0,0.0,0.0,0.0,0.0,0.0,0.0,0.0,0.0,0.0,0.0,0.0,0.0,0.0,0.0,0.0,0.0,0.0,0.0,0.0,0.0,0.0,0.0,0.0,0.0,0.0,0.0,0.0,0.0,0.0,0.0,0.0,0.0,0.0,0.0,0.0,0.0,0.0,0.0,0.0,0.0,0.0,0.0,0.0,0.0,0.0,0.0,0.0,0.0,0.0,0.0,0.0,0.0,0.0,0.0,0.0,0.0,0.0,0.0,0.0,0.0,0.0,0.0,0.0,0.0,0.0,0.0,0.0,0.0,0.0,0.0,0.0,0.0,0.0,0.0,0.0,0.0,0.0,0.0,0.0,0.0,0.0,0.0,0.0,0.0,0.0,0.0,0.0,-0.387,-0.6068,-0.7331,-0.7282,-0.713,-0.6953,0.0,0.0,0.0,0.0,0.0,0.0,0.0,0.0,0.0,0.0,0.0,0.0,0.0,0.0,0.0,0.0,0.0,0.0,0.0,0.0,0.0,0.0,0.0,0.0,0.0,0.0,0.0,0.0,0.0,0.0,0.0,0.0,0.0,0.0,0.0,0.0,0.0,0.0,0.0,0.0,0.0,0.0,0.0,0.0,0.0,0.0,0.0,0.0,0.0,0.0,0.0,0.0,0.0,0.0,0.0,0.0,0.0,0.0,0.0,0.0,0.0,0.0,0.0,0.0,0.0,0.0,0.0,0.0,0.0,0.0,0.0,0.0,0.0,0.0,0.0,0.0,0.0,0.0,0.0,0.0,0.0,0.0,0.0,0.0,0.0,0.0,0.0,0.0,0.0,0.0,0.0,0.0,0.0,0.0,0.0,0.0,0.0,0.0,0.0,0.0,0.0,0.0,0.0,0.0,0.0,0.0,0.0,0.0,0.0,-0.5004,0.0,-0.7336,0.0,-0.7065,-0.6853,0.0,0.0,0.0,0.0,0.0,0.0,0.0,0.0,0.0,0.0,0.0,0.0,0.0,0.0,0.0,0.0,0.0,0.0,0.0,0.0,0.0,0.0,0.0,0.0,0.0,0.0,0.0,0.0,0.0,0.0,0.0,0.0,0.0,0.0,0.0,0.0,0.0,0.0,0.0,0.0,0.0,0.0,0.0,0.0,0.0,0.0,0.0,0.0,0.0,0.0,0.0,0.0,0.0,0.0,0.0,0.0,0.0,0.0,0.0,0.0,0.0,0.0,0.0,0.0,0.0,0.0,0.0,0.0,0.0,0.0,0.0,0.0,0.0,0.0,0.0,0.0,0.0,0.0,0.0,0.0,0.0,0.0,0.0,0.0,0.0,0.0,0.0,0.0,0.0,0.0,0.0,0.0,0.0,0.0,0.0,0.0,0.0,0.0,0.0,0.0,0.0,0.0,0.0,0.0,0.0,0.0,0.0,0.0,-0.7307,-0.7508,-0.7505,-0.744,-0.7334,-0.7103,-0.6812,0.0,0.0,0.0,0.0,0.0,0.0,0.0,0.0,0.0,0.0,0.0,0.0,0.0,0.0,0.0,0.0,0.0,0.0,0.0,0.0,0.0,0.0,0.0,0.0,0.0,0.0,0.0,0.0,0.0,0.0,0.0,0.0,0.0,0.0,0.0,0.0,0.0,0.0,0.0,0.0,0.0,0.0,0.0,0.0,0.0,0.0,0.0,0.0,0.0,0.0,0.0,0.0,0.0,0.0,0.0,0.0,0.0,0.0,0.0,0.0,0.0,0.0,0.0,0.0,0.0,0.0,0.0,0.0,0.0,0.0,0.0,0.0,0.0,0.0,0.0,0.0,0.0,0.0,0.0,0.0,0.0,0.0,0.0,0.0,0.0,0.0,0.0,0.0,0.0,0.0,0.0,0.0,0.0,0.0,0.0,0.0,0.0,0.0,0.0,0.0,0.0,0.0,0.0,0.0,0.0,0.0,0.0,0.0,0.0,-0.7157,-0.7228,-0.729,-0.7323,-0.7027,-0.6806,0.0,0.0,0.0,0.0,0.0,0.0,0.0,0.0,0.0,0.0,0.0,0.0,0.0,0.0,0.0,0.0,0.0,0.0,0.0,0.0,0.0,0.0,0.0,0.0,0.0,0.0,0.0,0.0,0.0,0.0,0.0,0.0,0.0,0.0,0.0,0.0,0.0,0.0,0.0,0.0,0.0,0.0,0.0,0.0,0.0,0.0,0.0,0.0,0.0,0.0,0.0,0.0,0.0,0.0,0.0,0.0,0.0,0.0,0.0,0.0,0.0,0.0,0.0,0.0,0.0,0.0,0.0,0.0,0.0,0.0,0.0,0.0,0.0,0.0,0.0,0.0,0.0,0.0,0.0,0.0,0.0,0.0,0.0,0.0,0.0,0.0,0.0,0.0,0.0,0.0,0.0,0.0,0.0,0.0,0.0,0.0,0.0,0.0,0.0,0.0,0.0,0.0,0.0,0.0,0.0,0.0,0.0,0.0,0.0,-0.6284,-0.6985,-0.7307,-0.7334,-0.7032,-0.6806,-0.6668,0.0,0.0,0.0,0.0,0.0,0.0,0.0,0.0,0.0,0.0,0.0,0.0,0.0,0.0,0.0,0.0,0.0,0.0,0.0,0.0,0.0,0.0,0.0,0.0,0.0,0.0,0.0,0.0,0.0,0.0,0.0,0.0,0.0,0.0,0.0,0.0,0.0,0.0,0.0,0.0,0.0,0.0,0.0,0.0,0.0,0.0,0.0,0.0,0.0,0.0,0.0,0.0,0.0,0.0,0.0,0.0,0.0,0.0,0.0,0.0,0.0,0.0,0.0,0.0,0.0,0.0,0.0,0.0,0.0,0.0,0.0,0.0,0.0,0.0,0.0,0.0,0.0,0.0,0.0,0.0,0.0,0.0,0.0,0.0,0.0,0.0,0.0,0.0,0.0,0.0,0.0,0.0,0.0,0.0,0.0,0.0,0.0,0.0,0.0,0.0,0.0,0.0,0.0,0.0,0.0,0.0,0.0,0.0,-0.4925,-0.6717,-0.7481,-0.735,-0.7111,-0.682,0.0,0.0,0.0,0.0,0.0,0.0,0.0,0.0,0.0,0.0,0.0,0.0,0.0,0.0,0.0,0.0,0.0,0.0,0.0,0.0,0.0,0.0,0.0,0.0,0.0,0.0,0.0,0.0,0.0,0.0,0.0,0.0,0.0,0.0,0.0,0.0,0.0,0.0,0.0,0.0,0.0,0.0,0.0,0.0,0.0,0.0,0.0,0.0,0.0,0.0,0.0,0.0,0.0,0.0,0.0,0.0,0.0,0.0,0.0,0.0,0.0,0.0,0.0,0.0,0.0,0.0,0.0,0.0,0.0,0.0,0.0,0.0,0.0,0.0,0.0,0.0,0.0,0.0,0.0,0.0,0.0,0.0,0.0,0.0,0.0,0.0,0.0,0.0,0.0,0.0,0.0,0.0,0.0,0.0,0.0,0.0,0.0,0.0,0.0,0.0,0.0,0.0,0.0,0.0,0.0,0.0,0.0,0.0,0.0,-0.6616,-0.7421,-0.7724,-0.7467,-0.7157,-0.694,0.0,0.0,0.0,0.0,0.0,0.0,0.0,0.0,0.0,0.0,0.0,0.0,0.0,0.0,0.0,0.0,0.0,0.0,0.0,0.0,0.0,0.0,0.0,0.0,0.0,0.0,0.0,0.0,0.0,0.0,0.0,0.0,0.0,0.0,0.0,0.0,0.0,0.0,0.0,0.0,0.0,0.0,0.0,0.0,0.0,0.0,0.0,0.0,0.0,0.0,0.0,0.0,0.0,0.0,0.0,0.0,0.0,0.0,0.0,0.0,0.0,0.0,0.0,0.0,0.0,0.0,0.0,0.0,0.0,0.0,0.0,0.0,0.0,0.0,0.0,0.0,0.0,0.0,0.0,0.0,0.0,0.0,0.0,0.0,0.0,0.0,0.0,0.0,0.0,0.0,0.0,0.0,0.0,0.0,0.0,0.0,0.0,0.0,0.0,0.0,0.0,0.0,0.0,0.0,0.0,0.0,0.0,0.0,-0.6293,-0.7306,-0.7562,-0.7622,-0.7595,-0.7347,-0.7138,0.0,0.0,0.0,0.0,0.0,0.0,0.0,0.0,0.0,0.0,0.0,0.0,0.0,0.0,0.0,0.0,0.0,0.0,0.0,0.0,0.0,0.0,0.0,0.0,0.0,0.0,0.0,0.0,0.0,0.0,0.0,0.0,0.0,0.0,0.0,0.0,0.0,0.0,0.0,0.0,0.0,0.0,0.0,0.0,0.0,0.0,0.0,0.0,0.0,0.0,0.0,0.0,0.0,0.0,0.0,0.0,0.0,0.0,0.0,0.0,0.0,0.0,0.0,0.0,0.0,0.0,0.0,0.0,0.0,0.0,0.0,0.0,0.0,0.0,0.0,0.0,0.0,0.0,0.0,0.0,0.0,0.0,0.0,0.0,0.0,0.0,0.0,0.0,0.0,0.0,0.0,0.0,0.0,0.0,0.0,0.0,0.0,0.0,0.0,0.0,0.0,0.0,0.0,0.0,0.0,0.0,0.0,0.0,-0.7201,-0.7644,-0.7535,-0.7595,-0.7587,-0.7578,-0.7223,0.0,0.0,0.0,0.0,0.0,0.0,0.0,0.0,0.0,0.0,0.0,0.0,0.0,0.0,0.0,0.0,0.0,0.0,0.0,0.0,0.0,0.0,0.0,0.0,0.0,0.0,0.0,0.0,0.0,0.0,0.0,0.0,0.0,0.0,0.0,0.0,0.0,0.0,0.0,0.0,0.0,0.0,0.0,0.0,0.0,0.0,0.0,0.0,0.0,0.0,0.0,0.0,0.0,0.0,0.0,0.0,0.0,0.0,0.0,0.0,0.0,0.0,0.0,0.0,0.0,0.0,0.0,0.0,0.0,0.0,0.0,0.0,0.0,0.0,0.0,0.0,0.0,0.0,0.0,0.0,0.0,0.0,0.0,0.0,0.0,0.0,0.0,0.0,0.0,0.0,0.0,0.0,0.0,0.0,0.0,0.0,0.0,0.0,0.0,0.0,0.0,0.0,0.0,0.0,0.0,0.0,0.0,0.0,-0.7448,-0.7532,-0.7619,-0.7717,-0.7828,-0.7535,-0.7252,0.0,0.0,0.0,0.0,0.0,0.0,0.0,0.0,0.0,0.0,0.0,0.0,0.0,0.0,0.0,0.0,0.0,0.0,0.0,0.0,0.0,0.0,0.0,0.0,0.0,0.0,0.0,0.0,0.0,0.0,0.0,0.0,0.0,0.0,0.0,0.0,0.0,0.0,0.0,0.0,0.0,0.0,0.0,0.0,0.0,0.0,0.0,0.0,-1.5173,0.0,0.0,0.0,0.0,0.0,0.0,0.0,0.0,0.0,0.0,0.0,0.0,0.0,0.0,0.0,0.0,0.0,0.0,0.0,0.0,0.0,0.0,0.0,0.0,0.0,0.0,0.0,0.0,0.0,0.0,0.0,0.0,0.0,0.0,0.0,0.0,0.0,0.0,0.0,0.0,0.0,0.0,0.0,0.0,0.0,0.0,0.0,0.0,0.0,0.0,0.0,0.0,0.0,0.0,0.0,0.0,0.0,0.0,0.0,-0.7326,-0.7437,-0.75,-0.7614,-0.7648,-0.7494,-0.7249,0.0,0.0,0.0,0.0,0.0,0.0,0.0,0.0,0.0,0.0,0.0,0.0,0.0,0.0,0.0,0.0,0.0,0.0,0.0,0.0,0.0,0.0,0.0,0.0,0.0,0.0,0.0,0.0,0.0,0.0,0.0,0.0,0.0,0.0,0.0,0.0,0.0,0.0,0.0,0.0,0.0,0.0,0.0,0.0,0.0,0.0,0.0,0.0,0.0,0.0,0.0,0.0,0.0,0.0,0.0,0.0,0.0,0.0,0.0,0.0,0.0,0.0,0.0,0.0,0.0,0.0,0.0,0.0,0.0,0.0,0.0,0.0,0.0,0.0,0.0,0.0,0.0,0.0,0.0,0.0,0.0,0.0,0.0,0.0,0.0,0.0,0.0,0.0,0.0,0.0,0.0,0.0,0.0,0.0,0.0,0.0,0.0,0.0,0.0,0.0,0.0,0.0,0.0,0.0,0.0,0.0,0.0,-0.6953,-0.7119,-0.7323,-0.7334,-0.7327,-0.7538,-0.7319,-0.7134,-0.6793,0.0,0.0,0.0,0.0,0.0,0.0,0.0,0.0,0.0,0.0,0.0,0.0,0.0,0.0,0.0,0.0,0.0,0.0,0.0,0.0,0.0,0.0,0.0,0.0,0.0,0.0,0.0,0.0,0.0,0.0,0.0,0.0,0.0,0.0,0.0,0.0,0.0,0.0,-1.5758,-1.5827,0.0,0.0,0.0,0.0,0.0,0.0,0.0,0.0,-1.5108,0.0,0.0,0.0,0.0,0.0,0.0,0.0,0.0,0.0,0.0,0.0,0.0,0.0,0.0,0.0,0.0,0.0,0.0,0.0,0.0,0.0,0.0,0.0,0.0,0.0,0.0,0.0,0.0,0.0,0.0,0.0,0.0,0.0,0.0,0.0,0.0,0.0,0.0,0.0,0.0,0.0,0.0,0.0,0.0,0.0,0.0,0.0,0.0,0.0,0.0,0.0,0.0,0.0,0.0,0.0,0.0,-0.6856,-0.7089,-0.7211,-0.7331,-0.7334,-0.7402,-0.7535,-0.7312,-0.713,-0.6793,0.0,0.0,0.0,0.0,0.0,0.0,0.0,0.0,0.0,0.0,0.0,0.0,0.0,0.0,0.0,0.0,0.0,0.0,0.0,0.0,0.0,0.0,0.0,0.0,0.0,0.0,0.0,0.0,0.0,0.0,0.0,0.0,0.0,0.0,0.0,0.0,0.0,0.0,0.0,-1.6641,-1.6765,0.0,0.0,0.0,0.0,0.0,0.0,0.0,0.0,-1.4465,0.0,0.0,0.0,0.0,0.0,0.0,0.0,0.0,0.0,0.0,0.0,0.0,0.0,0.0,0.0,0.0,0.0,0.0,0.0,0.0,0.0,0.0,0.0,0.0,0.0,0.0,0.0,0.0,0.0,0.0,0.0,0.0,0.0,0.0,0.0,0.0,0.0,0.0,0.0,0.0,0.0,0.0,0.0,0.0,0.0,0.0,0.0,0.0,0.0,0.0,0.0,0.0,0.0,0.0,0.0,-0.5171,-0.6416,-0.7206,-0.7252,-0.7247,-0.7298,-0.7297,-0.719,-0.7037,0.0,0.0,0.0,0.0,0.0,0.0,0.0,0.0,0.0,0.0,0.0,0.0,0.0,0.0,0.0,0.0,0.0,0.0,0.0,0.0,0.0,0.0,0.0,0.0,0.0,0.0,0.0,0.0,0.0,0.0,0.0,0.0,0.0,0.0,0.0,0.0,0.0,0.0,0.0,0.0,-1.6829,-1.7095,-1.5822,0.0,0.0,0.0,0.0,0.0,0.0,-1.4484,-1.4606,0.0,0.0,0.0,0.0,0.0,0.0,0.0,0.0,0.0,0.0,0.0,0.0,0.0,0.0,0.0,0.0,0.0,0.0,0.0,0.0,0.0,0.0,0.0,0.0,0.0,0.0,0.0,0.0,0.0,0.0,0.0,0.0,0.0,0.0,0.0,0.0,0.0,0.0,0.0,0.0,0.0,0.0,0.0,0.0,0.0,0.0,0.0,0.0,0.0,0.0,0.0,0.0,0.0,0.0,0.0,-0.3401,-0.5374,-0.6705,-0.7179,-0.7165,-0.7201,-0.7177,-0.7116,-0.6888,0.0,0.0,0.0,0.0,0.0,0.0,0.0,0.0,0.0,0.0,0.0,0.0,0.0,0.0,0.0,0.0,0.0,0.0,0.0,0.0,0.0,0.0,0.0,0.0,0.0,0.0,0.0,0.0,0.0,0.0,0.0,0.0,0.0,0.0,0.0,0.0,0.0,0.0,0.0,0.0,0.0,-1.6942,-1.5925,-1.527,0.0,0.0,0.0,0.0,-1.4129,-1.4621,0.0,0.0,0.0,0.0,0.0,0.0,0.0,0.0,0.0,0.0,0.0,0.0,0.0,0.0,0.0,0.0,0.0,0.0,0.0,0.0,0.0,0.0,0.0,0.0,0.0,0.0,0.0,0.0,0.0,0.0,0.0,0.0,0.0,0.0,0.0,0.0,0.0,0.0,0.0,0.0,0.0,0.0,0.0,0.0,0.0,0.0,0.0,0.0,0.0,0.0,0.0,0.0,0.0,0.0,0.0,0.0,-0.3186,-0.379,-0.5072,-0.7062,-0.7163,-0.716,-0.7176,-0.7146,-0.6923,0.0,0.0,0.0,0.0,0.0,0.0,0.0,0.0,0.0,0.0,0.0,0.0,0.0,0.0,0.0,0.0,0.0,0.0,0.0,0.0,0.0,0.0,0.0,0.0,0.0,0.0,0.0,0.0,0.0,0.0,0.0,0.0,0.0,0.0,0.0,0.0,0.0,0.0,0.0,0.0,0.0,-1.6442,-1.5638,-1.5463,-1.5234,0.0,0.0,-1.4419,-1.4896,-1.4634,0.0,0.0,0.0,0.0,0.0,0.0,0.0,0.0,0.0,0.0,0.0,0.0,0.0,0.0,0.0,0.0,0.0,0.0,0.0,0.0,0.0,0.0,0.0,0.0,0.0,0.0,0.0,0.0,0.0,0.0,0.0,0.0,0.0,0.0,0.0,0.0,0.0,0.0,0.0,0.0,0.0,0.0,0.0,0.0,0.0,0.0,0.0,0.0,0.0,0.0,0.0,0.0,0.0,0.0,0.0,-0.3854,-0.1469,-0.1521,-0.3333,-0.7073,-0.7179,-0.7165,-0.7154,-0.7092,-0.6835,0.0,0.0,0.0,0.0,0.0,0.0,0.0,0.0,0.0,0.0,0.0,0.0,0.0,0.0,0.0,0.0,0.0,0.0,0.0,0.0,0.0,0.0,0.0,0.0,0.0,0.0,0.0,0.0,0.0,0.0,0.0,0.0,0.0,0.0,0.0,0.0,0.0,0.0,0.0,0.0,0.0,0.0,-1.5541,-1.5372,0.0,0.0,0.0,-1.4666,-1.5052,0.0,0.0,0.0,0.0,0.0,0.0,0.0,0.0,0.0,0.0,0.0,0.0,0.0,0.0,0.0,0.0,0.0,0.0,0.0,0.0,0.0,0.0,0.0,0.0,0.0,0.0,0.0,0.0,0.0,0.0,0.0,0.0,0.0,0.0,0.0,0.0,0.0,0.0,0.0,0.0,0.0,0.0,0.0,0.0,0.0,0.0,0.0,0.0,0.0,0.0,0.0,0.0,0.0,0.0,0.0,0.0,0.0,0.0,0.0,-0.2014,-0.6172,-0.6956,-0.7173,-0.7152,-0.7043,0.0,0.0,0.0,0.0,0.0,0.0,0.0,0.0,0.0,0.0,0.0,0.0,0.0,0.0,0.0,0.0,0.0,0.0,0.0,0.0,0.0,0.0,0.0,0.0,0.0,0.0,0.0,-0.645,0.0,0.0,0.0,0.0,0.0,0.0,0.0,0.0,0.0,0.0,0.0,0.0,0.0,0.0,-1.5222,-1.5499,-1.539,-1.5378,0.0,0.0,-1.5004,-1.5264,-1.5645,-1.5752,0.0,0.0,0.0,0.0,0.0,0.0,0.0,0.0,0.0,0.0,0.0,0.0,0.0,0.0,0.0,0.0,0.0,0.0,0.0,0.0,0.0,0.0,0.0,0.0,0.0,0.0,0.0,0.0,0.0,0.0,0.0,0.0,0.0,0.0,0.0,0.0,0.0,0.0,0.0,0.0,0.0,0.0,0.0,0.0,0.0,0.0,0.0,0.0,0.0,0.0,0.0,0.0,0.0,0.0,0.0,0.0,0.0,-0.123,-0.3805,-0.6051,-0.7173,-0.7154,-0.7046,-0.6869,0.0,0.0,0.0,0.0,0.0,0.0,0.0,0.0,0.0,0.0,0.0,0.0,0.0,0.0,0.0,0.0,0.0,0.0,0.0,0.0,0.0,0.0,0.0,0.0,0.0,0.0,0.0,0.0,0.0,0.0,0.0,0.0,0.0,0.0,0.0,0.0,0.0,0.0,0.0,0.0,0.0,-1.5188,-1.5425,-1.5692,-1.5837,0.0,0.0,-1.5541,-1.5795,-1.5837,-1.594,-1.5875,0.0,0.0,0.0,0.0,0.0,0.0,0.0,0.0,0.0,0.0,0.0,0.0,0.0,0.0,0.0,0.0,0.0,0.0,0.0,0.0,0.0,0.0,0.0,0.0,0.0,0.0,0.0,0.0,0.0,0.0,0.0,0.0,0.0,0.0,0.0,0.0,0.0,0.0,0.0,0.0,0.0,0.0,0.0,0.0,0.0,0.0,0.0,0.0,0.0,0.0,0.0,0.0,0.0,-0.1615,0.0,0.0,-0.1219,-0.3579,-0.5944,-0.7182,-0.7154,-0.7046,-0.6728,0.0,0.0,0.0,0.0,0.0,0.0,0.0,0.0,0.0,0.0,0.0,0.0,0.0,0.0,0.0,0.0,0.0,0.0,0.0,0.0,0.0,0.0,0.0,0.0,0.0,0.0,0.0,0.0,-0.7082,-0.7232,-0.7842,0.0,0.0,0.0,0.0,0.0,0.0,0.0,0.0,0.0,0.0,-1.5542,-1.5487,-1.5584,0.0,0.0,-1.5668,-1.559,-1.5849,-1.587,-1.5915,-1.5889,-1.4329,0.0,0.0,0.0,0.0,0.0,0.0,0.0,0.0,0.0,0.0,0.0,0.0,0.0,0.0,0.0,0.0,0.0,0.0,0.0,0.0,0.0,0.0,0.0,0.0,0.0,0.0,0.0,0.0,0.0,0.0,0.0,0.0,0.0,0.0,0.0,0.0,0.0,0.0,0.0,0.0,0.0,0.0,0.0,0.0,0.0,0.0,0.0,0.0,0.0,0.0,0.0,0.0,0.0,0.0,0.0,-0.1213,-0.3579,-0.5949,-0.7165,-0.7105,-0.6991,-0.6669,0.0,0.0,0.0,0.0,0.0,0.0,0.0,0.0,0.0,0.0,0.0,0.0,0.0,0.0,0.0,0.0,0.0,0.0,0.0,0.0,0.0,0.0,0.0,0.0,0.0,0.0,0.0,0.0,-0.812,-0.8097,-0.8452,0.0,0.0,0.0,0.0,0.0,0.0,0.0,0.0,0.0,0.0,-1.5881,-1.5688,-1.5547,-1.559,-1.5855,-1.5602,-1.5475,-1.5734,-1.5854,-1.5847,-1.572,0.0,0.0,0.0,0.0,0.0,0.0,0.0,0.0,0.0,0.0,0.0,0.0,0.0,0.0,0.0,0.0,0.0,0.0,0.0,0.0,0.0,0.0,0.0,0.0,0.0,0.0,0.0,0.0,0.0,0.0,-0.6187,0.0,0.0,0.0,0.0,0.0,0.0,0.0,0.0,0.0,0.0,0.0,0.0,0.0,0.0,0.0,0.0,0.0,0.0,0.0,0.0,0.0,0.0,0.0,0.0,0.0,-0.1212,-0.3578,-0.5949,-0.713,-0.6997,-0.6872,-0.669,-0.6437,0.0,0.0,0.0,0.0,0.0,0.0,0.0,0.0,0.0,0.0,0.0,0.0,0.0,0.0,0.0,0.0,0.0,0.0,0.0,0.0,0.0,0.0,0.0,0.0,0.0,0.0,-1.0083,-1.006,-0.941,0.0,0.0,0.0,0.0,0.0,0.0,0.0,0.0,0.0,0.0,-1.5605,-1.5928,-1.5837,-1.5662,-1.5602,-1.5861,-1.5469,-1.5228,-1.5505,-1.5744,-1.5669,0.0,0.0,0.0,0.0,0.0,0.0,0.0,0.0,0.0,0.0,0.0,0.0,0.0,0.0,0.0,0.0,0.0,0.0,0.0,0.0,0.0,0.0,0.0,0.0,0.0,0.0,0.0,-0.1403,-0.3864,0.0,0.0,0.0,0.0,0.0,0.0,0.0,0.0,0.0,0.0,0.0,-0.6089,-0.617,0.0,0.0,0.0,0.0,0.0,0.0,0.0,0.0,0.0,0.0,0.0,0.0,0.0,0.0,0.0,-0.1199,-0.3578,-0.5949,-0.7127,-0.6989,-0.6864,-0.6613,-0.6214,0.0,0.0,0.0,0.0,0.0,0.0,0.0,0.0,0.0,0.0,0.0,0.0,0.0,0.0,0.0,0.0,0.0,0.0,0.0,0.0,0.0,0.0,0.0,0.0,0.0,-1.1215,0.0,0.0,0.0,0.0,0.0,0.0,0.0,0.0,0.0,0.0,0.0,-1.4262,-1.5436,-1.5752,-1.5921,-1.5949,-1.5813,-1.5849,0.0,0.0,0.0,0.0,0.0,0.0,0.0,0.0,0.0,0.0,0.0,0.0,0.0,0.0,-1.6746,-1.5391,-1.5302,-1.5873,-1.7217,0.0,0.0,0.0,0.0,0.0,0.0,0.0,0.0,0.0,0.0,0.0,0.0,0.0,0.0,-0.1211,0.0,-0.5014,0.0,0.0,0.0,0.0,0.0,0.0,0.0,0.0,-0.6295,-0.6312,-0.6274,-0.6352,-0.635,0.0,-0.6099,-0.6116,0.0,0.0,0.0,0.0,0.0,0.0,0.0,0.0,0.0,0.0,0.0,-0.1199,-0.3576,-0.5949,-0.7108,-0.6926,-0.676,-0.6507,-0.6162,-0.6092,-0.6292,0.0,0.0,0.0,0.0,0.0,0.0,0.0,0.0,0.0,0.0,0.0,0.0,0.0,0.0,0.0,0.0,0.0,0.0,0.0,0.0,0.0,0.0,0.0,-1.2449,0.0,0.0,0.0,0.0,0.0,0.0,0.0,0.0,0.0,-0.9979,-1.1759,-1.3394,-1.4389,-1.5348,-1.5848,-1.5861,0.0,0.0,0.0,0.0,0.0,0.0,0.0,-1.5356,-1.5376,-1.5608,-1.5919,-1.5934,-1.6517,-1.6944,-1.6846,0.0,0.0,-1.6703,-1.664,-1.7268,-1.8613,-1.8481,-1.8707,-2.0797,-2.1679,-2.2049,0.0,0.0,0.0,0.0,0.0,0.0,0.0,0.0,0.0,-0.1614,0.0,-0.5356,0.0,0.0,0.0,0.0,0.0,-0.6168,0.0,0.0,-0.6668,-0.673,-0.6616,-0.6605,-0.6608,-0.6597,-0.638,-0.6276,-0.6168,-0.5769,0.0,0.0,0.0,0.0,0.0,0.0,0.0,0.0,0.0,-0.1322,-0.3579,-0.5949,-0.707,-0.6812,-0.6567,-0.6388,-0.6282,-0.6452,-0.6438,-0.6288,-0.7941,0.0,0.0,0.0,0.0,0.0,0.0,0.0,0.0,0.0,0.0,0.0,0.0,0.0,0.0,0.0,0.0,0.0,0.0,0.0,0.0,-1.2706,0.0,0.0,0.0,0.0,0.0,0.0,0.0,0.0,0.0,0.0,-1.0021,-1.059,-1.1038,-1.1914,0.0,0.0,0.0,0.0,-1.5608,-1.5873,-1.5481,-1.5342,-1.5855,-1.5933,-1.5608,-1.4579,0.0,0.0,-1.602,-1.6682,-1.7154,-1.7001,-1.7804,-1.8527,-1.8471,-1.8858,-1.9382,-1.9775,-1.9979,-2.0539,-2.1523,-2.1637,-2.1544,0.1011,0.0,0.0,0.0,0.0,0.0193,-0.0888,-0.2366,-0.3864,-0.4951,-0.5448,-0.5924,0.0,0.0,0.0,0.0,0.0,0.0,-0.6611,-0.6562,-0.6551,-0.657,-0.6613,-0.6529,-0.6497,-0.6404,-0.6448,-0.6176,-0.5804,-0.457,-0.4565,-0.5619,0.0,0.0,0.0,0.0,0.0,0.0,-0.3399,-0.4684,-0.3578,-0.5942,-0.7065,-0.6809,-0.6564,-0.642,-0.6388,-0.641,-0.6669,-0.714,-0.8023,0.0,0.0,0.0,0.0,0.0,0.0,0.0,0.0,0.0,0.0,0.0,0.0,0.0,0.0,0.0,0.0,0.0,0.0,0.0,-1.3194,-1.2927,-1.219,0.0,0.0,0.0,0.0,0.0,0.0,0.0,0.0,0.0,-0.8383,-0.9979,-1.1166,0.0,0.0,-1.5828,-1.5626,-1.571,-1.5867,-1.6127,-1.6042,0.0,-1.641,-1.68,-1.6813,-1.6127,-1.6006,-1.626,-1.7508,-1.7914,-1.8178,-1.8712,-1.9605,-2.012,-1.9882,-1.9687,-1.9811,-2.0421,-2.0647,-2.0805,-2.1296,-2.1477,-2.1458,0.1444,0.1102,0.0784,0.078,0.1079,0.0775,-0.0298,-0.2073,-0.3975,-0.5406,-0.619,-0.5585,-0.5676,-0.633,-0.6132,0.0,0.0,0.0,-0.6671,-0.6545,-0.6521,-0.6551,-0.6611,-0.6543,-0.6516,-0.642,-0.6339,-0.5787,-0.4668,-0.4309,-0.3953,-0.3413,0.0,0.0,0.0,0.0,-0.0997,-0.2908,-0.576,-0.6433,-0.5099,-0.6391,-0.6959,-0.6806,-0.6611,-0.651,-0.651,-0.6491,-0.6716,-0.7164,-0.8296,-0.9042,0.0,0.0,0.0,0.0,0.0,0.0,0.0,0.0,0.0,0.0,0.0,-1.1642,-1.154,0.0,0.0,0.0,-1.2512,-1.2845,-1.3174,-1.2865,0.0,0.0,0.0,0.0,0.0,0.0,0.0,-0.7794,-0.7702,-0.7664,-0.7664,-0.9022,-1.0954,-1.2998,-1.4594,-1.5641,-1.5668,0.0,-1.5946,-1.6103,-1.6127,-1.6217,-1.6483,-1.6773,-1.6775,-1.6451,-1.6681,-1.7171,-1.811,-1.8492,-1.8868,-1.936,-1.9984,-2.0432,-2.0226,-1.9961,-1.9891,-2.0403,-2.0712,-2.094,-2.1007,-2.0728,-2.0531,0.1686,0.1759,0.1668,0.155,0.1575,0.1575,0.1004,-0.0103,-0.1629,-0.3708,-0.5936,-0.4404,-0.474,-0.645,-0.6219,0.0,-0.6298,-0.6597,-0.6665,-0.6469,-0.6573,-0.6619,-0.6619,-0.6608,-0.6605,-0.66,-0.6294,-0.5156,-0.3317,-0.488,-0.3774,0.0,0.0,0.0,0.0,0.0,-0.2242,-0.681,-0.6904,-0.7013,-0.7242,-0.6998,-0.6817,-0.6815,-0.6698,-0.6635,-0.6635,-0.6744,-0.6747,-0.6722,-0.8656,-0.9571,-0.9281,0.0,0.0,0.0,0.0,0.0,0.0,0.0,0.0,0.0,0.0,0.0,0.0,0.0,0.0,0.0,-1.2508,0.0,-1.2723,-1.2766,0.0,0.0,0.0,-1.0825,-0.8689,-0.8873,-0.8711,-0.7708,0.0,0.0,-0.763,-0.8089,-1.0205,-1.4873,-1.537,-1.538,-1.5755,-1.5867,-1.5885,-1.5861,-1.5855,-1.5934,-1.6097,-1.6059,-1.6031,-1.5968,-1.7173,-1.803,-1.8492,-1.864,-1.8992,-1.9295,-1.962,-1.9908,-1.9884,-1.9876,-1.982,-1.9789,-2.0362,-2.0807,-2.058,-1.9742,-1.9248,0.1668,0.1658,0.1614,0.1599,0.1606,0.1606,0.0907,-0.0304,-0.1112,-0.2128,-0.3368,-0.2932,-0.3524,-0.5033,-0.5882,-0.642,-0.6535,-0.6535,-0.66,-0.6709,-0.6649,-0.6619,-0.6616,-0.6524,-0.648,-0.6478,-0.6348,-0.5227,-0.3324,-0.4916,-0.3804,0.0,0.0,0.0,0.0,0.0,-0.1519,-0.4462,-0.4486,-0.5312,-0.7114,-0.7002,-0.694,-0.6942,-0.6823,-0.676,-0.6757,-0.6787,-0.7061,-0.7545,-0.8471,-0.928,-0.9942,-1.0575,0.0,0.0,0.0,0.0,0.0,0.0,0.0,0.0,0.0,-1.2023,-1.1564,0.0,-1.2312,0.0,-1.2523,-1.2685,-1.2711,-1.3057,0.0,0.0,-1.2892,-1.193,-0.9321,-0.9758,-0.9588,-0.7938,-0.779,-0.7815,-0.787,-0.8049,-0.9135,-1.1983,-1.4316,-1.5731,-1.5602,-1.5771,-1.5813,-1.5644,-1.5602,-1.5547,-1.5439,-1.5682,-1.584,-1.5903,-1.5981,-1.6651,-1.917,-1.8818,-1.8651,-1.9776,-2.0229,-2.017,-1.9892,-1.9669,-1.9391,-1.9185,-1.959,-2.016,-2.0055,-1.9423,-1.8997,0.1642,0.1641,0.1624,0.1617,0.1617,0.1617,0.1212,0.0504,0.0202,-0.0605,-0.1713,-0.282,-0.3827,-0.4933,-0.5937,-0.6478,-0.6535,-0.6433,-0.6471,-0.6632,-0.657,-0.6537,-0.6535,-0.6467,-0.6437,-0.6437,-0.6364,-0.5256,-0.3325,-0.3132,-0.2123,0.0,0.0,0.0,0.0,0.0,-0.1228,-0.359,-0.4706,-0.5886,-0.7141,-0.7046,-0.6959,-0.6907,-0.6891,-0.6834,-0.6728,-0.6825,-0.7194,-0.7961,-0.8862,-0.982,-1.0745,-1.1949,-1.2097,0.0,0.0,0.0,0.0,0.0,0.0,0.0,0.0,0.0,0.0,0.0,-1.2266,-1.211,-1.2454,-1.2655,-1.2674,-1.3206,-1.3524,-1.3489,-1.3197,-1.2003,-0.9571,-0.9832,-0.954,-0.8098,-0.7913,-0.7875,-0.8036,-0.7979,-0.8814,-1.095,-1.2962,-1.4355,-1.4746,-1.5399,-1.5837,-1.5692,-1.5572,-1.5409,-1.5143,-1.5297,-1.5466,-1.5342,-1.5921,-1.7171,-1.8628,-1.8971,-1.9328,-1.9988,-2.0043,-1.9828,-1.9479,-1.9272,-1.9098,-1.9137,-1.9241,-1.9423,-1.9483,-1.9512,-1.9584,0.1617,0.1617,0.1617,0.1617,0.1617,0.1617,0.1617,0.1617,0.1617,0.0606,-0.1212,-0.3328,-0.4736,-0.5436,-0.6145,-0.6442,-0.6437,-0.6437,-0.6437,-0.6437,-0.6437,-0.6437,-0.6437,-0.6437,-0.6437,-0.6437,-0.6364,-0.5256,-0.3124,-0.1009,0.0,0.0,0.0,0.0,0.0,0.0,-0.1151,-0.3561,-0.5934,-0.7172,-0.7152,-0.7043,-0.694,-0.6855,-0.6937,-0.6888,-0.6681,-0.6872,-0.7452,-0.8279,-0.9549,-1.0665,-1.1667,-1.3195,-1.3542,0.0,-1.1723,0.0,0.0,0.0,0.0,0.0,0.0,0.0,0.0,-1.2373,-1.2253,-1.2026,-1.2458,-1.2785,-1.2898,-1.3344,-1.3689,-1.3848,-1.2983,-1.1662,-0.9853,-0.9608,-0.9217,-0.8137,-0.8024,-0.8014,-0.8038,-0.795,-0.8765,-1.0751,-1.1295,-1.2157,-1.3487,-1.4941,-1.5873,-1.5855,-1.5584,-1.5246,-1.5016,-1.4944,-1.4998,-1.5197,-1.7082,-1.8557,-1.8224,-1.9269,-2.0198,-2.0003,-1.9669,-1.9312,-1.8947,-1.8812,-1.8804,-1.9228,-1.9076,-1.8859,-1.8995,-1.9381,-1.9901,0.1617,0.1617,0.1617,0.1617,0.1617,0.1617,0.1617,0.1617,0.1617,0.0101,-0.2423,-0.3726,-0.4529,-0.473,-0.5837,-0.6437,-0.6437,-0.6437,-0.6437,-0.6437,-0.6437,-0.6437,-0.6437,-0.6437,-0.6437,-0.6439,-0.6361,-0.5253,-0.3124,-0.1009,0.0,0.0,0.0,0.0,0.0,0.0,0.0,0.0,-0.578,-0.6947,-0.7146,-0.7043,-0.7018,-0.7081,-0.7018,0.0,-0.6921,-0.6961,-0.7602,-0.8751,-0.9548,0.0,0.0,0.0,0.0,0.0,0.0,0.0,0.0,0.0,0.0,0.0,-1.2487,-1.2487,-1.2343,-1.2717,-1.2797,-1.2551,-1.3015,-1.3562,-1.3919,-1.4111,-1.4149,-1.4167,-1.321,-1.218,-1.1021,-1.0173,-0.9217,-0.8134,-0.7933,-0.7902,-0.8007,-0.7986,-0.8762,-1.064,-1.0002,-1.0133,-1.2151,-1.4417,-1.5795,-1.5596,-1.5228,-1.4799,-1.4491,-1.4451,-1.5314,-1.7337,-1.9242,-2.0225,-2.021,-1.9712,-1.9799,-2.0166,-1.9789,-1.9368,-1.9248,-1.8589,-1.8266,-1.8806,-1.8877,-1.8774,-1.8811,-1.8616,-1.8546,0.1617,0.0,0.1617,0.1617,0.0,0.1617,0.1414,0.101,0.101,-0.0403,-0.2822,-0.4029,-0.4732,-0.5031,-0.5429,-0.5932,-0.6437,-0.6437,-0.6437,-0.6437,-0.6437,-0.6437,-0.6437,-0.6437,-0.6437,-0.6439,-0.6366,-0.5253,-0.3124,-0.1009,0.0,0.0,0.0,0.0,0.0,0.0,-0.1208,-0.3536,-0.587,-0.7119,-0.7152,-0.7097,-0.7067,-0.707,0.0,0.0,0.0,0.0,0.0,0.0,0.0,0.0,0.0,0.0,0.0,-1.421,-1.4027,-1.3567,-1.2741,-1.2711,-1.2711,-1.2717,-1.2958,-1.3049,-1.2916,-1.3157,-1.3231,-1.3078,-1.3303,-1.3761,-1.4204,-1.4333,-1.4313,-1.4319,-1.3831,-1.2926,-1.1463,-1.0685,-0.9801,-0.8329,-0.7974,-0.7858,-0.7822,-0.794,-0.8412,-0.9363,-0.8873,-0.9214,-1.1578,-1.3752,-1.5151,-1.5437,-1.5306,-1.5065,-1.4819,-1.4507,-1.4868,-1.7054,-1.9294,-2.068,-2.0891,-2.0413,-2.0194,-2.0308,-1.9955,-1.9534,-1.9129,-1.851,-1.8089,-1.8232,-1.8287,-1.8112,-1.7856,-1.783,-1.8152,0.1617,0.1617,0.1617,0.1617,0.1617,0.1617,0.1111,0.0202,0.0,0.0,0.0,-0.4431,-0.5236,-0.5732,-0.5229,-0.5527,-0.6437,-0.6437,-0.6437,-0.6437,-0.6437,-0.6437,-0.6437,-0.6437,-0.6437,-0.6437,-0.6364,-0.5256,-0.3124,-0.1012,0.0,0.0,0.0,0.0,0.0,-0.0875,-0.1994,-0.3594,-0.594,-0.7163,-0.7154,-0.7135,-0.7092,-0.7018,-0.7086,-0.7035,-0.6844,-0.7144,-0.8082,-0.997,-1.0362,-1.1551,-1.362,-1.3673,-1.3856,-1.4268,-1.4358,-1.3914,-1.3094,-1.3338,-1.3447,-1.3266,-1.3459,-1.358,-1.3586,-1.3586,-1.3591,-1.3637,-1.3667,-1.3856,-1.4274,-1.4298,-1.4298,-1.4298,-1.41,-1.321,-1.1512,-1.096,-1.0083,-0.8396,-0.7987,-0.7912,-0.7723,-0.7773,-0.7967,-0.8035,-0.814,-0.9078,-1.1548,-1.3604,-1.4944,-1.5338,-1.5445,-1.5451,-1.5305,-1.5045,-1.4977,-1.594,-1.8762,-2.0773,-2.0877,-2.0885,-2.071,-2.044,-2.0027,-1.9431,-1.8851,-1.8351,-1.8009,-1.766,-1.7588,-1.7407,-1.6908,-1.7204,-1.7858,0.1617,0.1617,0.1617,0.1617,0.1617,0.1617,0.0808,-0.0706,-0.1813,-0.3324,-0.5039,-0.5338,-0.5837,-0.6334,-0.6234,-0.6234,-0.6437,-0.6437,-0.6437,-0.6437,-0.6437,-0.6437,-0.6437,-0.6437,-0.6437,-0.6439,-0.6366,-0.5253,-0.313,-0.1025,0.0,0.0,0.0,0.0,0.0,-0.4053,-0.5306,-0.3661,-0.6021,-0.7188,-0.7149,-0.7059,-0.7051,-0.7122,-0.7051,-0.6997,-0.6961,-0.7723,-0.8649,-0.9847,-1.1092,-1.2339,-1.3516,-1.3945,-1.4256,-1.428,-1.4358,-1.4204,-1.405,-1.3738,-1.3598,-1.3773,-1.3827,-1.3851,-1.3851,-1.3851,-1.396,-1.4112,-1.413,-1.425,-1.4298,-1.4298,-1.4298,-1.4298,-1.3511,-1.2362,-1.124,-1.0391,-0.9457,-0.8073,-0.7845,-0.7909,-0.7905,-0.7828,-0.7805,-0.7942,-0.8235,-0.935,-1.1847,-1.4212,-1.5453,-1.5572,-1.5499,-1.5403,-1.5348,-1.5482,-1.5701,-1.584,-1.8575,-2.0578,-2.0877,-2.0656,-2.0403,-2.0408,-1.9685,-1.8955,-1.8462,-1.7842,-1.7437,-1.7088,-1.6925,-1.6846,-1.6739,-1.6938,-1.7126,0.1617,0.1617,0.1617,0.1626,0.1539,0.0717,-0.0102,-0.0908,-0.242,-0.3629,-0.4638,-0.5336,-0.5734,-0.5937,-0.6234,-0.6437,-0.6437,-0.6437,-0.6437,-0.6437,-0.6437,-0.6437,-0.6437,-0.6437,-0.6442,-0.645,-0.6369,-0.5866,-0.4758,-0.1645,0.0,0.0,0.0,0.0,0.0,-0.4739,-0.6669,-0.5566,-0.6604,-0.7238,-0.7168,-0.7111,-0.7103,-0.7154,-0.71,-0.7076,-0.7078,-0.8269,-0.9308,-1.0223,-1.1732,-1.292,-1.3858,-1.4202,-1.4298,-1.4292,-1.4291,-1.427,-1.4322,-1.3902,-1.3839,-1.4093,-1.4117,-1.4117,-1.4123,-1.4117,-1.4171,-1.4286,-1.4298,-1.4298,-1.4298,-1.4298,-1.4298,-1.4298,-1.3806,-1.2882,-1.1443,-1.0812,-0.9763,-0.8238,-0.7936,-0.796,-0.8031,-0.7875,-0.7851,-0.8055,-0.8279,-0.9482,-1.188,-1.3756,-1.5209,-1.5629,-1.5716,-1.5734,-1.5722,-1.5831,-1.5998,-1.6262,-1.7377,-1.8865,-2.0254,-2.0303,-1.9938,-2.0253,-1.9685,-1.897,-1.8422,-1.7906,-1.736,-1.6828,-1.6727,-1.6781,-1.7154,-1.7336,-1.7478,0.1617,0.1617,0.1617,0.1635,0.1559,0.0104,-0.0619,-0.0913,-0.2335,-0.3241,-0.3934,-0.4834,-0.5334,-0.5634,-0.6037,-0.6334,-0.6437,-0.6437,-0.6437,-0.6437,-0.6437,-0.6437,-0.6437,-0.6437,-0.6448,-0.6361,-0.5962,-0.5871,-0.5891,-0.2067,0.0,0.0,0.0,0.0,0.0,-0.4275,-0.6656,-0.7134,-0.7203,-0.7176,-0.7182,-0.7165,-0.7154,-0.7154,-0.7154,-0.7154,-0.7265,-0.8796,-0.9954,-1.0672,-1.2299,-1.3534,-1.4244,-1.4298,-1.4298,-1.4298,-1.4298,-1.4315,-1.4327,-1.4042,-1.402,-1.4268,-1.4238,-1.4238,-1.4292,-1.4298,-1.4298,-1.4298,-1.4298,-1.4298,-1.4298,-1.4298,-1.4298,-1.4298,-1.4298,-1.338,-1.1497,-1.1142,-1.0347,-0.8357,-0.7994,-0.8028,-0.8004,-0.8021,-0.8069,-0.8163,-0.8443,-0.9591,-1.1815,-1.3194,-1.4256,-1.5458,-1.5885,-1.5934,-1.6157,-1.6036,-1.6115,-1.6457,-1.6282,-1.7171,-1.8855,-1.9104,-1.9343,-1.9729,-1.9684,-1.9105,-1.8454,-1.8089,-1.7565,-1.6955,-1.6877,-1.7243,-1.7857,-1.7922,-1.8209,0.1617,0.1617,0.1617,0.1635,0.1664,0.0738,-0.0105,-0.0828,-0.1758,-0.2561,-0.334,-0.3932,-0.4736,-0.5536,-0.5636,-0.5934,-0.6437,-0.6437,-0.6437,-0.6437,-0.6437,-0.6437,-0.6437,-0.6437,-0.6448,-0.6158,-0.4537,-0.4547,-0.5696,-0.1989,0.0,0.0,0.0,0.0,0.0,-0.2708,-0.5087,-0.7146,-0.7233,-0.7165,-0.7182,-0.7163,-0.7154,-0.7154,-0.7154,-0.7154,-0.7265,-0.9354,-1.0609,-1.0893,-1.2812,-1.4136,-1.4274,-1.4298,-1.4298,-1.4298,-1.4292,-1.4286,-1.4238,-1.4039,-1.4002,-1.4244,-1.4069,-1.4051,-1.4256,-1.4292,-1.4298,-1.4298,-1.4298,-1.4298,-1.4298,-1.4298,-1.4298,-1.4292,-1.428,-1.3425,-1.1542,-1.1153,-1.0263,-0.7949,-0.7896,-0.7994,-0.7993,-0.797,-0.815,-0.837,-0.8533,-0.9448,-1.1661,-1.2488,-1.3506,-1.5238,-1.5891,-1.5891,-1.5934,-1.5928,-1.5934,-1.6028,-1.5956,-1.6343,-1.7023,-1.8114,-1.9089,-1.9026,-1.926,-1.9129,-1.8573,-1.8247,-1.7895,-1.7216,-1.7321,-1.7866,-1.8447,-1.8459,-1.8629,0.1617,0.1617,0.1617,0.1635,0.1665,0.0846,0.0318,-0.0105,-0.1475,-0.2203,-0.2603,-0.3298,-0.4177,-0.5138,-0.5434,-0.5937,-0.6337,-0.6437,-0.6437,-0.6437,-0.6437,-0.6437,-0.6437,-0.6437,-0.6448,-0.6266,-0.4234,-0.2941,-0.2373,0.0,0.0,0.0,0.0,0.0,0.0,-0.4093,-0.6502,-0.7182,-0.7279,-0.7247,-0.7192,-0.7168,-0.7154,-0.7154,-0.7154,-0.7154,-0.7368,-0.9374,-1.0601,-1.0763,-1.2801,-1.4097,-1.4316,-1.4298,-1.4298,-1.4292,-1.404,-1.3796,-1.3845,-1.3731,-1.3719,-1.3833,-1.3882,-1.3954,-1.4057,-1.4201,-1.4298,-1.4298,-1.4298,-1.4298,-1.4298,-1.4298,-1.4298,-1.428,-1.4159,-1.3311,-1.1342,-1.1005,-1.0145,-0.8129,-0.7906,-0.7984,-0.7986,-0.8024,-0.8245,-0.8567,-0.8728,-0.9525,-1.1185,-1.1978,-1.3073,-1.4487,-1.5458,-1.5813,-1.5722,-1.5801,-1.5913,-1.5846,-1.5877,-1.5925,-1.6156,-1.7261,-1.8354,-1.854,-1.9051,-1.9075,-1.8438,-1.8319,-1.8119,-1.7598,-1.7874,-1.8497,-1.8725,-1.8723,-1.8961,0.1617,0.1618,0.1625,0.1647,0.1675,0.1172,0.0751,0.0322,-0.0858,-0.1494,-0.1795,-0.2608,-0.3387,-0.4237,-0.5033,-0.5734,-0.6337,-0.6437,-0.6437,-0.6437,-0.6437,-0.6437,-0.6437,-0.6437,-0.645,-0.607,-0.4261,-0.2057,0.0,0.0,0.0,0.0,0.0,0.0,0.0,-0.4005,-0.631,-0.7288,-0.6984,-0.684,-0.7094,-0.7168,-0.7154,-0.7154,-0.7154,-0.7154,-0.726,-0.9092,-1.031,-1.075,-1.2506,-1.3785,-1.4226,-1.4298,-1.4268,-1.4279,-1.3631,-1.3314,-1.3423,-1.3447,-1.3441,-1.3519,-1.3694,-1.3833,-1.3936,-1.4147,-1.4292,-1.4298,-1.4298,-1.4298,-1.4298,-1.4298,-1.4298,-1.4286,-1.4111,-1.3233,-1.1521,-1.1028,-1.0149,-0.8169,-0.7909,-0.8004,-0.8045,-0.8026,-0.8163,-0.8797,-0.8873,-0.9341,-1.0534,-1.1651,-1.2856,-1.4056,-1.5137,-1.5713,-1.565,-1.5635,-1.5765,-1.5846,-1.5907,-1.5855,-1.6007,-1.7023,-1.7886,-1.8168,-1.8837,-1.9264,-1.8955,-1.8708,-1.853,-1.8308,-1.8402,-1.8867,-1.914,-1.9015,-1.9068,0.1617,0.1621,0.1648,0.1675,0.1705,0.1734,0.131,0.0545,0.0327,-0.0107,-0.0939,-0.1764,-0.236,-0.3025,-0.4232,-0.5436,-0.6337,-0.6437,-0.6437,-0.6437,-0.6437,-0.6437,-0.6437,-0.6437,-0.645,-0.6282,-0.4515,-0.2209,0.0,0.0,0.0,0.0,0.0,0.0,0.0,0.0,-0.2874,-0.657,-0.5866,-0.5698,-0.6982,-0.7168,-0.7154,-0.7154,-0.7154,-0.7154,-0.7362,-0.8553,-0.9682,-1.0651,-1.1986,-1.3172,-1.4136,-1.4298,-1.4297,-1.4154,-1.3285,-1.2922,-1.3164,-1.3183,-1.3254,-1.3465,-1.3556,-1.3652,-1.3894,-1.4147,-1.4292,-1.4298,-1.4304,-1.431,-1.4304,-1.4268,-1.4274,-1.4292,-1.4256,-1.3239,-1.1458,-1.1109,-1.0101,-0.8207,-0.7862,-0.8007,-0.8031,-0.7971,-0.833,-0.8758,-0.8963,-0.9251,-1.0335,-1.1546,-1.2743,-1.3835,-1.4922,-1.5885,-1.5861,-1.563,-1.5524,-1.5683,-1.5771,-1.5885,-1.6199,-1.6573,-1.7244,-1.7921,-1.8657,-1.9178,-1.9286,-1.9383,-1.9154,-1.8934,-1.8737,-1.8917,-1.9507,-1.9111,-1.9087,0.1628,0.1647,0.1658,0.1689,0.1733,0.1745,0.164,0.1312,0.0656,0.0216,-0.0106,-0.0938,-0.1858,-0.2868,-0.3641,-0.4931,-0.6345,-0.6439,-0.6437,-0.6437,-0.6437,-0.6437,-0.6437,-0.6448,-0.6361,-0.629,-0.5567,-0.3384,0.0,0.0,0.0,0.0,0.0,0.0,0.0,0.0,-0.1056,0.0,-0.4054,-0.5637,-0.7102,-0.7168,-0.7154,-0.7154,-0.7154,-0.7154,-0.7154,-0.8125,-0.9257,-1.0647,-1.1586,-1.2777,-1.4136,-1.4298,-1.4105,-1.3805,-1.3071,-1.2771,-1.2873,-1.2991,-1.3163,-1.3272,-1.3586,-1.3791,-1.3924,-1.4141,-1.4298,-1.4304,-1.4346,-1.4274,-1.4232,-1.3981,-1.3909,-1.4201,-1.3863,-1.2955,-1.1591,-1.0857,-0.9914,-0.8218,-0.7744,-0.7851,-0.7961,-0.804,-0.819,-0.8735,-0.892,-0.9133,-0.9588,-1.0566,-1.176,-1.2856,-1.4051,-1.5137,-1.5885,-1.5767,-1.563,-1.5523,-1.5605,-1.5837,-1.6099,-1.6617,-1.7219,-1.7874,-1.8622,-1.9205,-1.947,-1.9495,-1.9454,-1.9137,-1.8871,-1.9075,-1.9795,-1.9579,-1.9469,0.1643,0.1662,0.1672,0.1704,0.1748,0.175,0.175,0.175,0.1093,0.0863,0.0634,-0.0104,-0.1033,-0.1949,-0.2835,-0.423,-0.5847,-0.6242,-0.6437,-0.6437,-0.6437,-0.6439,-0.6448,-0.6456,-0.6372,-0.6101,-0.4876,-0.2775,0.0,0.0,0.0,0.0,0.0,0.0,0.0,0.0,0.0,0.0,-0.2237,-0.4556,-0.6868,-0.7249,-0.722,-0.7206,-0.7176,-0.7154,-0.7149,-0.7586,-0.8728,-1.0443,-1.1078,-1.2282,-1.4033,-1.4315,-1.4178,-1.3787,-1.3403,-1.3248,-1.3197,-1.3391,-1.3471,-1.3405,-1.3761,-1.4008,-1.3942,-1.4141,-1.4172,-1.3919,-1.4171,-1.4116,-1.3232,-1.231,-1.2331,-1.3599,-1.3728,-1.2864,-1.1477,-1.0934,-0.9819,-0.8348,-0.7693,-0.771,-0.8018,-0.8219,-0.8474,-0.8814,-0.8955,-0.893,-0.9047,-0.9915,-1.1109,-1.22,-1.3511,-1.4702,-1.5565,-1.5879,-1.5773,-1.5677,-1.5635,-1.5843,-1.5992,-1.6511,-1.7095,-1.7853,-1.8563,-1.9295,-1.9651,-1.9636,-1.9447,-1.9176,-1.9051,-1.9107,-1.9678,-2.0126,-2.0014,0.1663,0.1566,0.1692,0.1723,0.1752,0.1755,0.1751,0.1747,0.1746,0.1607,0.1352,0.0725,0.0308,-0.0203,-0.1716,-0.3432,-0.4645,-0.5651,-0.6247,-0.6342,-0.6439,-0.6453,-0.638,-0.6385,-0.6004,-0.5625,-0.21,0.0,0.0,0.0,0.0,0.0,0.0,0.0,0.0,0.0,0.0,0.0,0.0,0.0,-0.6727,-0.7203,-0.7241,-0.7201,-0.7222,-0.7165,-0.7154,-0.716,-0.822,-1.036,-1.0684,-1.1781,-1.3925,-1.4313,-1.4334,-1.4258,-1.4278,-1.4272,-1.4305,-1.4266,-1.4105,-1.3954,-1.4141,-1.4201,-1.4039,-1.4159,-1.3902,-1.3227,-1.3471,-1.3402,-1.1439,-0.9686,-0.9827,-1.2785,-1.3475,-1.2857,-1.1623,-1.1068,-1.0382,-0.8418,-0.7822,-0.7795,-0.8071,-0.8404,-0.8797,-0.8862,-0.8961,-0.8937,-0.8937,-0.9805,-1.1004,-1.22,-1.3181,-1.4159,-1.5131,-1.5885,-1.5885,-1.5873,-1.5855,-1.5885,-1.5885,-1.6305,-1.6836,-1.7546,-1.8587,-1.9331,-2.0163,-2.017,-1.9852,-1.9532,-1.9382,-1.9255,-1.9974,-2.0565,-2.0532,0.1703,0.1722,0.1731,0.1753,0.178,0.1781,0.1759,0.172,0.1718,0.1685,0.1536,0.1324,0.0913,0.0303,-0.0706,-0.1613,-0.2625,-0.3977,-0.5205,-0.6274,-0.6364,-0.6409,-0.6379,-0.6398,-0.4804,-0.2239,-0.0756,0.0,0.0,0.0,0.0,0.0,0.0,0.0,0.0,0.0,0.0,0.0,0.0,0.0,-0.4901,-0.6667,-0.7405,-0.7236,-0.7296,-0.7241,-0.716,-0.7119,-0.8339,-1.0835,-1.0759,-1.1827,-1.3796,-1.4321,-1.4358,-1.4272,-1.4339,-1.4691,-1.5252,-1.4904,-1.4491,-1.4298,-1.4437,-1.4431,-1.422,-1.4148,-1.3709,-1.2727,-1.2462,-1.179,-1.1002,-0.9233,-0.9295,-1.1658,-1.1697,-1.1387,-1.0347,-0.9505,-0.8726,-0.8251,-0.7925,-0.8044,-0.8297,-0.8721,-0.8865,-0.8951,-0.8906,-0.8937,-0.9047,-0.9265,-1.0351,-1.1987,-1.2856,-1.3856,-1.5189,-1.5976,-1.5875,-1.5863,-1.5952,-1.5891,-1.5885,-1.5992,-1.663,-1.747,-1.8415,-1.9428,-2.0279,-2.0559,-2.0186,-1.9756,-1.9481,-1.9878,-2.067,-2.0818,-2.0777,0.1732,0.175,0.1762,0.1777,0.1794,0.1795,0.1767,0.1723,0.1709,0.1677,0.1639,0.1622,0.1313,0.0808,0.0505,0.0101,-0.0612,-0.2373,-0.4453,-0.5994,-0.546,-0.5604,-0.5882,-0.462,-0.2873,0.0,0.0,0.0,0.0,0.0,0.0,0.0,0.0,0.0,0.0,0.0,0.0,0.0,0.0,-0.0858,-0.281,-0.5845,-0.7549,-0.7327,-0.7361,-0.7274,-0.7168,-0.7154,-0.8404,-1.0711,-1.1784,-1.3079,-1.4317,-1.438,-1.4328,-1.4321,-1.4552,-1.5035,-1.573,-1.537,-1.5034,-1.4835,-1.4419,-1.4336,-1.4199,-1.3893,-1.2732,-1.2145,-1.1585,-1.0923,-0.9937,-0.8916,-0.8696,-0.9792,-1.0587,-1.0341,-0.9674,-0.8627,-0.8175,-0.8032,-0.8047,-0.819,-0.8441,-0.8703,-0.8934,-0.892,-0.8937,-0.8937,-0.8937,-0.8937,-1.0245,-1.1551,-1.2417,-1.3764,-1.5593,-1.5953,-1.5868,-1.5851,-1.5935,-1.5952,-1.5885,-1.5891,-1.6318,-1.7364,-1.8415,-1.9257,-2.012,-2.0381,-2.0289,-1.9906,-1.9706,-2.0122,-2.0692,-2.0893,-2.0877,0.1752,0.1756,0.1782,0.1793,0.1795,0.1795,0.1776,0.1746,0.1717,0.1687,0.1658,0.1629,0.1617,0.1516,0.1418,0.133,0.114,-0.094,-0.3692,-0.5227,-0.4914,-0.4598,-0.4815,-0.2143,0.0,0.0,0.0,0.0,0.0,0.0,0.0,0.0,0.0,0.0,0.0,0.0,0.0,0.0,0.0,0.0,0.0,-0.4857,-0.7551,-0.7423,-0.7415,-0.7296,-0.7176,-0.7465,-0.86,-1.1031,-1.3278,-1.4497,-1.4761,-1.454,-1.4383,-1.4437,-1.485,-1.5239,-1.5702,-1.5816,-1.5656,-1.5287,-1.4333,-1.3768,-1.4097,-1.266,-1.1468,-1.1175,-1.1124,-1.0353,-0.8744,-0.8035,-0.8134,-0.8233,-0.9559,-1.0062,-0.9505,-0.8542,-0.8227,-0.8248,-0.8176,-0.8107,-0.8461,-0.8712,-0.8906,-0.8933,-0.8937,-0.8937,-0.8937,-0.9154,-1.0025,-1.1013,-1.201,-1.352,-1.5264,-1.6192,-1.6216,-1.6222,-1.6168,-1.6163,-1.5982,-1.594,-1.6205,-1.7252,-1.8094,-1.9049,-1.9834,-2.0038,-2.0435,-2.0543,-2.0403,-2.044,-2.0527,-2.0828,-2.0883,0.1783,0.1784,0.1791,0.1795,0.1795,0.1795,0.1778,0.1747,0.1717,0.1688,0.166,0.163,0.1618,0.162,0.1641,0.1656,0.1254,0.0426,-0.2486,-0.5796,-0.5971,-0.3847,-0.2078,0.0,0.0,0.0,0.0,0.0,0.0,0.0,0.0,0.0,0.0,0.0,0.0,0.0,0.0,0.0,0.0,0.0,0.0,-0.317,-0.583,-0.7447,-0.7494,-0.7366,-0.7393,-0.8368,-0.9593,-1.1031,-1.2995,-1.4453,-1.4916,-1.4904,-1.4838,-1.4867,-1.4669,-1.5,-1.5743,-1.5884,-1.5747,-1.5413,-1.4235,-1.3549,-1.3408,-1.2082,-1.0895,-1.04,-1.0636,-1.0255,-0.8542,-0.8038,-0.8038,-0.8038,-0.8733,-0.8931,-0.8549,-0.8341,-0.8231,-0.8286,-0.8384,-0.8421,-0.8514,-0.8726,-0.8933,-0.8937,-0.8937,-0.895,-0.896,-0.9075,-0.9743,-1.0851,-1.1867,-1.3292,-1.4635,-1.5806,-1.6468,-1.661,-1.6679,-1.671,-1.6363,-1.5935,-1.638,-1.714,-1.7463,-1.8311,-1.9153,-1.9789,-2.0287,-2.064,-2.0844,-2.0694,-2.075,-2.0885,-2.0877,0.1795,0.1795,0.1795,0.1795,0.1795,0.1795,0.1785,0.1763,0.1722,0.1696,0.1673,0.1635,0.1624,0.1637,0.1654,0.1677,0.1595,0.13,-0.0658,-0.3104,-0.3463,-0.223,0.0,0.0,0.0,0.0,0.0,0.0,0.0,0.0,0.0,0.0,0.0,0.0,0.0,0.0,0.0,0.0,0.0,0.0,0.0,-0.2562,-0.515,-0.7135,-0.7633,-0.7481,-0.7483,-0.8263,-0.9479,-1.1074,-1.2825,-1.4216,-1.5059,-1.5336,-1.5445,-1.5395,-1.5104,-1.5281,-1.5688,-1.5864,-1.5813,-1.5334,-1.4047,-1.3286,-1.2754,-1.1425,-0.961,-0.9821,-0.9838,-0.9244,-0.834,-0.8038,-0.8038,-0.8045,-0.8096,-0.8106,-0.8052,-0.817,-0.8286,-0.8391,-0.8448,-0.852,-0.8675,-0.8779,-0.8927,-0.8937,-0.8937,-0.8977,-0.9022,-0.9022,-0.9384,-1.0544,-1.1505,-1.2744,-1.4472,-1.5892,-1.6822,-1.696,-1.6982,-1.7016,-1.6642,-1.6138,-1.6306,-1.675,-1.7,-1.7463,-1.8304,-1.916,-1.9776,-2.0166,-2.0514,-2.0838,-2.0751,-2.0506,-2.0609,0.1795,0.1795,0.1795,0.1795,0.1795,0.1795,0.1793,0.1783,0.1735,0.1711,0.1698,0.165,0.1647,0.1667,0.1678,0.1701,0.1637,0.1644,0.0885,0.0,0.0,0.0,0.0,0.0,0.0,0.0,0.0,0.0,0.0,0.0,0.0,0.0,0.0,0.0,0.0,0.0,0.0,0.0,0.0,0.0,0.0,-0.2958,-0.5189,-0.7398,-0.7701,-0.7559,-0.7508,-0.7864,-0.8856,-1.0856,-1.2639,-1.4014,-1.4926,-1.5626,-1.5823,-1.5809,-1.5805,-1.5753,-1.594,-1.5858,-1.5785,-1.5275,-1.3477,-1.2455,-1.224,-1.0293,-0.8802,-0.9287,-0.8546,-0.824,-0.8045,-0.7952,-0.7982,-0.8102,-0.8197,-0.8191,-0.815,-0.8221,-0.8364,-0.8492,-0.8531,-0.8679,-0.8776,-0.895,-0.8964,-0.9018,-0.9018,-0.8953,-0.911,-0.912,-0.9532,-1.0315,-1.1306,-1.2094,-1.3963,-1.5876,-1.6797,-1.7328,-1.7317,-1.7297,-1.6815,-1.6444,-1.6338,-1.6386,-1.6574,-1.6909,-1.7457,-1.8213,-1.8974,-1.9509,-1.9813,-2.0274,-2.0519,-2.0117,-1.9879,0.1795,0.1795,0.1795,0.1795,0.1795,0.1795,0.1795,0.1791,0.1756,0.1737,0.1731,0.17,0.1688,0.1697,0.1716,0.174,0.1754,0.1662,0.1119,0.0,0.0,0.0,0.0,0.0,0.0,0.0,0.0,0.0,0.0,0.0,0.0,0.0,0.0,0.0,0.0,0.0,0.0,0.0,0.0,0.0,-0.2586,-0.3478,-0.5208,-0.7544,-0.7701,-0.7559,-0.7575,-0.7748,-0.8608,-0.9941,-1.1331,-1.3031,-1.4752,-1.5285,-1.5517,-1.5732,-1.5897,-1.5895,-1.5959,-1.5883,-1.5577,-1.4702,-1.3331,-1.1875,-1.0983,-0.9561,-0.8487,-0.8498,-0.8216,-0.7975,-0.8082,-0.8056,-0.8099,-0.8231,-0.8265,-0.8319,-0.8387,-0.8516,-0.8601,-0.8665,-0.8777,-0.8789,-0.8937,-0.893,-0.896,-0.9212,-0.9137,-0.9064,-0.9211,-0.9242,-0.968,-1.0266,-1.0805,-1.1577,-1.3044,-1.5184,-1.695,-1.7491,-1.7517,-1.7444,-1.7074,-1.6576,-1.6404,-1.6121,-1.5949,-1.6349,-1.6922,-1.7358,-1.801,-1.8555,-1.8995,-1.933,-1.9427,-1.9272,-1.925,0.1795,0.1795,0.1795,0.1795,0.1795,0.1795,0.1795,0.1789,0.1763,0.175,0.1743,0.1717,0.1712,0.1726,0.1742,0.1755,0.1772,0.1786,0.1121,0.0,0.0,0.0,0.0,0.0,0.0,0.0,0.0,0.0,0.0,0.0,0.0,0.0,0.0,0.0,0.0,0.0,0.0,0.0,0.0,-0.1304,-0.3522,-0.4006,-0.5201,-0.7311,-0.7755,-0.7665,-0.7592,-0.773,-0.8455,-0.9507,-1.0349,-1.1764,-1.4007,-1.508,-1.5481,-1.5512,-1.581,-1.6016,-1.6141,-1.6107,-1.5856,-1.5081,-1.3449,-1.2214,-1.095,-0.9594,-0.8512,-0.8309,-0.8153,-0.8044,-0.8357,-0.8303,-0.836,-0.8384,-0.8435,-0.8509,-0.8584,-0.8665,-0.8713,-0.874,-0.8835,-0.8906,-0.8866,-0.8864,-0.9147,-0.9387,-0.9495,-0.9432,-0.9425,-0.9459,-0.9513,-0.9958,-1.0256,-1.114,-1.2354,-1.445,-1.7056,-1.7433,-1.7491,-1.7443,-1.7328,-1.6869,-1.6392,-1.6187,-1.6024,-1.5949,-1.6399,-1.6829,-1.7047,-1.7272,-1.7707,-1.8135,-1.822,-1.783,-1.8157,0.1808,0.1808,0.1808,0.1808,0.1808,0.1811,0.1808,0.1799,0.1775,0.1767,0.1753,0.1728,0.1739,0.1753,0.1757,0.1774,0.1788,0.1457,0.0785,0.0,0.0,0.0,0.0,0.0,0.0,0.0,0.0,0.0,0.0,0.0,0.0,0.0,0.0,0.0,0.0,0.0,0.0,0.0,0.0,-0.1319,-0.3426,-0.4031,-0.5324,-0.7419,-0.7853,-0.7801,-0.7733,-0.7898,-0.8245,-0.9384,-0.9418,-1.0663,-1.2417,-1.4442,-1.5584,-1.5088,-1.5623,-1.5773,-1.5855,-1.6035,-1.6029,-1.5713,-1.378,-1.2154,-1.125,-0.9869,-0.8892,-0.8377,-0.8324,-0.8367,-0.8811,-0.872,-0.8513,-0.8537,-0.8638,-0.871,-0.874,-0.8743,-0.876,-0.8777,-0.8866,-0.8937,-0.8913,-0.8897,-0.9288,-0.9585,-0.9704,-0.9817,-0.9689,-0.9625,-0.9649,-0.9693,-1.0105,-1.0974,-1.2192,-1.2124,-1.4842,-1.7085,-1.7168,-1.7503,-1.7461,-1.7086,-1.6658,-1.6477,-1.6302,-1.6168,-1.6086,-1.6411,-1.6518,-1.6205,-1.6524,-1.7173,-1.7009,-1.6504,-1.7075,0.1871,0.187,0.187,0.187,0.187,0.187,0.1854,0.1834,0.1826,0.181,0.1789,0.1782,0.178,0.1787,0.1787,0.1791,0.1572,0.101,0.0786,0.0902,0.0,0.0,0.0,0.0,0.0,0.0,0.0,0.0,0.0,0.0,0.0,0.0,0.0,0.0,0.0,0.0,0.0,0.0,0.0,0.0,-0.2925,-0.4305,-0.5336,-0.7667,-0.7883,-0.7856,-0.7944,-0.7987,-0.8257,-0.8762,-0.8787,-0.9579,-1.1025,-1.3138,-1.4259,-1.486,-1.5075,-1.4942,-1.4589,-1.5464,-1.4404,-1.2826,-1.2233,-1.147,-1.0112,-0.9117,-0.8703,-0.8665,-0.8511,-0.8511,-0.8825,-0.8824,-0.8776,-0.8682,-0.8703,-0.8767,-0.8855,-0.8879,-0.8886,-0.8903,-0.8944,-0.8876,-0.897,-0.898,-0.9334,-0.9648,-0.9749,-0.9846,-0.9703,-0.9707,-0.968,-0.9737,-0.9805,-1.0906,-1.213,-1.1299,-1.223,-1.558,-1.6672,-1.7497,-1.7412,-1.7225,-1.6966,-1.6676,-1.635,-1.6024,-1.6022,-1.6211,-1.6099,-1.6099,-1.6211,-1.6424,-1.628,-1.6137,-1.615,0.1885,0.1885,0.1885,0.1885,0.1885,0.1885,0.1877,0.1865,0.1864,0.1855,0.184,0.1827,0.1819,0.1814,0.18,0.1802,0.1473,0.0562,0.0453,0.0688,0.0,0.0,0.0,0.0,0.0,0.0,0.0,0.0,0.0,0.0,0.0,0.0,0.0,0.0,0.0,0.0,0.0,0.0,0.0,0.0,0.0,-0.4053,-0.6753,-0.7393,-0.7905,-0.7875,-0.7861,-0.795,-0.8233,-0.8515,-0.8642,-0.9198,-0.9979,-1.0895,-1.2146,-1.2979,-1.3052,-1.3146,-1.3245,-1.42,-1.3749,-1.2575,-1.2086,-1.1363,-1.0143,-0.9364,-0.8835,-0.8808,-0.8625,-0.8608,-0.8838,-0.8893,-0.8818,-0.8828,-0.8825,-0.8859,-0.8916,-0.8937,-0.8981,-0.9035,-0.9079,-0.9,-0.8924,-0.9066,-0.9365,-0.9598,-0.9792,-0.9741,-0.9815,-0.9781,-0.9727,-0.9764,-0.9819,-1.0308,-1.1273,-1.0714,-1.1148,-1.4227,-1.6442,-1.7144,-1.7418,-1.7261,-1.7014,-1.673,-1.6386,-1.6097,-1.5922,-1.5992,-1.5992,-1.5885,-1.5992,-1.6105,-1.5992,-1.5885,-1.5916,0.1904,0.1904,0.1904,0.1904,0.1904,0.1904,0.202,0.1896,0.1895,0.1889,0.1882,0.1862,0.185,0.1844,0.1831,0.1827,0.1731,0.057,0.0,0.0,0.0,0.0,0.0,0.0,0.0,0.0,0.0,0.0,0.0,0.0,0.0,0.0,0.0,0.0,0.0,0.0,0.0,0.0,0.0,0.0,0.0,-0.4432,-0.7417,-0.7825,-0.7945,-0.7872,-0.7869,-0.7861,-0.8181,-0.8477,-0.865,-0.8825,-0.9208,-0.9069,-0.9749,-1.0675,-1.0201,-1.087,-1.1779,-1.3213,-1.3175,-1.1996,-1.1548,-1.0964,-1.0401,-0.9518,-0.8964,-0.8927,-0.8739,-0.8692,-0.8876,-0.8927,-0.8927,-0.8927,-0.8927,-0.895,-0.8984,-0.9022,-0.9086,-0.914,-0.9198,-0.9269,-0.9099,-0.9152,-0.9453,-0.9673,-0.9747,-0.9761,-0.9819,-0.9819,-0.9791,-0.9798,-0.9819,-0.9819,-1.0165,-1.024,-1.1555,-1.4401,-1.6228,-1.7421,-1.7449,-1.7328,-1.7062,-1.6803,-1.6598,-1.6326,-1.6109,-1.5897,-1.5885,-1.5885,-1.5885,-1.5885,-1.5891,-1.6089,-1.6174,0.1966,0.1965,0.1964,0.1966,0.1964,0.1962,0.1949,0.1927,0.1926,0.191,0.1894,0.1883,0.188,0.1875,0.1874,0.1757,0.1408,0.0,0.0,0.0,0.0,0.0,0.0,0.0,0.0,0.0,0.0,0.0,0.0,0.0,0.0,0.0,0.0,0.0,0.0,0.0,0.0,0.0,0.0,0.0,0.0,-0.2955,-0.5317,-0.7301,-0.7956,-0.7872,-0.7872,-0.7872,-0.8097,-0.8332,-0.8591,-0.8769,-0.9097,-0.9337,-0.9331,-0.96,-0.9792,-0.992,-1.0647,-1.1823,-1.2225,-1.1165,-1.0828,-1.0635,-1.0026,-0.955,-0.9086,-0.8944,-0.8806,-0.8809,-0.8843,-0.8947,-0.8944,-0.8964,-0.8994,-0.9049,-0.9096,-0.9137,-0.9201,-0.931,-0.9388,-0.9476,-0.9432,-0.9469,-0.9526,-0.9617,-0.9805,-0.9815,-0.9819,-0.9819,-0.9819,-0.9819,-0.9819,-0.9819,-0.9805,-0.9761,-1.0959,-1.3933,-1.6012,-1.7439,-1.7455,-1.7334,-1.7141,-1.6905,-1.6712,-1.6501,-1.6235,-1.6048,-1.594,-1.5863,-1.5856,-1.5899,-1.5897,-1.6138,-1.6466,0.1977,0.1977,0.1977,0.1977,0.1977,0.1977,0.1969,0.1959,0.1956,0.1949,0.1934,0.1917,0.1902,0.1892,0.1885,0.1895,0.1547,0.0592,0.0,0.0,0.0,0.0,0.0,0.0,0.0,0.0,0.0,0.0,0.0,0.0,0.0,0.0,0.0,0.0,0.0,0.0,0.0,0.0,0.0,0.0,0.0,0.0,-0.3666,-0.7534,-0.7865,-0.7902,-0.7872,-0.7872,-0.8119,-0.836,-0.8421,-0.8766,-0.9125,-0.949,-0.961,-0.96,-0.9779,-0.9806,-1.0027,-1.0827,-1.0565,-1.0176,-1.0126,-0.9994,-0.9521,-0.9327,-0.9151,-0.8967,-0.8874,-0.895,-0.8947,-0.9059,-0.9062,-0.9076,-0.911,-0.9188,-0.9252,-0.9273,-0.9337,-0.9459,-0.9568,-0.9509,-0.9563,-0.9587,-0.96,-0.9643,-0.9812,-0.9815,-0.9819,-0.9819,-0.9819,-0.9819,-0.9819,-0.9819,-0.9805,-0.9774,-0.9737,-1.2307,-1.6029,-1.7079,-1.7343,-1.7322,-1.7159,-1.6996,-1.6809,-1.6585,-1.635,-1.6241,-1.6175,-1.6011,-1.5875,-1.6041,-1.6229,-1.6356,-1.6648,0.1977,0.1977,0.1977,0.1977,0.1977,0.1977,0.1977,0.1977,0.1976,0.1976,0.1971,0.1952,0.1929,0.1913,0.1913,0.1925,0.1819,0.0599,0.0,0.0,0.0,0.0,0.0,0.0,0.0,0.0,0.0,0.0,0.0,0.0,0.0,0.0,0.0,0.0,0.0,0.0,0.0,0.0,0.0,0.0,0.0,0.0,0.0,-0.5607,-0.7439,-0.7918,-0.7877,-0.7872,-0.8119,-0.8241,-0.8363,-0.859,-0.8958,-0.9447,-0.9694,-0.9808,-0.9778,-0.9785,-0.9815,-1.0048,-0.9819,-0.9788,-0.9737,-0.9737,-0.96,-0.9439,-0.9398,-0.9112,-0.904,-0.8983,-0.8974,-0.9208,-0.9329,-0.936,-0.9404,-0.9367,-0.9429,-0.9439,-0.949,-0.9608,-0.9693,-0.9713,-0.9761,-0.9795,-0.9812,-0.9815,-0.9819,-0.9819,-0.9822,-0.9825,-0.9866,-0.988,-0.991,-0.993,-0.9958,-0.9907,-0.9829,-1.0966,-1.455,-1.6866,-1.728,-1.7388,-1.7237,-1.7068,-1.6917,-1.6833,-1.67,-1.6549,-1.6312,-1.6354,-1.6297,-1.6486,-1.6646,-1.6748,-1.6851,0.1977,0.1977,0.1977,0.1977,0.1977,0.1977,0.1977,0.1977,0.1977,0.1977,0.1977,0.1973,0.1967,0.1965,0.196,0.1963,0.1971,0.0616,0.0,0.0,0.0,0.0,0.0,0.0,0.0,0.0,0.0,0.0,0.0,0.0,0.0,0.0,0.0,0.0,0.0,0.0,0.0,0.0,0.0,0.0,0.0,0.0,0.0,-0.4229,-0.6471,-0.7884,-0.7883,-0.7872,-0.7872,-0.7994,-0.8244,-0.8369,-0.8735,-0.9108,-0.9473,-0.9592,-0.9714,-0.9832,-0.9825,-0.9822,-0.9819,-0.9819,-0.9788,-0.9727,-0.9612,-0.9595,-0.9534,-0.9322,-0.9398,-0.9252,-0.9129,-0.9245,-0.9487,-0.9511,-0.9562,-0.9513,-0.9564,-0.9588,-0.9649,-0.9764,-0.9805,-0.9795,-0.9791,-0.9815,-0.9819,-0.9819,-0.9819,-0.9819,-0.9839,-0.9852,-0.9927,-0.9971,-1.0022,-1.0083,-1.0062,-0.9999,-0.9992,-1.0997,-1.3802,-1.5975,-1.7375,-1.7349,-1.731,-1.7225,-1.7105,-1.708,-1.705,-1.6911,-1.6791,-1.6712,-1.6736,-1.6875,-1.7061,-1.7122,-1.7153,0.1977,0.1977,0.1977,0.1977,0.1977,0.1977,0.1977,0.1977,0.1977,0.1977,0.1977,0.1977,0.1977,0.1977,0.1977,0.1977,0.1853,0.0617,0.0,0.0,0.0,0.0,0.0,0.0,0.0,0.0,0.0,0.0,0.0,0.0,0.0,0.0,0.0,0.0,0.0,0.0,0.0,0.0,0.0,0.0,0.0,0.0,-0.1289,-0.3855,-0.6484,-0.7764,-0.7896,-0.7875,-0.7872,-0.7997,-0.8002,-0.8255,-0.8258,-0.8628,-0.887,-0.9236,-0.9483,-0.9731,-0.9849,-0.9839,-0.9822,-0.9819,-0.9819,-0.9795,-0.9727,-0.9734,-0.972,-0.9649,-0.9564,-0.9523,-0.952,-0.9523,-0.9648,-0.9787,-0.971,-0.9652,-0.9683,-0.97,-0.972,-0.9802,-0.9815,-0.9812,-0.9815,-0.9819,-0.9819,-0.9819,-0.9819,-0.9832,-0.9876,-0.991,-0.9992,-1.0093,-1.0154,-1.0209,-1.0179,-1.0106,-1.0009,-1.1429,-1.2952,-1.4973,-1.6874,-1.7427,-1.7412,-1.734,-1.7304,-1.7286,-1.7261,-1.7231,-1.7165,-1.7074,-1.7117,-1.7225,-1.7383,-1.7371,-1.7462,0.1977,0.1977,0.1977,0.1977,0.1977,0.1977,0.1977,0.1977,0.1977,0.1977,0.1977,0.1984,0.1989,0.1989,0.199,0.1991,0.1865,0.1115,0.0494,0.0,0.0,0.0,0.0,0.0,0.0,0.0,0.0,0.0,0.0,0.0,0.0,0.0,0.0,0.0,0.0,0.0,0.0,0.0,0.0,0.0,0.0,0.0,0.0,-0.3919,-0.6588,-0.7865,-0.7997,-0.7943,-0.794,-0.794,-0.806,-0.8058,-0.8178,-0.8175,-0.8172,-0.8541,-0.9035,-0.9419,-0.9818,-0.9866,-0.9832,-0.9819,-0.9819,-0.9819,-0.9819,-0.9819,-0.9785,-0.9791,-0.984,-0.9796,-0.9789,-0.9796,-0.9796,-0.9806,-0.9834,-0.9764,-0.9768,-0.9781,-0.9788,-0.9819,-0.9825,-0.9846,-0.9824,-0.9964,-0.9975,-0.9961,-0.993,-0.9968,-1.0036,-1.0066,-1.009,-1.0195,-1.03,-1.0354,-1.0405,-1.0354,-1.0304,-1.0506,-1.2178,-1.426,-1.5887,-1.6578,-1.728,-1.743,-1.7418,-1.7473,-1.7436,-1.7358,-1.7394,-1.7436,-1.7436,-1.7394,-1.74,-1.7493,-1.7406,0.1977,0.1977,0.1977,0.1977,0.1982,0.1978,0.1978,0.1978,0.198,0.1983,0.1989,0.2007,0.2018,0.2017,0.2015,0.2014,0.1888,0.162,0.1116,0.0,0.0,0.0,0.0,0.0,0.0,0.0,0.0,0.0,0.0,0.0,0.0,0.0,0.0,0.0,0.0,0.0,0.0,0.0,0.0,0.0,0.0,0.0,0.0,-0.3464,-0.6716,-0.814,-0.8076,-0.8046,-0.804,-0.8016,-0.804,-0.8174,-0.8174,-0.8049,-0.8046,-0.804,-0.829,-0.8973,-1.0082,-0.9848,-0.9863,-0.9825,-0.9819,-0.9819,-0.9819,-0.9819,-0.9819,-0.9819,-0.9795,-0.9795,-0.9805,-0.9805,-0.9795,-0.9795,-0.9812,-0.9819,-0.9819,-0.9873,-0.9886,-0.9914,-0.9883,-0.9886,-0.9911,-1.0012,-1.0277,-1.0256,-1.007,-1.0093,-1.0171,-1.0226,-1.0243,-1.031,-1.0426,-1.05,-1.0541,-1.0647,-1.0606,-1.0684,-1.1217,-1.3069,-1.4661,-1.5397,-1.6237,-1.7061,-1.7126,-1.6885,-1.712,-1.7467,-1.7479,-1.7485,-1.7485,-1.7461,-1.7479,-1.7485,-1.7485,0.1987,0.2003,0.1984,0.1999,0.2029,0.2012,0.1994,0.1982,0.1996,0.2015,0.2033,0.2046,0.2048,0.2044,0.2032,0.2032,0.1915,0.0884,0.0377,0.1145,0.0384,0.0,0.0,0.0,0.0,0.0,0.0,0.0,0.0,0.0,0.0,0.0,0.0,0.0,0.0,0.0,0.0,0.0,0.0,0.0,0.0,0.0,0.0,0.0,-0.5854,-0.8083,-0.8125,-0.8149,-0.8147,-0.8106,-0.8127,-0.8174,-0.8174,-0.8047,-0.8044,-0.8041,-0.8295,-0.9025,-0.9648,-0.9751,-0.9924,-0.9863,-0.9819,-0.9819,-0.9819,-0.9819,-0.9819,-0.9819,-0.9819,-0.9819,-0.9815,-0.9815,-0.9808,-0.9808,-0.9819,-0.9819,-0.9839,-0.9937,-0.9998,-1.0039,-1.0036,-1.009,-1.0202,-1.0317,-1.0479,-1.0462,-1.028,-1.0236,-1.0283,-1.0365,-1.0412,-1.0463,-1.0544,-1.0629,-1.067,-1.0754,-1.0699,-1.0637,-1.0656,-1.1273,-1.2665,-1.4076,-1.4756,-1.5324,-1.5861,-1.629,-1.6644,-1.6885,-1.7361,-1.7485,-1.7485,-1.7485,-1.7485,-1.7485,-1.7485,0.2002,0.2017,0.201,0.2028,0.2056,0.2158,0.2012,0.201,0.2026,0.2046,0.2063,0.2073,0.208,0.2074,0.2063,0.2056,0.1946,0.1025,0.0255,0.1293,0.052,0.0,0.0,0.0,0.0,0.0,0.0,0.0,0.0,0.0,0.0,0.0,0.0,0.0,0.0,0.0,0.0,0.0,0.0,0.0,0.0,0.0,0.0,0.0,-0.4156,-0.7357,-0.8023,-0.8244,-0.8263,-0.8223,-0.8242,-0.8299,-0.8299,-0.8299,-0.8167,-0.8296,-0.8458,-0.9035,-0.9311,-0.9761,-0.9781,-0.9846,-0.9825,-0.9819,-0.9819,-0.9819,-0.9819,-0.9819,-0.9819,-0.9825,-0.9829,-0.9829,-0.9852,-0.9856,-0.9903,-0.991,-0.9992,-1.0097,-1.0131,-1.0171,-1.0205,-1.0276,-1.0361,-1.0473,-1.0689,-1.0658,-1.0493,-1.0449,-1.0399,-1.046,-1.0534,-1.0585,-1.0619,-1.0673,-1.0711,-1.0697,-1.0774,-1.0719,-1.062,-1.0645,-1.1202,-1.2649,-1.3185,-1.3723,-1.4425,-1.522,-1.5839,-1.6408,-1.7126,-1.7485,-1.7485,-1.7485,-1.7485,-1.7503,-1.7521,0.2019,0.2026,0.2052,0.2065,0.2063,0.2172,0.2172,0.2066,0.2065,0.2067,0.2071,0.2102,0.211,0.211,0.2107,0.2106,0.1972,0.1299,0.0649,0.0,0.0,0.0,0.0,0.0,0.0,0.0,0.0,0.0,0.0,0.0,0.0,0.0,0.0,0.0,0.0,0.0,0.0,0.0,0.0,0.0,0.0,0.0,0.0,0.0,-0.2721,-0.5736,-0.7245,-0.8407,-0.8405,-0.8397,-0.8413,-0.8421,-0.8424,-0.8555,-0.8421,-0.8314,-0.8513,-0.8793,-0.9175,-0.9634,-0.9735,-0.9787,-0.9832,-0.9825,-0.9819,-0.9819,-0.9819,-0.9819,-0.9822,-0.9836,-0.9842,-0.9883,-0.9924,-0.9978,-1.0049,-1.0114,-1.0205,-1.0263,-1.028,-1.0304,-1.0331,-1.0395,-1.0493,-1.0605,-1.0656,-1.0646,-1.0616,-1.0616,-1.0568,-1.0524,-1.0595,-1.0663,-1.069,-1.0704,-1.0721,-1.0721,-1.0704,-1.0774,-1.0656,-1.0709,-1.1146,-1.1411,-1.2012,-1.2734,-1.3496,-1.4246,-1.5406,-1.6414,-1.7256,-1.7497,-1.7491,-1.7485,-1.7485,-1.7569,-1.7593,0.2043,0.208,0.2069,0.2089,0.2125,0.2119,0.2121,0.2126,0.2108,0.2106,0.2129,0.2137,0.2138,0.214,0.2119,0.2125,0.1857,0.1323,0.0662,0.0,0.0,0.0,0.0,0.0,0.0,0.0,0.0,0.0,0.0,0.0,0.0,0.0,0.0,0.0,0.0,0.0,0.0,0.0,0.0,0.0,0.0,0.0,0.0,0.0,0.0,0.0,-0.6651,-0.826,-0.8379,-0.8459,-0.8508,-0.8535,-0.8538,-0.8541,-0.8538,-0.8538,-0.8681,-0.8766,-0.9284,-0.9557,-0.9807,-0.9888,-0.9903,-0.9829,-0.9819,-0.9842,-0.9846,-0.9873,-0.9767,-0.9794,-0.9841,-1.0005,-1.007,-1.028,-1.0212,-1.0263,-1.0351,-1.0409,-1.0426,-1.0446,-1.047,-1.0527,-1.0494,-1.0649,-1.0694,-1.0711,-1.0721,-1.0721,-1.0707,-1.0649,-1.0636,-1.07,-1.0721,-1.0721,-1.0721,-1.0721,-1.0721,-1.0711,-1.0711,-1.068,-1.0826,-1.1102,-1.1148,-1.1664,-1.2511,-1.3784,-1.5375,-1.6233,-1.697,-1.7415,-1.7385,-1.7491,-1.7503,-1.763,-1.7714,0.2981,0.2894,0.2366,0.2122,0.2151,0.2155,0.2155,0.2151,0.2135,0.2139,0.2154,0.2154,0.2155,0.2151,0.2137,0.2138,0.2151,0.1345,0.0,0.0,0.0,0.0,0.0,0.0,0.0,0.0,0.0,0.0,0.0,0.0,0.0,0.0,0.0,0.0,0.0,0.0,0.0,0.0,0.0,0.0,0.0,0.0,0.0,0.0,0.0,0.0,-0.5099,-0.6604,-0.8333,-0.8451,-0.8666,-0.8617,-0.8619,-0.8622,-0.8587,-0.8579,-0.8573,-0.878,-0.9065,-0.9383,-0.9646,-0.978,-0.9925,-1.0032,-0.9985,-0.9985,-0.9878,-0.9895,-0.9898,-0.979,-0.9968,-1.0154,-1.0253,-1.0476,-1.0371,-1.0395,-1.0466,-1.0541,-1.0571,-1.0592,-1.0629,-1.0677,-1.0714,-1.0721,-1.0721,-1.0721,-1.0721,-1.0721,-1.0721,-1.07,-1.0683,-1.0711,-1.0721,-1.0721,-1.0721,-1.0721,-1.0721,-1.0721,-1.0717,-1.0673,-1.0723,-1.0678,-1.0879,-1.1122,-1.1458,-1.2904,-1.4212,-1.5545,-1.6486,-1.6817,-1.6953,-1.6862,-1.7142,-1.7793,-1.7859,0.4211,0.4092,0.2811,0.2151,0.2155,0.2155,0.2155,0.2155,0.2153,0.2155,0.2155,0.2155,0.2155,0.2154,0.2149,0.2149,0.2028,0.1358,0.0,0.0,0.0,0.0,0.0,0.0,0.0,0.0,0.0,0.0,0.0,0.0,0.0,0.0,0.0,0.0,0.0,0.0,0.0,0.0,0.0,0.0,0.0,0.0,0.0,0.0,0.0,0.0,0.0,-0.4364,-0.8191,-0.8526,-0.8802,-0.8709,-0.8687,-0.8647,-0.8603,-0.8587,-0.8584,-0.8673,-0.8993,-0.9187,-0.9506,-0.9813,-1.0022,-1.0249,-1.0195,-1.0124,-1.0127,-1.0025,-1.0029,-1.0076,-1.0256,-1.0424,-1.0503,-1.0596,-1.0521,-1.0548,-1.0599,-1.0643,-1.0649,-1.0666,-1.0677,-1.0727,-1.0662,-1.0672,-1.0853,-1.0792,-1.0761,-1.0765,-1.0748,-1.0748,-1.0724,-1.0721,-1.0721,-1.0721,-1.0721,-1.0721,-1.0721,-1.0721,-1.0721,-1.0711,-1.066,-1.0633,-1.0609,-1.0848,-1.1068,-1.1591,-1.2743,-1.3904,-1.4908,-1.5996,-1.6165,-1.6032,-1.6658,-1.7804,-1.8118,0.4237,0.4146,0.2822,0.2155,0.2155,0.2155,0.2155,0.2155,0.2155,0.2155,0.2155,0.2155,0.2155,0.2155,0.2158,0.2159,0.2029,0.1372,0.0686,0.0,0.0,0.0,0.0,0.0,0.0,0.0,0.0,0.0,0.0,0.0,0.0,0.0,0.0,0.0,0.0,0.0,0.0,0.0,0.0,0.0,0.0,0.0,0.0,0.0,0.0,0.0,0.0,-0.1384,-0.5269,-0.7532,-0.8636,-0.8851,-0.8774,-0.8655,-0.8598,-0.8587,-0.8587,-0.8693,-0.8786,-0.9121,-0.945,-0.9783,-1.0128,-1.0256,-1.0351,-1.0273,-1.0249,-1.028,-1.0314,-1.0368,-1.0412,-1.0579,-1.075,-1.0709,-1.0653,-1.0687,-1.0721,-1.0721,-1.0721,-1.0721,-1.0721,-1.0772,-1.0709,-1.0772,-1.0823,-1.0816,-1.0776,-1.0752,-1.0839,-1.0816,-1.0741,-1.0731,-1.0721,-1.0721,-1.0721,-1.0721,-1.0721,-1.0721,-1.0721,-1.0721,-1.0721,-1.069,-1.0649,-1.0544,-1.0805,-1.1232,-1.1404,-1.1469,-1.2603,-1.4163,-1.5556,-1.566,-1.7083,-1.8261,-1.8456,0.6259,0.5902,0.4031,0.2824,0.2287,0.2154,0.2155,0.2155,0.2155,0.2155,0.2155,0.2155,0.2155,0.216,0.2168,0.2173,0.2045,0.1389,0.0696,0.0,0.0,0.0,0.0,0.0,0.0,0.0,0.0,0.0,0.0,0.0,0.0,0.0,0.0,0.0,0.0,0.0,0.0,0.0,0.0,0.0,0.0,0.0,0.0,0.0,0.0,0.0,0.0,-0.0983,-0.3805,-0.679,-0.8074,-0.8916,-0.8815,-0.8715,-0.8644,-0.8606,-0.8587,-0.8587,-0.8693,-0.9053,-0.9401,-0.9624,-1.0149,-1.03,-1.0306,-1.0247,-1.05,-1.0524,-1.0524,-1.0571,-1.0578,-1.0737,-1.0747,-1.0673,-1.0694,-1.0707,-1.0721,-1.0721,-1.0721,-1.0721,-1.0738,-1.0652,-1.0856,-1.1198,-1.1264,-1.1224,-1.1186,-1.0859,-1.0948,-1.0911,-1.0826,-1.0761,-1.0765,-1.0734,-1.0721,-1.0721,-1.0721,-1.0721,-1.0721,-1.0721,-1.0717,-1.0714,-1.068,-1.0582,-1.0651,-1.077,-1.0823,-1.076,-1.0906,-1.2254,-1.3897,-1.5383,-1.6965,-1.8291,-1.8602,0.8302,0.7905,0.5637,0.3627,0.2417,0.2421,0.2424,0.2155,0.2155,0.2158,0.2163,0.2163,0.2159,0.2166,0.2185,0.2194,0.2076,0.1689,0.0988,0.0,0.0,0.0,0.0,0.0,0.0,0.0,0.0,0.0,0.0,0.0,0.0,0.0,0.0,0.0,0.0,0.0,0.0,0.0,0.0,0.0,0.0,0.0,0.0,0.0,0.0,0.0,0.0,-0.2139,-0.3862,-0.6301,-0.8029,-0.8588,-0.887,-0.8633,-0.8677,-0.8622,-0.8587,-0.8587,-0.8715,-0.8972,-0.9099,-0.9368,-0.9791,-1.019,-1.0316,-1.0442,-1.0565,-1.0697,-1.0697,-1.0697,-1.0704,-1.0707,-1.0714,-1.0721,-1.0721,-1.0724,-1.0724,-1.0727,-1.0727,-1.0731,-1.0782,-1.0692,-1.0914,-1.1254,-1.1495,-1.1593,-1.1455,-1.1248,-1.1197,-1.1023,-1.0968,-1.089,-1.085,-1.0809,-1.0741,-1.0721,-1.0721,-1.0721,-1.0721,-1.0721,-1.0717,-1.0717,-1.069,-1.0619,-1.0709,-1.0723,-1.074,-1.0702,-1.0871,-1.0995,-1.1988,-1.374,-1.5322,-1.6786,-1.8291,0.7902,0.67,0.6166,0.4559,0.2685,0.3361,0.3228,0.2289,0.2292,0.2168,0.2187,0.2189,0.218,0.2157,0.2186,0.2204,0.2224,0.1844,0.1,0.0,0.0,0.0,0.0,0.0,0.0,0.0,0.0,0.0,0.0,0.0,0.0,0.0,0.0,0.0,0.0,0.0,0.0,0.0,0.0,0.0,0.0,0.0,0.0,0.0,0.0,0.0,0.0,0.0,-0.3916,-0.6968,-0.8796,-0.8941,-0.8954,-0.87,-0.8603,-0.866,-0.8625,-0.8619,-0.8756,-0.8887,-0.9024,-0.9149,-0.9685,-1.0073,-1.0332,-1.0452,-1.0578,-1.0711,-1.0711,-1.0711,-1.0714,-1.0714,-1.0721,-1.0721,-1.0721,-1.0734,-1.0741,-1.0751,-1.0755,-1.0668,-1.0729,-1.0826,-1.0813,-1.1189,-1.1608,-1.1667,-1.1657,-1.1451,-1.1243,-1.1179,-1.1107,-1.1029,-1.0951,-1.0836,-1.0748,-1.0724,-1.0721,-1.0721,-1.0734,-1.0765,-1.0761,-1.0724,-1.0687,-1.069,-1.0673,-1.0677,-1.0694,-1.068,-1.0666,-1.0774,-1.0761,-1.1788,-1.3505,-1.5082,-1.641]}]]